     2              OBSERVATION DATA    GPS                 RINEX VERSION / TYPE
teqc 2000Feb29 20030805 03:14:23UTC                         PGM / RUN BY / DATE
                                                            COMMENT
L2: 1 -> 1; 150 -> 5; 250 -> 9                              COMMENT
L2: 1 -> 1; 150 -> 5; 250 -> 9                              COMMENT
L2: 1 -> 1; 150 -> 5; 250 -> 9                              COMMENT
L2: 1 -> 1; 150 -> 5; 250 -> 9                              COMMENT
L2: 1 -> 1; 150 -> 5; 250 -> 9                              COMMENT
Original Marker Name: RCAG                                  COMMENT
Campaign Name: USC/SCEC 2003                                COMMENT
4-Character Station Name: RCAG                              COMMENT
6-Character Antenna Code: DMRCHT                            COMMENT
Vertical Measurement Point: BCR                             COMMENT
Vertical Offset to Rinex Ref. Point: 0.0348                 COMMENT
Radial Measurement Point: ECF                               COMMENT
Radial Offset to Rinex Ref. Point: 0.1897                   COMMENT
Antenna Height from Field Measurement: 1.1030 m             COMMENT
Additional Antenna Identification Info.:                    COMMENT
Turborogue and Ashtech Choke Ring                           COMMENT
Original XYZ: -2621735.9778 -4547371.4533 3613344.3783      COMMENT
New XYZ position is based on association with SCEC monument COMMENT
E1E9D0Z4+0011. Position of that monument is believed to be  COMMENT
valid to within 1 m horizontally; vertical accuracy         COMMENT
should be no worse than 3-times this value.                 COMMENT
                                                            COMMENT
Revised Rinex header created by UCSD GPS archive for        COMMENT
GSAC on 08-Sep-2004 (2004:252) 00:28:54 GMT                 COMMENT
For assistance contact dagnew@ucsd.edu                      COMMENT
or anderson@python.ucsd.edu                                 COMMENT
                                                            COMMENT
RCAG 1993                                                   MARKER NAME
KEA UNIV SOUTHERN CALIFORNIA                                OBSERVER / AGENCY
192 ASHTECH Z-XII3 CD00                                     REC # / TYPE / VERS
365 DORNE-MARGOL. TYPE T                                    ANT # / TYPE
 -2609191.0000 -4570718.0000  3592953.0000                  APPROX POSITION XYZ
        1.0518        0.0000        0.0000                  ANTENNA: DELTA H/E/N
     1     1     0                                          WAVELENGTH FACT L1/2
     7    C1    L1    L2    P1    P2    S1    S2            # / TYPES OF OBSERV
     0                                                      INTERVAL
  2003     3    21     0    39    0.000000                  TIME OF FIRST OBS
  2003     3    21    16    18    0.000000                  TIME OF LAST OBS
                                                            END OF HEADER
 03  3 21  0 39  0.0000000  0  1G23
  21494339.045      224149.34049    164297.30347  21494338.729    21494345.391
       241.000         207.000
 03  3 21  0 40  0.0000000  0  2G23G15
                     68638.56449     42091.09047                  21517664.894
       240.000         197.000
                       460.23749       274.32547                  20501210.023
       245.000         193.000
 03  3 21  0 40 30.0000000  0  2G23G15
  21529457.084      130638.87349     90403.01847  21529456.717    21529463.457
       240.000         205.000
  20501449.364        1751.32449      1280.38147  20501449.252    20501455.742
       244.000         212.000
 03  3 21  0 41  0.0000000  0  2G23G15
  21541348.211      193165.04057    139124.69247  21541351.133    21541356.016
       148.000         206.000
  20501824.162        3697.58757      2796.95348  20501820.185    20501834.204
       140.000         215.000
 03  3 21  0 41 30.0000000  0  2G23G15
                     39172.50749     23423.67046                  21553296.283
       241.000         185.000
                      1471.43249       894.90547                  20502257.834
       245.000         194.000
 03  3 21  0 42  0.0000000  0  3G23G15G17
  21565295.492      102261.99549     72584.30847  21565295.197    21565302.237
       241.000         204.000
  20502780.375        4247.91949      3058.41548  20502779.761    20502786.127
       244.000         213.000
                     22206.24749     11066.38143
       237.000          74.000
 03  3 21  0 42 30.0000000  0  4G23G15G18G17
  21577366.528      165695.29749    122012.85247  21577366.130    21577372.692
       240.000         206.000
  20503400.249        7505.60049      5596.88048  20503399.762    20503406.101
       245.000         215.000
                     92832.06749     63028.42445
       242.000         143.000
                     73963.77449     50894.40843
       236.000          74.000
 03  3 21  0 43  0.0000000  0  4G23G15G18G17
  21589513.459      229526.71549    171751.61647  21589513.241    21589519.289
       241.000         207.000
  20504122.544       11301.40849      8554.66148  20504122.172    20504128.571
       244.000         216.000
                    132530.26949     93962.10245
       242.000         144.000
                    126254.21449     91123.56543
       237.000          74.000
 03  3 21  0 43 30.0000000  0  4G23G15G18G17
  21338023.064    -1092065.15249   -858060.23547  21338022.504    21338028.906
       241.000         207.000
  20241234.292    -1370185.09649  -1067928.31648  20241233.686    20241240.347
       244.000         216.000
                  -1213065.96049  -1057549.43347                  20472457.241
       243.000         203.000
                  -1206741.43149  -1071164.28445                  21187745.588
       236.000         148.000
 03  3 21  0 44  0.0000000  0  4G23G15G18G17
  21345772.022    -1051343.45949   -826329.04947  21345771.630    21345778.074
       241.000         207.000
  20237613.901    -1389210.81849  -1082753.54748  20237613.512    20237619.647
       245.000         216.000
  20475658.454    -1196218.00249  -1044421.15148  20475658.197    20475663.364
       243.000         214.000
  21193343.954    -1177283.59549  -1048210.14147  21193343.713    21193350.861
       236.000         195.000
 03  3 21  0 44 30.0000000  0  4G23G15G18G17
  21353548.878    -1010475.68549   -794484.03447  21353548.726    21353554.928
       241.000         207.000
  20234049.395    -1407942.49949  -1097349.65548  20234048.859    20234055.326
       245.000         216.000
  20478917.111    -1179093.92949  -1031077.71648  20478916.731    20478921.821
       242.000         216.000
  21199004.457    -1147538.26949  -1025031.98247  21199004.005    21199011.072
       235.000         199.000
 03  3 21  0 45  0.0000000  0  4G23G15G18G17
  21361353.202     -969463.69049   -762526.64047  21361352.833    21361359.321
       242.000         207.000
  20230540.986    -1426379.41549  -1111716.07548  20230540.418    20230547.001
       245.000         216.000
  20482227.931    -1161695.43549  -1017520.44848  20482227.729    20482232.559
       242.000         216.000
  21204719.492    -1117505.42049  -1001629.78247  21204718.949    21204725.999
       236.000         199.000
 03  3 21  0 45 30.0000000  0  4G23G15G18G17
  21369184.771     -928308.71849   -730457.84147  21369184.401    21369191.009
       242.000         207.000
  20227088.954    -1444520.11749  -1125851.67848  20227088.278    20227094.922
       245.000         216.000
  20485590.788    -1144023.73449  -1003750.29048  20485590.621    20485595.558
       243.000         217.000
  21210489.517    -1087183.77349   -978002.53147  21210489.174    21210496.168
       237.000         199.000
 03  3 21  0 46  0.0000000  0  4G23G15G18G17
  21377043.227     -887012.23249   -698278.77147  21377043.101    21377049.142
       241.000         206.000
  20223693.477    -1462363.44749  -1139755.56848  20223693.009    20223699.176
       245.000         216.000
  20489005.350    -1126080.25049   -989768.35548  20489005.077    20489010.237
       243.000         217.000
  21216314.613    -1056572.91649   -954149.93447  21216314.651    21216321.583
       236.000         199.000
 03  3 21  0 46 30.0000000  0  4G23G15G18G17
  21384928.499     -845575.24849   -665990.21747  21384928.152    21384934.594
       242.000         206.000
  20220354.933    -1479907.75149  -1153426.44548  20220354.340    20220360.663
       245.000         216.000
  20492471.491    -1107865.68949   -975575.18948  20492471.157    20492476.165
       242.000         216.000
  21222194.969    -1025671.95849   -930071.27947  21222194.750    21222201.741
       236.000         200.000
 03  3 21  0 47  0.0000000  0  4G23G15G18G17
  21392840.098     -803999.73549   -633593.71647  21392839.885    21392846.171
       241.000         206.000
  20217073.380    -1497152.55949  -1166863.95048  20217072.752    20217079.292
       245.000         216.000
  20495988.748    -1089382.18849   -961172.46348  20495988.472    20495993.376
       243.000         216.000
  21228130.528     -994480.46849   -905766.24147  21228130.371    21228137.027
       236.000         200.000
 03  3 21  0 47 30.0000000  0  4G23G15G18G17
  21700569.922      813131.59049    626508.60347  21700569.678    21700575.802
       241.000         206.000
  20513641.586       61323.96249     47533.34648  20513641.062    20513647.322
       245.000         216.000
  20799349.350      504788.54849    281038.50448  20799349.180    20799354.105
       243.000         216.000
  21533913.729      612420.89549    346364.67947  21533913.522    21533920.486
       235.000         199.000
 03  3 21  0 48  0.0000000  0  2G23G17
  21408741.720     -720436.11849   -568479.22747  21408741.477    21408747.782
       241.000         206.000
  21240168.329     -931221.49149   -856473.56247  21240167.878    21240174.730
       235.000         199.000
 03  3 21  0 48 30.0000000  0  2G23G17
  21416731.198     -678451.12749   -535763.65247  21416730.766    21416737.419
       241.000         206.000
  21246270.776     -899153.02349   -831485.15947  21246270.243    21246277.485
       236.000         198.000
 03  3 21  0 49  0.0000000  0  2G23G17
  21424746.197     -636331.88749   -502943.47747  21424745.687    21424752.221
       241.000         205.000
  21252429.161     -866790.46349   -806267.61147  21252429.030    21252435.976
       236.000         199.000
 03  3 21  0 49 30.0000000  0  2G23G17
  21432786.477     -594079.86849   -470019.83647  21432786.151    21432792.727
       241.000         205.000
  21258643.694     -834133.42449   -780820.57947  21258642.858    21258650.480
       235.000         199.000
 03  3 21  0 50  0.0000000  0  2G23G17
  21440851.832     -551696.31049   -436993.69647  21440851.437    21440857.805
       240.000         205.000
  21264914.257     -801181.21649   -755143.55147  21264913.767    21264921.001
       236.000         198.000
 03  3 21  0 50 30.0000000  0  3G23G18G17
  21448941.915     -509182.60349   -403866.14447  21448941.787    21448947.968
       241.000         204.000
                   -118240.47949   -100590.01347                  20522032.299
       244.000         202.000
  21271241.053     -767933.82149   -729236.52347  21271240.706    21271247.669
       236.000         197.000
 03  3 21  0 51  0.0000000  0  3G23G18G17
  21457056.550     -466540.13149   -370638.24847  21457056.029    21457062.709
       241.000         204.000
  20525947.336      -97643.24249    -84540.21948  20525946.853    20525951.676
       244.000         214.000
  21277624.239     -734390.10149   -703098.57347  21277623.708    21277630.909
       237.000         197.000
 03  3 21  0 51 30.0000000  0  5G23G14G18G17G15
  21510136.664     -187602.32849   -153284.12947  21510136.502    21510142.498
       241.000         204.000
                   -190685.76049   -133704.48943
       229.000          74.000
  20574856.920      159380.46649    115737.99548  20574856.823    20574861.897
       243.000         215.000
  21329005.266     -464381.40549   -492702.20147  21329004.897    21329011.845
       236.000         198.000
                     30137.06149     20989.61243
       245.000          74.000
 03  3 21  0 52  0.0000000  0  5G23G14G18G17G15
  21545750.374        -451.67549     -7452.45947  21545750.168    21545756.246
       240.000         204.000
                   -150168.21649     85713.77345                  22273256.274
       229.000         156.000
  20606325.964      324748.17249    244595.94348  20606325.528    20606330.462
       244.000         216.000
  21362952.301     -285988.66249   -353694.89747  21362951.896    21362958.740
       235.000         197.000
  20259844.930      160218.51749    122351.72647  20259844.262    20259850.597
       245.000         207.000
 03  3 21  0 52 30.0000000  0  5G23G14G18G17G15
  21569487.242      124286.52649     89746.12847  21569486.595    21569493.389
       240.000         204.000
  22269115.566     -171901.05449     68779.15546  22269115.702    22269121.292
       229.000         178.000
  20625942.555      427834.30049    324922.79548  20625942.087    20625947.083
       244.000         216.000
  21385055.582     -169835.12049   -263185.66647  21385055.264    21385062.201
       236.000         197.000
  20272757.777      228076.45049    175228.04148  20272757.252    20272763.773
       245.000         214.000
 03  3 21  0 53  0.0000000  0  5G23G14G18G17G15
  21586735.744      214928.17149    160375.97347  21586735.154    21586741.905
       240.000         204.000
  22258523.249     -227563.96949     25405.51446  22258523.105    22258528.599
       230.000         182.000
  20639095.726      496955.01049    378783.09048  20639095.272    20639100.163
       243.000         216.000
  21400703.903      -87603.10149   -199108.79747  21400703.142    21400710.660
       235.000         197.000
  20279218.730      262029.44449    201684.92548  20279218.349    20279224.610
       245.000         216.000
 03  3 21  0 53 30.0000000  0  5G23G14G18G17G15
  21600442.897      286959.50149    216504.26947  21600442.984    21600448.865
       240.000         203.000
  22244421.949     -301666.85249    -32336.94146  22244421.647    22244426.864
       230.000         183.000
  20648732.440      547596.68249    418244.12848  20648732.100    20648736.818
       244.000         216.000
  21412844.382      -23804.37049   -149395.52547  21412844.047    21412850.933
       236.000         197.000
  20282175.433      277566.27449    213791.54848  20282174.902    20282181.140
       245.000         216.000
 03  3 21  0 54  0.0000000  0  6G23G14G18G 3G17G15
  21612224.189      348870.13649    264746.31447  21612223.839    21612230.360
       240.000         203.000
  22228427.859     -385716.24149    -97829.91346  22228426.730    22228433.117
       230.000         183.000
  20656468.297      588248.88049    449921.16248  20656467.915    20656472.862
       243.000         216.000
  22081498.304    -1446560.81349  -1121580.77347  22081498.537    22081504.970
       234.000         194.000
  21423093.064       30052.43349   -107429.20147  21423092.901    21423100.161
       236.000         197.000
  20283243.473      283178.98549    218165.09348  20283242.793    20283249.005
       245.000         216.000
 03  3 21  0 54 30.0000000  0  7G23G14G18G 3G17G15G 9
  21622964.181      405309.63949    308725.13547  21622963.844    21622970.231
       240.000         203.000
  22211426.473     -475058.50249   -167447.21046  22211425.860    22211431.554
       231.000         183.000
  20663187.989      623561.22149    477437.26848  20663187.523    20663192.568
       243.000         216.000
  22074044.304    -1485730.43949  -1152102.53547  22074044.587    22074051.148
       234.000         194.000
  21432334.895       78618.68549    -69585.38647  21432334.633    21432341.622
       236.000         197.000
  20283308.248      283519.64349    218430.54448  20283307.638    20283313.941
       245.000         216.000
                  -1401943.17949  -1089277.68743
       213.000          74.000
 03  3 21  0 55  0.0000000  0  7G23G14G18G 3G17G15G 9
  21633144.616      458808.10149    350412.24247  21633144.136    21633150.601
       238.000         203.000
  22193900.207     -567159.67349   -239214.30946  22193899.603    22193905.170
       230.000         184.000
  20669372.916      656063.57649    502763.78048  20669372.691    20669377.775
       244.000         216.000
  22066104.867    -1527454.68949  -1184614.90547  22066104.734    22066111.338
       234.000         194.000
  21441051.848      124426.40049    -33891.08447  21441051.459    21441058.944
       236.000         197.000
  20282851.773      281120.83449    216561.34648  20282851.264    20282857.703
       245.000         216.000
                  -1449969.20249  -1126692.82743
       213.000          74.000
 03  3 21  0 55 30.0000000  0  7G23G14G18G 3G17G15G 9
  21643028.185      510746.74949    390883.90447  21643027.904    21643034.358
       238.000         202.000
  22176112.463     -660634.74549   -312051.97546  22176111.657    22176118.351
       231.000         184.000
  20675286.027      687137.18049    526976.97348  20675285.678    20675290.650
       244.000         216.000
  22057942.319    -1570349.50649  -1218039.41547  22057941.985    22057948.595
       233.000         194.000
  21449507.087      168858.59949       731.38047  21449506.656    21449513.547
       236.000         197.000
  20282137.291      277366.16749    213635.63348  20282136.829    20282143.329
       245.000         216.000
                  -1499311.36849  -1165135.95943
       213.000          74.000
 03  3 21  0 56  0.0000000  0  7G23G14G18G 3G17G15G 9
  21652759.553      561885.57249    430732.32547  21652759.197    21652765.826
       238.000         202.000
  22158208.627     -754720.21049   -385365.26846  22158208.382    22158213.405
       230.000         185.000
  20681071.842      717541.98849    550669.02348  20681071.612    20681076.570
       243.000         216.000
  22049701.973    -1613652.25549  -1251781.79647  22049702.129    22049708.201
       234.000         194.000
  21457845.437      212676.66949     34875.30147  21457844.993    21457852.104
       235.000         197.000
  20281309.890      273017.96949    210247.42548  20281309.222    20281315.567
       245.000         216.000
                  -1549205.56549  -1130041.51743
       212.000          74.000
 03  3 21  0 56 30.0000000  0  7G23G14G18G 3G17G15G 9
  21662417.667      612639.28149    470280.66147  21662417.580    21662423.908
       239.000         203.000
  22140268.169     -848997.32749   -458827.91246  22140267.931    22140273.351
       231.000         185.000
  20686809.368      747692.87749    574163.22348  20686809.010    20686814.151
       243.000         216.000
  22041463.543    -1656945.52849  -1285516.78947  22041462.993    22041469.868
       234.000         194.000
  21466146.121      256297.58049     68865.60347  21466145.737    21466153.050
       235.000         196.000
  20280448.879      268493.44749    206721.83148  20280448.398    20280454.619
       245.000         216.000
                  -1599233.06949  -1169024.20443
       212.000          74.000
 03  3 21  0 57  0.0000000  0  7G23G14G18G 3G17G15G 9
  21672045.754      663234.94549    509705.84147  21672045.505    21672051.977
       239.000         202.000
  22122335.223     -943235.15849   -532259.93846  22122334.856    22122340.849
       232.000         186.000
  20692541.745      777816.91149    597636.48848  20692541.642    20692546.529
       244.000         216.000
  22033270.786    -1699999.52649  -1319065.33047  22033270.444    22033276.812
       235.000         194.000
  21474452.956      299950.51949    102880.85147  21474452.986    21474460.098
       235.000         196.000
  20279597.984      264022.06549    203237.63848  20279597.317    20279603.825
       245.000         216.000
                  -1649162.15449  -1207929.84344                  23960256.281
       210.000         131.000
 03  3 21  0 57 30.0000000  0  7G23G14G18G 3G17G15G 9
  21681667.142      713795.43349    549103.61647  21681666.924    21681673.142
       238.000         202.000
  22104433.974    -1037307.09249   -605562.70446  22104433.679    22104439.208
       232.000         186.000
  20698292.438      808036.78949    621184.44748  20698292.290    20698297.123
       244.000         216.000
  22025147.331    -1742688.61449  -1352329.53147  22025147.388    22025153.345
       234.000         194.000
  21482789.621      343759.45849    137017.66747  21482789.674    21482796.554
       236.000         196.000
  20278781.038      259729.09649    199892.47748  20278780.562    20278786.993
       245.000         216.000
  23950788.760    -1698865.95349  -1246660.01545  23950788.694    23950796.934
       212.000         147.000
 03  3 21  0 58  0.0000000  0  7G23G14G18G 3G17G15G 9
  21691294.595      764388.15149    588526.49847  21691294.100    21691300.641
       237.000         201.000
  22086577.734    -1131141.95549   -678680.73046  22086577.171    22086583.198
       232.000         187.000
  20704074.188      838419.90049    644859.58948  20704074.028    20704078.936
       244.000         216.000
  22017106.549    -1784942.58549  -1385254.68047  22017106.534    22017112.768
       234.000         194.000
  21491169.072      387793.36849    171329.77247  21491168.634    21491176.007
       236.000         196.000
  20278011.361      255684.41649    196740.77848  20278010.845    20278017.021
       245.000         216.000
  23941386.809    -1748273.17849  -1285159.06445  23941386.633    23941394.920
       214.000         151.000
 03  3 21  0 58 30.0000000  0  7G23G14G18G 3G17G15G 9
  21700934.822      815048.18849    628001.84447  21700934.376    21700941.144
       238.000         201.000
  22068773.964    -1224700.90849   -751583.76746  22068773.666    22068779.531
       232.000         187.000
  20709893.624      869001.20849    668689.17548  20709893.299    20709898.320
       243.000         216.000
  22009155.889    -1826723.68449  -1417811.35747  22009155.739    22009162.049
       235.000         194.000
  21499598.392      432089.34349    205846.10147  21499597.838    21499604.968
       235.000         195.000
  20277296.121      251925.54549    193811.79448  20277295.630    20277301.886
       245.000         216.000
  23932049.027    -1797344.44549  -1323396.32945  23932048.787    23932056.759
       213.000         153.000
 03  3 21  0 59  0.0000000  0  8G23G14G18G 3G17G15G31G 9
  21710591.580      865794.56249    667544.45847  21710591.320    21710597.669
       238.000         201.000
  22051027.124    -1317961.08749   -824253.98047  22051026.522    22051032.530
       233.000         188.000
  20715754.422      899800.01449    692688.23548  20715754.332    20715759.279
       244.000         216.000
  22001299.405    -1868010.34149  -1449982.75247  22001299.108    22001306.014
       235.000         195.000
  21508081.417      476668.05949    240582.74447  21508081.155    21508088.273
       235.000         195.000
  20276639.270      248473.66149    191122.02348  20276638.845    20276645.219
       246.000         217.000
  23853135.147    -1729594.50749  -1333103.78845  23853134.808    23853141.941
       214.000         158.000
  23922779.205    -1846056.78949  -1361353.91945  23922778.965    23922788.452
       213.000         154.000
 03  3 21  0 59 30.0000000  0  8G23G14G18G 3G17G15G31G 9
  21720266.522      916636.38649    707161.44447  21720266.313    21720272.748
       238.000         201.000
  22033339.560    -1410909.72449   -896681.44747  22033339.397    22033344.859
       233.000         188.000
  20721658.378      930825.08349    716863.60848  20721658.175    20721662.976
       244.000         216.000
  21993539.127    -1908790.84149  -1481759.74747  21993539.070    21993545.238
       235.000         195.000
  21516620.336      521540.22949    275548.04847  21516620.084    21516627.092
       234.000         195.000
  20276043.053      245340.43049    188680.54548  20276042.468    20276048.816
       245.000         217.000
  23837404.957    -1812254.37649  -1397513.99345  23837404.488    23837412.526
       214.000         159.000
  23913580.381    -1894397.01049  -1399021.55445  23913579.623    23913587.845
       212.000         154.000
 03  3 21  1  0  0.0000000  0  8G23G14G18G 3G17G15G31G 9
  21729960.444      967577.75749    746856.00547  21729960.162    21729966.498
       237.000         201.000
  22015712.904    -1503539.01249   -968860.07447  22015712.709    22015718.009
       234.000         189.000
  20727606.178      962080.74049    741218.66148  20727605.907    20727610.525
       244.000         215.000
  21985876.416    -1949058.44249  -1513137.08547  21985875.985    21985882.709
       234.000         195.000
  21525216.243      566711.87649    310746.71047  21525215.943    21525223.146
       235.000         195.000
  20275508.665      242532.30649    186492.40548  20275508.118    20275514.571
       245.000         216.000
  23821742.797    -1894560.46849  -1461648.53345  23821742.641    23821750.052
       217.000         159.000
  23904453.698    -1942356.98849  -1436392.89045  23904453.821    23904462.056
       216.000         155.000
 03  3 21  1  0 30.0000000  0  8G23G14G18G 3G17G15G31G 9
  21739673.611     1018620.84349    786629.82747  21739673.078    21739679.567
       238.000         201.000
  21998147.992    -1595843.11549  -1040785.30647  21998147.359    21998153.056
       232.000         189.000
  20733598.150      993568.82849    765754.82748  20733597.619    20733602.659
       243.000         215.000
  21978312.197    -1988808.33949  -1544111.01047  21978312.131    21978318.635
       235.000         195.000
  21533869.902      612186.86649    346181.74047  21533869.452    21533876.706
       235.000         195.000
  20275037.055      240053.85749    184561.15048  20275036.484    20275042.894
       245.000         217.000
  23806148.882    -1976506.84049  -1525502.77545  23806148.366    23806155.294
       218.000         160.000
  23895400.856    -1989930.58749  -1473463.15445  23895399.429    23895408.827
       213.000         155.000
 03  3 21  1  1  0.0000000  0  8G23G14G18G 3G17G15G31G 9
  21749406.607     1069768.19549    826484.90047  21749406.079    21749412.489
       238.000         201.000
  21980646.100    -1687815.85449  -1112452.33747  21980645.716    21980651.286
       234.000         189.000
  20739634.772     1025291.85349    790474.05848  20739634.510    20739639.340
       244.000         215.000
  21970847.527    -2028035.31349  -1574677.46947  21970847.449    21970853.684
       236.000         195.000
  21542581.894      657969.08649    381856.17147  21542581.631    21542588.473
       235.000         195.000
  20274629.044      237909.79149    182890.46048  20274628.707    20274634.798
       246.000         217.000
  23790624.545    -2058087.45949  -1589072.02545  23790624.214    23790631.323
       221.000         160.000
  23886422.530    -2037111.15749  -1510227.15645  23886422.354    23886430.107
       214.000         154.000
 03  3 21  1  1 30.0000000  0  8G23G14G18G 3G17G15G31G 9
  21759159.284     1121019.23649    866420.76147  21759158.808    21759165.358
       239.000         201.000
  21963207.941    -1779453.89849  -1183858.55947  21963207.718    21963213.216
       235.000         190.000
  20745716.128     1057249.45749    815376.08048  20745716.040    20745720.837
       245.000         215.000
  21963482.761    -2066737.50149  -1604834.99647  21963482.717    21963488.764
       237.000         195.000
  21551352.649      704059.66249    417770.88147  21551352.179    21551359.327
       235.000         194.000
  20274285.064      236101.96549    181481.77148  20274284.365    20274290.739
       246.000         217.000
  23775170.501    -2139299.12749  -1652353.79445  23775170.002    23775177.088
       222.000         160.000
  23877519.600    -2083895.27649  -1546682.21445  23877519.177    23877528.622
       214.000         154.000
 03  3 21  1  2  0.0000000  0  8G23G14G18G 3G17G15G31G 9
  21768931.883     1172374.52549    906437.84747  21768931.892    21768938.107
       237.000         201.000
  21945834.295    -1870753.27449  -1255000.88847  21945833.725    21945839.934
       233.000         190.000
  20751842.124     1089441.73449    840460.96248  20751841.999    20751846.754
       244.000         215.000
  21956218.322    -2104912.15249  -1634581.45647  21956218.296    21956224.823
       236.000         196.000
  21560182.610      750461.06649    453927.79947  21560182.206    21560189.012
       234.000         194.000
  20274005.557      234633.24349    180337.31748  20274005.108    20274011.183
       245.000         217.000
  23759787.555    -2220137.61549  -1715344.78945  23759787.501    23759793.758
       223.000         159.000
  23868693.269    -2130278.41749  -1582824.85345  23868693.587    23868700.575
       211.000         154.000
 03  3 21  1  2 30.0000000  0  8G23G14G18G 3G17G15G31G 9
  21778724.004     1223831.82549    946534.43147  21778723.713    21778730.120
       237.000         201.000
  21928525.176    -1961712.61049  -1325878.24847  21928524.548    21928530.260
       234.000         190.000
  20758012.398     1121866.44249    865726.96348  20758012.207    20758017.118
       244.000         215.000
  21949054.415    -2142558.83849  -1663916.52047  21949054.426    21949060.477
       236.000         196.000
  21569071.541      797172.45549    490326.25747  21569071.083    21569078.017
       232.000         193.000
  20273790.661      233503.57049    179457.06348  20273789.947    20273796.217
       245.000         217.000
  23744475.868    -2300601.54849  -1778043.92345  23744475.452    23744482.372
       222.000         157.000
  23859943.134    -2176259.06749  -1618653.83745  23859943.065    23859951.307
       211.000         152.000
 03  3 21  1  3  0.0000000  0  8G23G14G18G 3G17G15G31G 9
  21788535.266     1275390.36549    986709.90447  21788534.901    21788541.415
       238.000         201.000
  21911281.324    -2052329.12849  -1396488.47647  21911280.906    21911286.561
       233.000         190.000
  20764226.706     1154522.76249    891173.43848  20764226.365    20764231.613
       244.000         215.000
  21941991.324    -2179675.85749  -1692838.85047  21941991.286    21941997.233
       236.000         197.000
  21578019.495      844194.30749    526966.63347  21578019.108    21578026.273
       233.000         193.000
  20273640.487      232714.60849    178842.28548  20273639.841    20273646.057
       245.000         217.000
  23729235.835    -2380688.04449  -1840448.92845  23729234.932    23729243.287
       220.000         154.000
  23851270.520    -2221833.96349  -1654166.68045  23851270.729    23851278.955
       215.000         153.000
 03  3 21  1  3 30.0000000  0  8G23G14G18G 3G17G15G31G 9
  21798365.488     1327048.52749   1026963.00447  21798365.036    21798371.499
       237.000         201.000
  21894103.250    -2142600.46249  -1466829.73347  21894103.278    21894108.741
       235.000         191.000
  20770484.798     1187409.22649    916799.24548  20770484.533    20770489.533
       244.000         215.000
  21935029.191    -2216262.38549  -1721347.81647  21935028.905    21935035.364
       236.000         197.000
  21587026.592      891526.70249    563848.98047  21587025.923    21587033.661
       232.000         193.000
  20273555.315      232267.05749    178493.54248  20273554.730    20273561.155
       245.000         217.000
  23714067.983    -2460394.89049  -1902558.12245  23714068.462    23714072.435
       221.000         153.000
  23842675.582    -2267000.61849  -1689361.40745  23842674.720    23842684.232
       211.000         154.000
 03  3 21  1  4  0.0000000  0  8G23G14G18G 3G17G15G31G 9
  21808214.539     1378805.59149   1067293.17247  21808214.387    21808220.514
       237.000         200.000
  21876991.443    -2232524.08349  -1536900.05147  21876991.454    21876996.622
       235.000         193.000
  20776786.480     1220524.82549    942603.60048  20776786.350    20776791.355
       243.000         215.000
  21928168.164    -2252317.05549  -1749442.34347  21928168.215    21928174.454
       236.000         197.000
  21596092.917      939170.61249    600974.08547  21596092.396    21596099.475
       233.000         193.000
  20273535.445      232162.50649    178412.07748  20273534.974    20273541.136
       245.000         217.000
  23698973.051    -2539719.34649  -1964369.31745  23698972.653    23698979.597
       220.000         153.000
  23834158.636    -2311756.12349  -1724235.75545  23834158.665    23834166.713
       215.000         154.000
 03  3 21  1  4 30.0000000  0  8G23G14G18G 3G17G15G31G 9
  21818082.195     1430660.01949   1107699.20247  21818081.966    21818088.465
       238.000         200.000
  21859946.106    -2322098.03949  -1606697.89347  21859945.585    21859951.096
       235.000         193.000
  20783131.383     1253867.66849    968585.02848  20783131.218    20783136.008
       243.000         215.000
  21921408.536    -2287839.01949  -1777121.77947  21921407.955    21921414.682
       235.000         197.000
  21605218.556      987126.03149    638341.91347  21605218.079    21605225.622
       232.000         193.000
  20273580.870      232401.34749    178598.19248  20273580.302    20273586.652
       245.000         217.000
  23683951.349    -2618659.44249  -2025881.03145  23683950.322    23683958.025
       220.000         154.000
  23825720.635    -2356098.33949  -1758788.09245  23825721.007    23825729.117
       212.000         154.000
 03  3 21  1  5  0.0000000  0  8G23G14G18G 3G17G15G31G 9
  21827968.117     1482610.66149   1148180.20447  21827967.533    21827974.353
       237.000         201.000
  21842967.716    -2411319.82749  -1676221.32247  21842966.989    21842972.613
       235.000         193.000
  20789519.422     1287436.88849    994742.85348  20789519.165    20789524.066
       243.000         214.000
  21914750.592    -2322827.00649  -1804385.12647  21914750.134    21914756.746
       236.000         197.000
  21614403.680     1035393.82149    675953.14047  21614403.420    21614410.437
       232.000         192.000
  20273691.927      232984.73649    179052.77748  20273691.465    20273697.701
       245.000         217.000
  23669003.331    -2697212.65749  -2087091.29245  23669002.281    23669009.307
       219.000         154.000
  23817361.600    -2400024.27649  -1793015.99045  23817360.754    23817370.739
       211.000         153.000
 03  3 21  1  5 30.0000000  0  8G23G14G18G 3G17G15G31G 9
  21837872.013     1534656.26649   1188735.21047  21837871.446    21837878.183
       237.000         200.000
  21826056.761    -2500187.23349  -1745468.61647  21826056.206    21826061.916
       235.000         193.000
  20795950.239     1321231.04449   1021075.95648  20795950.013    20795955.069
       243.000         214.000
  21908194.460    -2357279.80649  -1831231.43847  21908194.003    21908200.376
       236.000         197.000
  21623648.056     1083973.26649    713807.22647  21623647.730    21623654.685
       232.000         192.000
  20273868.631      233913.60749    179776.57248  20273868.163    20273874.448
       245.000         217.000
  23654129.219    -2775376.80149  -2147998.36345  23654128.737    23654135.489
       216.000         155.000
  23809082.451    -2443531.48849  -1826917.66045  23809082.765    23809091.632
       210.000         153.000
 03  3 21  1  6  0.0000000  0  8G23G14G18G 3G17G15G31G 9
  21847793.698     1586794.86749   1229362.67947  21847793.407    21847799.844
       238.000         200.000
  21809213.576    -2588698.47549  -1814438.36747  21809213.086    21809218.662
       236.000         194.000
  20802423.427     1355247.92749   1047582.61148  20802423.162    20802428.132
       243.000         214.000
  21901740.088    -2391197.13349  -1857660.51047  21901740.191    21901746.047
       237.000         197.000
  21632951.630     1132863.99149    751903.86047  21632951.010    21632958.408
       232.000         192.000
  20274111.238      235188.52349    180770.01548  20274110.695    20274117.042
       246.000         217.000
  23639329.402    -2853150.19149  -2208600.93745  23639328.014    23639336.305
       215.000         156.000
  23800883.295    -2486618.12349  -1860491.59345  23800882.812    23800891.866
       210.000         150.000
 03  3 21  1  6 30.0000000  0  8G23G14G18G 3G17G15G31G 9
  21857733.171     1639027.06549   1270063.07747  21857732.607    21857739.427
       238.000         200.000
  21792438.952    -2676849.49149  -1883127.43347  21792438.739    21792443.990
       236.000         194.000
  20808939.171     1389488.28549   1074263.39848  20808938.971    20808943.820
       244.000         214.000
  21895388.313    -2424576.03049  -1883670.02147  21895388.338    21895394.051
       237.000         197.000
  21642314.889     1182068.48649    790244.98647  21642314.877    21642322.220
       232.000         191.000
  20274420.254      236812.14449    182035.16948  20274419.811    20274425.905
       246.000         217.000
  23624604.681    -2930528.53649  -2268895.67845  23624603.767    23624610.952
       213.000         156.000
  23792764.947    -2529279.76749  -1893734.36145  23792764.612    23792774.140
       212.000         150.000
 03  3 21  1  7  0.0000000  0  8G23G14G18G 3G17G15G31G 9
  21867690.115     1691351.26749   1310835.16947  21867689.823    21867696.446
       237.000         200.000
  21775733.177    -2764638.53949  -1951534.44247  21775732.684    21775738.091
       235.000         194.000
  20815497.105     1423950.32749   1101116.93648  20815496.691    20815501.896
       243.000         214.000
  21889139.059    -2457416.07149  -1909259.64247  21889138.685    21889144.770
       236.000         196.000
  21651737.985     1231586.81949    828830.68747  21651737.354    21651744.857
       231.000         191.000
  20274795.684      238785.03049    183572.48148  20274795.091    20274801.317
       245.000         217.000
  23609955.296    -3007510.06649  -2328881.22145  23609953.959    23609961.634
       213.000         157.000
  23784728.013    -2571514.38849  -1926644.37745  23784728.135    23784736.192
       211.000         153.000
 03  3 21  1  7 30.0000000  0  8G23G14G18G 3G17G15G31G 9
  21877664.363     1743766.15849   1351677.92547  21877664.398    21877670.460
       238.000         200.000
  21759096.748    -2852063.48049  -2019657.73347  21759095.941    21759101.227
       236.000         194.000
  20822096.874     1458632.45249   1128141.96248  20822096.772    20822101.492
       244.000         214.000
  21882992.353    -2489716.50149  -1934428.79047  21882992.070    21882998.300
       236.000         196.000
  21661220.693     1281418.77149    867660.74547  21661220.719    21661228.176
       232.000         191.000
  20275237.727      241107.99649    185382.58548  20275236.926    20275243.508
       245.000         217.000
  23595381.798    -3084092.61049  -2388555.86545  23595380.748    23595388.658
       212.000         158.000
  23776772.793    -2613319.42549  -1959219.66545  23776771.763    23776780.870
       211.000         152.000
 03  3 21  1  8  0.0000000  0  8G23G14G18G 3G17G15G31G 9
  21887655.844     1796271.37849   1392591.07047  21887655.132    21887661.944
       237.000         199.000
  21742530.226    -2939121.22649  -2087494.89447  21742529.830    21742535.043
       236.000         195.000
  20828738.546     1493534.29849   1155338.20448  20828738.135    20828743.168
       243.000         214.000
  21876948.708    -2521475.54249  -1959176.07847  21876948.644    21876954.901
       236.000         197.000
  21670763.339     1331565.37449    906735.99747  21670762.993    21670770.469
       231.000         191.000
  20275746.767      243783.16349    187467.12748  20275746.273    20275752.553
       245.000         217.000
  23580885.065    -3160273.00749  -2447917.14745  23580884.583    23580891.257
       212.000         158.000
  23768899.806    -2654691.70949  -1991457.74545  23768900.832    23768908.090
       212.000         150.000
 03  3 21  1  8 30.0000000  0  8G23G14G18G 3G17G15G31G 9
  21897663.735     1848863.71249   1433572.09147  21897663.763    21897670.252
       237.000         199.000
  21726033.626    -3025811.59949  -2155045.80147  21726033.390    21726038.804
       237.000         195.000
  20835421.225     1528652.51149   1182703.03348  20835421.018    20835426.113
       244.000         214.000
  21871007.945    -2552694.29349  -1983502.36147  21871007.956    21871014.118
       236.000         197.000
  21680365.505     1382024.86649    946055.05047  21680364.986    21680372.358
       232.000         191.000
  20276322.646      246809.27949    189825.13948  20276322.144    20276328.508
       246.000         217.000
  23566465.205    -3236051.13549  -2506964.97245  23566463.817    23566471.554
       212.000         158.000
  23761109.357    -2695630.72049  -2023358.19945  23761108.297    23761118.229
       209.000         151.000
 03  3 21  1  9  0.0000000  0  8G23G14G18G 3G17G15G31G 9
  21907688.468     1901543.38649   1474621.17147  21907687.953    21907694.921
       238.000         200.000
  21709607.486    -3112131.12549  -2222307.72447  21709606.922    21709612.298
       235.000         196.000
  20842145.219     1563987.04049   1210236.42548  20842145.003    20842149.923
       243.000         214.000
  21865170.505    -2583370.34549  -2007405.76047  21865170.607    21865176.604
       237.000         197.000
  21690027.469     1432798.75249    985619.08847  21690026.967    21690034.415
       231.000         191.000
  20276965.670      250188.61949    192458.39148  20276965.109    20276971.417
       245.000         217.000
  23552122.379    -3311423.27849  -2565696.43645  23552121.086    23552128.746
       211.000         158.000
  23753401.865    -2736132.68749  -2054918.11145  23753401.173    23753410.277
       210.000         150.000
 03  3 21  1  9 30.0000000  0  8G23G14G18G 3G17G15G31G 9
  21917729.705     1954310.41549   1515738.32047  21917729.442    21917735.844
       236.000         199.000
  21693252.534    -3198076.26349  -2289277.91347  21693251.984    21693257.155
       236.000         195.000
  20848910.306     1599537.82849   1237938.33148  20848910.090    20848915.227
       244.000         214.000
  21859436.622    -2613501.62149  -2030884.66447  21859436.537    21859442.931
       236.000         197.000
  21699749.514     1483888.49849   1025429.25547  21699748.757    21699756.378
       230.000         190.000
  20277676.352      253923.19449    195368.44948  20277675.767    20277682.073
       246.000         217.000
  23537857.223    -3386386.04349  -2624108.91045  23537856.841    23537863.604
       210.000         158.000
  23745778.549    -2776193.81249  -2086134.50045  23745779.279    23745786.289
       212.000         151.000
 03  3 21  1 10  0.0000000  0  8G23G14G18G 3G17G15G31G 9
  21927786.974     2007161.77649   1556921.18647  21927787.029    21927793.041
       238.000         199.000
  21676968.919    -3283646.64749  -2355956.09947  21676968.517    21676974.165
       236.000         195.000
  20855716.052     1635301.95449   1265806.47448  20855715.918    20855720.641
       244.000         214.000
  21853806.308    -2643088.95249  -2053939.71147  21853806.555    21853812.551
       236.000         197.000
  21709531.323     1535292.24949   1065484.09747  21709531.164    21709538.636
       231.000         190.000
  20278454.519      258012.39249    198554.83748  20278453.938    20278460.200
       245.000         217.000
  23523670.101    -3460939.02949  -2682202.08445  23523669.972    23523676.614
       210.000         158.000
  23738239.033    -2815813.79349  -2117007.13545  23738238.360    23738248.343
       209.000         151.000
 03  3 21  1 10 30.0000000  0  8G23G14G18G 3G17G15G31G 9
  21937860.492     2060098.21049   1598170.33747  21937859.876    21937866.583
       236.000         199.000
  21660757.431    -3368838.45249  -2422339.29247  21660757.210    21660762.659
       236.000         196.000
  20862562.464     1671279.79349   1293841.14748  20862562.069    20862567.078
       244.000         214.000
  21848280.095    -2672129.73849  -2076568.88747  21848280.120    21848285.931
       237.000         197.000
  21719373.338     1587012.13749   1105785.26747  21719373.021    21719380.412
       230.000         189.000
  20279300.617      262458.65049    202019.44848  20279300.193    20279306.247
       246.000         217.000
  23509561.872    -3535078.07049  -2739972.69145  23509561.259    23509569.446
       211.000         159.000
  23730784.204    -2854987.97749  -2147532.39845  23730784.350    23730792.216
       212.000         151.000
 03  3 21  1 11  0.0000000  0  8G23G14G18G 3G17G15G31G 9
  21947949.523     2113116.78649   1639483.49347  21947949.031    21947955.729
       236.000         198.000
  21644618.159    -3453651.04549  -2488426.98247  21644617.493    21644623.338
       236.000         196.000
  20869448.793     1707468.05349   1322039.78448  20869448.481    20869453.471
       243.000         214.000
  21842857.706    -2700624.98749  -2098772.96147  21842857.564    21842863.588
       237.000         197.000
  21729275.347     1639046.97049   1146331.86647  21729275.136    21729282.598
       231.000         190.000
  20280214.540      267261.24249    205761.72648  20280213.870    20280220.139
       245.000         216.000
  23495532.646    -3608802.78049  -2797420.44045  23495531.602    23495539.191
       212.000         160.000
  23723414.528    -2893716.07149  -2177710.07045  23723414.102    23723422.905
       212.000         151.000
 03  3 21  1 11 30.0000000  0  8G23G14G18G 3G17G15G31G 9
  21958054.171     2166217.00249   1680860.27647  21958054.016    21958060.336
       237.000         198.000
  21628551.510    -3538081.85549  -2554217.17747  21628551.675    21628556.595
       236.000         197.000
  20876375.093     1743866.16349   1350401.94048  20876375.006    20876379.726
       244.000         214.000
  21837539.399    -2728573.47049  -2120550.97947  21837538.976    21837545.247
       237.000         198.000
  21739237.250     1691397.27549   1187124.28647  21739236.820    21739244.165
       230.000         189.000
  20281196.522      272421.82849    209782.95948  20281195.750    20281202.259
       244.000         216.000
  23481582.737    -3682110.21349  -2854543.04045  23481581.749    23481589.329
       213.000         160.000
  23716130.144    -2931994.98149  -2207537.69845  23716130.015    23716138.458
       211.000         151.000
 03  3 21  1 12  0.0000000  0  8G23G14G18G 3G17G15G31G 9
  21968174.330     2219398.46149   1722300.35147  21968174.110    21968180.621
       236.000         198.000
  21612558.064    -3622127.71349  -2619707.41847  21612557.388    21612563.273
       235.000         197.000
  20883341.350     1780473.65849   1378927.25048  20883341.134    20883345.961
       244.000         214.000
  21832325.264    -2755973.52249  -2141901.65847  21832325.106    21832331.588
       237.000         198.000
  21749259.301     1744063.39849   1228162.79047  21749259.181    21749266.087
       232.000         189.000
  20282246.970      277942.09349    214084.45748  20282246.493    20282252.566
       245.000         216.000
  23467712.696    -3754997.47049  -2911338.24145  23467712.481    23467718.449
       213.000         161.000
  23708932.103    -2969821.63749  -2237012.95545  23708932.418    23708939.659
       214.000         154.000
 03  3 21  1 12 30.0000000  0  8G23G14G18G 3G17G15G31G 9
  21978309.564     2272659.70349   1763802.59747  21978309.103    21978315.649
       236.000         198.000
  21596638.030    -3705787.04049  -2684896.46447  21596637.449    21596643.505
       236.000         197.000
  20890347.083     1817289.00449   1407614.52648  20890346.744    20890351.742
       244.000         213.000
  21827215.597    -2782824.78249  -2162824.70047  21827215.503    21827221.642
       237.000         198.000
  21759341.629     1797045.91849   1269447.83647  21759341.142    21759348.554
       230.000         189.000
  20283365.999      283822.64649    218666.70648  20283365.408    20283371.801
       245.000         216.000
  23453922.962    -3827462.77349  -2967804.64746  23453922.627    23453928.903
       215.000         163.000
  23701820.384    -3007193.83249  -2266134.07945  23701818.942    23701828.449
       212.000         153.000
 03  3 21  1 13  0.0000000  0  8G23G14G18G 3G17G15G31G 9
  21988459.884     2325999.86849   1805366.35347  21988459.746    21988466.412
       236.000         198.000
  21580792.068    -3789057.38549  -2749782.40347  21580791.469    21580797.281
       236.000         197.000
  20897392.168     1854311.13649   1436462.92848  20897392.047    20897396.838
       244.000         213.000
  21822210.575    -2809126.23049  -2183319.32147  21822210.378    21822216.989
       237.000         199.000
  21769484.066     1850345.06449   1310979.60047  21769483.390    21769490.780
       230.000         189.000
  20284553.826      290064.70649    223530.64148  20284553.396    20284559.886
       245.000         216.000
  23440214.077    -3899503.57849  -3023940.27146  23440213.298    23440219.991
       219.000         166.000
  23694795.688    -3044109.07449  -2294899.12845  23694796.604    23694803.860
       214.000         155.000
 03  3 21  1 13 30.0000000  0  8G23G14G18G 3G17G15G31G 9
  21998624.963     2379417.56649   1846990.51247  21998624.449    21998631.092
       236.000         198.000
  21565020.589    -3871936.81549  -2814363.73547  21565020.317    21565025.992
       236.000         198.000
  20904476.332     1891538.47149   1465471.23548  20904476.172    20904481.079
       244.000         214.000
  21817310.252    -2834877.54849  -2203385.26547  21817310.150    21817316.431
       237.000         199.000
  21779686.817     1903960.40049   1352757.75847  21779686.467    21779693.403
       231.000         189.000
  20285810.548      296668.65549    228676.57948  20285810.036    20285816.557
       245.000         216.000
  23426586.367    -3971118.08949  -3079743.71546  23426585.572    23426592.326
       220.000         168.000
  23687858.501    -3080565.23149  -2323306.44345  23687857.607    23687866.549
       216.000         157.000
 03  3 21  1 14  0.0000000  0  8G23G14G18G 3G17G15G31G 9
  22008804.648     2432912.16749   1888674.59647  22008804.562    22008810.863
       236.000         198.000
  21549324.078    -3954422.94549  -2878638.60647  21549324.053    21549329.745
       237.000         198.000
  20911599.293     1928970.10649   1494638.72848  20911598.821    20911604.123
       244.000         214.000
  21812514.849    -2860077.67649  -2223021.72047  21812514.640    21812520.923
       238.000         199.000
  21789949.775     1957892.57649   1394782.79746  21789948.842    21789956.334
       229.000         187.000
  20287136.290      303635.76149    234105.48548  20287135.688    20287141.949
       245.000         216.000
  23413040.097    -4042303.76049  -3135213.00846  23413039.420    23413046.400
       221.000         170.000
  23681008.800    -3116559.78349  -2351354.07645  23681008.609    23681016.463
       213.000         156.000
 03  3 21  1 14 30.0000000  0  8G23G14G18G 3G17G15G31G 9
  22018998.864     2486482.87249   1930417.98847  22018998.614    22019005.203
       236.000         197.000
  21533702.821    -4036513.25249  -2942605.03647  21533702.528    21533708.131
       237.000         198.000
  20918761.032     1966605.23749   1523964.79748  20918760.923    20918765.846
       245.000         214.000
  21807824.547    -2884725.40949  -2242227.73247  21807824.327    21807830.602
       237.000         199.000
  21800273.101     2012142.32449   1437055.28346  21800273.185    21800280.148
       230.000         187.000
  20288531.437      310967.22749    239818.31948  20288530.892    20288537.235
       245.000         216.000
  23399575.922    -4113058.01749  -3190346.13946  23399575.081    23399582.018
       222.000         171.000
  23674247.683    -3152089.90749  -2379039.82345  23674247.240    23674255.064
       214.000         158.000
 03  3 21  1 15  0.0000000  0  8G23G14G18G 3G17G15G31G 9
  22029207.273     2540128.25449   1972219.55947  22029206.937    22029213.588
       236.000         197.000
  21518157.153    -4118206.18849  -3006261.83047  21518157.000    21518162.495
       237.000         199.000
  20925961.215     2004442.33149   1553448.23248  20925960.829    20925966.169
       244.000         213.000
  21803239.490    -2908820.24449  -2261002.91347  21803239.601    21803245.692
       237.000         199.000
  21810656.913     2066709.06549   1479574.79546  21810656.347    21810664.285
       229.000         187.000
  20289996.125      318663.92149    245815.73948  20289995.588    20290002.061
       244.000         216.000
  23386194.225    -4183379.12349  -3245141.75146  23386193.005    23386200.570
       222.000         171.000
  23667575.148    -3187153.83849  -2406362.29045  23667573.800    23667583.231
       212.000         157.000
 03  3 21  1 15 30.0000000  0  8G23G14G18G 3G17G15G31G 9
  22039429.719     2593847.44149   2014078.64447  22039429.470    22039436.162
       236.000         197.000
  21502687.564    -4199499.36249  -3069607.12547  21502687.349    21502692.688
       237.000         199.000
  20933199.564     2042480.06049   1583088.01648  20933199.468    20933204.091
       244.000         213.000
  21798759.722    -2932361.62149  -2279346.83047  21798759.533    21798765.692
       237.000         199.000
  21821100.939     2121592.84349   1522341.33046  21821100.187    21821108.560
       229.000         187.000
  20291530.453      326726.94249    252098.60748  20291529.986    20291535.999
       245.000         216.000
  23372895.349    -4253264.72849  -3299598.00946  23372894.242    23372901.386
       222.000         171.000
  23660991.737    -3221748.98449  -2433319.46345  23660990.867    23660999.162
       214.000         156.000
 03  3 21  1 16  0.0000000  0  8G23G14G18G 3G17G15G31G 9
  22049666.254     2647640.34149   2055995.17247  22049666.064    22049672.126
       236.000         197.000
  21487294.626    -4280389.88049  -3132638.65947  21487294.296    21487299.808
       238.000         199.000
  20940476.111     2080718.22249   1612883.97748  20940475.820    20940480.769
       245.000         213.000
  21794385.624    -2955347.80349  -2297258.13247  21794385.111    21794391.586
       237.000         199.000
  21831605.601     2176795.11149   1565356.05046  21831605.574    21831612.654
       230.000         187.000
  20293134.883      335158.09749    258668.33448  20293134.385    20293140.754
       246.000         216.000
  23359679.804    -4322711.80749  -3353712.57646  23359679.151    23359686.026
       222.000         171.000
  23654498.280    -3255872.29249  -2459909.00945  23654497.572    23654505.091
       210.000         156.000
 03  3 21  1 16 30.0000000  0  8G23G14G18G 3G17G15G31G 9
  22059916.365     2701504.82449   2097967.47447  22059916.028    22059922.489
       236.000         196.000
  21471978.510    -4360876.76349  -3195355.67047  21471978.169    21471983.648
       238.000         200.000
  20947790.265     2119154.25149   1642834.11448  20947790.007    20947794.883
       245.000         213.000
  21790117.005    -2977779.38949  -2314737.27447  21790116.876    21790123.236
       237.000         199.000
  21842170.610     2232314.39049   1608617.79046  21842170.050    21842177.863
       229.000         186.000
  20294809.258      343956.94949    265524.57848  20294808.606    20294815.191
       245.000         216.000
  23346547.836    -4391719.28249  -3407484.58346  23346547.491    23346555.309
       222.000         171.000
  23648094.474    -3289522.75249  -2486130.04745  23648094.935    23648103.330
       214.000         156.000
 03  3 21  1 17  0.0000000  0  8G23G14G18G 3G17G15G31G 9
  22070179.948     2755440.81749   2139995.50747  22070179.363    22070186.146
       235.000         196.000
  21456739.724    -4440956.82749  -3257755.68647  21456739.239    21456744.907
       237.000         200.000
  20955142.032     2157788.20949   1672938.49248  20955141.787    20955146.601
       244.000         213.000
  21785954.172    -2999654.71649  -2331782.97047  21785954.198    21785960.126
       237.000         199.000
  21852796.150     2288151.78649   1652127.41346  21852795.684    21852802.761
       228.000         186.000
  20296553.923      353125.62449    272668.99348  20296553.428    20296559.791
       245.000         216.000
  23333500.284    -4460284.07649  -3460911.64146  23333499.834    23333506.716
       221.000         170.000
  23641781.637    -3322696.93449  -2511979.99145  23641781.006    23641789.579
       210.000         155.000
 03  3 21  1 17 30.0000000  0  8G23G14G18G 3G17G15G31G 9
  22080456.946     2809446.95849   2182078.19547  22080457.028    22080463.159
       236.000         196.000
  21441578.630    -4520628.54449  -3319837.50547  21441577.984    21441583.652
       237.000         200.000
  20962531.175     2196618.66649   1703195.98048  20962530.982    20962535.949
       244.000         213.000
  21781897.288    -3020973.72349  -2348395.17547  21781897.226    21781903.480
       237.000         199.000
  21863482.225     2344307.63849   1695885.17946  21863482.026    21863489.510
       228.000         185.000
  20298369.154      362664.66949    280102.01348  20298368.822    20298374.684
       245.000         216.000
  23320537.406    -4528404.49949  -3513992.44546  23320537.258    23320544.140
       221.000         168.000
  23635559.481    -3355393.18049  -2537457.51045  23635558.993    23635568.019
       211.000         153.000
 03  3 21  1 18  0.0000000  0  8G23G14G18G 3G17G15G31G 9
  22090747.148     2863521.83149   2224214.44447  22090746.834    22090753.514
       235.000         196.000
  21426495.525    -4599890.50649  -3381600.03847  21426495.366    21426500.158
       238.000         200.000
  20969957.424     2235643.61049   1733605.02048  20969957.201    20969962.347
       244.000         213.000
  21777946.250    -3041736.57649  -2364574.00847  21777946.232    21777952.547
       238.000         199.000
  21874228.789     2400780.98849   1739890.36046  21874228.866    21874235.567
       230.000         186.000
  20300254.841      372573.99449    287823.56548  20300254.426    20300260.952
       245.000         216.000
  23307659.364    -4596079.02049  -3566725.79446  23307658.594    23307665.691
       221.000         166.000
  23629428.725    -3387609.66949  -2562561.21245  23629429.197    23629437.100
       209.000         153.000
 03  3 21  1 18 30.0000000  0  8G23G14G18G 3G17G15G31G 9
  22101050.199     2917664.51349   2266403.53647  22101049.622    22101056.492
       235.000         196.000
  21411490.847    -4678740.39049  -3443041.47047  21411490.603    21411496.233
       239.000         201.000
  20977420.444     2274862.05049   1764164.83148  20977420.324    20977425.170
       244.000         213.000
  21774101.171    -3061942.67349  -2380319.00847  21774101.004    21774107.228
       238.000         200.000
  21885035.871     2457572.25649   1784143.25346  21885035.635    21885043.259
       228.000         186.000
  20302211.231      382854.79649    295834.57648  20302210.752    20302217.254
       244.000         216.000
  23294866.605    -4663305.38349  -3619109.92046  23294865.760    23294873.262
       220.000         164.000
  23623389.799    -3419344.14649  -2587289.28845  23623389.338    23623397.269
       209.000         153.000
 03  3 21  1 19  0.0000000  0  8G23G14G18G 3G17G15G31G 9
  22111366.035     2971874.90849   2308645.37847  22111365.780    22111372.199
       235.000         196.000
  21396565.178    -4757175.40249  -3504159.63047  21396564.896    21396570.158
       239.000         201.000
  20984920.243     2314273.63449   1794875.14848  20984920.082    20984925.120
       244.000         213.000
  21770362.366    -3081590.32349  -2395628.85847  21770362.472    21770368.563
       239.000         199.000
  21895903.562     2514682.22649   1828644.49546  21895903.591    21895910.954
       229.000         186.000
  20304238.602      393508.60349    304136.23948  20304238.218    20304244.530
       246.000         216.000
  23282159.560    -4730080.74449  -3671142.63746  23282158.397    23282166.328
       220.000         163.000
  23617443.131    -3450593.73549  -2611639.54245  23617443.044    23617452.154
       211.000         153.000
 03  3 21  1 19 30.0000000  0  8G23G14G18G 3G17G15G31G 9
  22121694.467     3026151.16849   2350938.55447  22121694.230    22121700.903
       235.000         196.000
  21381718.637    -4835194.34649  -3564953.57747  21381718.304    21381723.740
       239.000         201.000
  20992456.428     2353876.54249   1825734.54948  20992455.995    20992461.229
       244.000         213.000
  21766729.798    -3100679.85349  -2410503.80447  21766729.407    21766735.505
       236.000         200.000
  21906831.834     2572110.40149   1873393.70046  21906830.907    21906839.283
       228.000         185.000
  20306337.044      404535.69749    312728.77748  20306336.526    20306342.875
       245.000         216.000
  23269538.690    -4796403.57349  -3722822.71545  23269537.614    23269545.375
       220.000         161.000
  23611589.060    -3481356.96149  -2635610.83345  23611588.338    23611597.048
       208.000         153.000
 03  3 21  1 20  0.0000000  0  8G23G14G18G 3G17G15G31G 9
  22132035.281     3080492.37649   2393282.34047  22132035.181    22132042.097
       235.000         196.000
  21366951.692    -4912795.19149  -3625421.73547  21366951.367    21366956.765
       240.000         202.000
  21000028.708     2393669.47849   1856742.02047  21000028.603    21000033.580
       244.000         212.000
  21763203.329    -3119210.96749  -2424943.61947  21763203.278    21763209.557
       237.000         200.000
  21917820.500     2629856.73849   1918390.80846  21917819.979    21917828.641
       227.000         185.000
  20308506.591      415936.92949    321612.85148  20308505.884    20308512.531
       244.000         216.000
  23257004.313    -4862272.16049  -3774148.85945  23257004.341    23257009.576
       218.000         160.000
  23605827.900    -3511631.73749  -2659201.47545  23605828.245    23605835.924
       214.000         152.000
 03  3 21  1 20 30.0000000  0  8G23G14G18G 3G17G15G31G 9
  22142388.310     3134897.84249   2435676.19647  22142388.004    22142394.605
       234.000         195.000
  21352264.702    -4989975.75849  -3685562.40447  21352264.475    21352269.762
       240.000         202.000
  21007637.122     2433651.76249   1887897.03848  21007637.006    21007642.023
       244.000         213.000
  21759783.344    -3137183.07749  -2438947.84947  21759783.395    21759789.585
       238.000         200.000
  21928869.827     2687921.29849   1963635.88346  21928869.609    21928877.010
       228.000         185.000
  20310747.587      427713.54849    330789.43348  20310747.162    20310753.667
       245.000         216.000
  23244556.900    -4927683.90849  -3825118.99645  23244557.288    23244562.168
       217.000         159.000
  23600160.447    -3541415.48049  -2682409.52845  23600160.129    23600168.167
       212.000         154.000
 03  3 21  1 21  0.0000000  0  8G23G14G18G 3G17G15G31G 9
  22152753.460     3189366.79449   2478119.52147  22152753.238    22152760.324
       235.000         195.000
  21337658.129    -5066733.92449  -3745373.93447  21337658.017    21337663.120
       240.000         203.000
  21015281.310     2473821.98449   1919198.50448  21015281.084    21015286.374
       244.000         213.000
  21756469.870    -3154595.45949  -2452515.93447  21756469.939    21756476.271
       237.000         200.000
  21939979.866     2746304.16049   2009128.99046  21939979.618    21939986.608
       229.000         185.000
  20313060.200      439866.40249    340259.18548  20313059.492    20313066.055
       245.000         216.000
  23232196.820    -4992636.73649  -3875731.56045  23232196.725    23232202.179
       218.000         159.000
  23594586.575    -3570706.21649  -2705233.41245  23594586.058    23594594.591
       213.000         155.000
 03  3 21  1 21 30.0000000  0  8G23G14G18G 3G17G15G31G 9
  22163130.433     3243898.08149   2520611.41647  22163129.954    22163136.492
       235.000         195.000
  21323132.223    -5143068.02449  -3804855.02147  21323131.843    21323137.243
       241.000         203.000
  21022960.947     2514178.93549   1950645.46547  21022960.837    21022965.789
       244.000         212.000
  21753262.906    -3171447.79849  -2465647.62047  21753262.999    21753268.956
       238.000         199.000
  21951150.354     2805004.97049   2054869.83746  21951150.395    21951157.104
       228.000         185.000
  20315444.542      452396.26749    350022.71348  20315444.221    20315450.372
       245.000         216.000
  23219924.480    -5057129.00149  -3925985.22645  23219924.601    23219930.379
       217.000         159.000
  23589106.863    -3599502.33649  -2727671.87945  23589106.961    23589114.577
       214.000         155.000
 03  3 21  1 22  0.0000000  0  8G23G14G18G 3G17G15G31G 9
  22173519.072     3298490.75149   2563151.15347  22173518.782    22173525.486
       234.000         194.000
  21308687.399    -5218976.04549  -3864004.09647  21308687.123    21308692.658
       241.000         203.000
  21030676.013     2554721.45749   1982237.03247  21030675.696    21030680.894
       244.000         212.000
  21750162.576    -3187740.05049  -2478342.87347  21750162.336    21750168.982
       237.000         199.000
  21962381.425     2864024.15849   2100858.77146  21962381.220    21962388.362
       228.000         184.000
  20317900.827      465303.71549    360080.46448  20317900.270    20317906.710
       245.000         217.000
  23207739.954    -5121158.68649  -3975878.43145  23207738.787    23207745.770
       215.000         159.000
  23583721.798    -3627801.71349  -2749723.28845  23583720.320    23583729.486
       211.000         156.000
 03  3 21  1 22 30.0000000  0  8G23G14G18G 3G17G15G31G 9
  22183919.440     3353145.51549   2605739.27347  22183918.913    22183926.030
       234.000         194.000
  21294324.300    -5294454.64049  -3922818.55147  21294323.916    21294329.498
       241.000         204.000
  21038426.325     2595449.77549   2013973.38047  21038425.961    21038431.021
       244.000         212.000
  21747169.209    -3203470.30249  -2490600.19947  21747168.848    21747175.130
       237.000         199.000
  21973673.327     2923363.34549   2147097.07246  21973672.843    21973680.691
       227.000         184.000
  20320429.380      478591.15049    370434.31148  20320428.750    20320435.210
       245.000         216.000
  23195643.916    -5184722.32149  -4025408.49145  23195644.080    23195649.776
       215.000         160.000
  23578431.547    -3655600.66949  -2771384.73345  23578432.311    23578439.501
       214.000         156.000
 03  3 21  1 23  0.0000000  0  8G23G14G18G 3G17G15G31G 9
  22194331.347     3407860.39849   2648374.23747  22194330.974    22194338.046
       234.000         194.000
  21280043.068    -5369502.99949  -3981297.76047  21280042.793    21280048.045
       241.000         204.000
  21046211.628     2636362.12649   2045853.12747  21046211.631    21046216.392
       245.000         212.000
  21744282.627    -3218639.04749  -2502419.99347  21744282.387    21744288.874
       236.000         199.000
  21985025.809     2983021.18349   2193583.66546  21985024.904    21985032.790
       226.000         184.000
  20323030.084      492258.35449    381084.07648  20323029.689    20323035.915
       245.000         216.000
  23183637.081    -5247818.83849  -4074574.55145  23183636.792    23183643.518
       217.000         162.000
  23573236.967    -3682898.24849  -2792655.50745  23573236.128    23573245.073
       210.000         155.000
 03  3 21  1 23 30.0000000  0  8G23G14G18G 3G17G15G31G 9
  22204754.612     3462634.85649   2691055.61847  22204754.458    22204760.666
       235.000         194.000
  21265844.113    -5444118.81549  -4039439.92447  21265843.663    21265849.339
       240.000         204.000
  21054031.861     2677457.52149   2077875.49647  21054031.777    21054036.789
       244.000         212.000
  21741503.019    -3233245.85449  -2513801.90947  21741502.831    21741509.426
       236.000         200.000
  21996438.933     3042997.91949   2240318.75146  21996438.333    21996446.400
       226.000         183.000
  20325703.383      506306.43649    392030.63548  20325703.059    20325709.322
       245.000         216.000
  23171719.840    -5310445.99349  -4123374.87146  23171719.293    23171725.266
       218.000         164.000
  23568138.047    -3709692.17449  -2813533.81945  23568138.637    23568146.056
       212.000         154.000
 03  3 21  1 24  0.0000000  0  8G23G14G18G 3G17G15G31G 9
  22215189.045     3517467.73249   2733782.51847  22215188.375    22215195.548
       233.000         194.000
  21251727.734    -5518300.68849  -4097243.95047  21251727.305    21251732.904
       241.000         205.000
  21061886.647     2718734.43649   2110039.32047  21061886.669    21061891.415
       243.000         212.000
  21738830.419    -3247290.79449  -2524746.00947  21738830.301    21738836.633
       237.000         200.000
  22007912.720     3103293.41249   2287302.22146  22007912.020    22007920.047
       227.000         184.000
  20328449.239      520735.99049    403274.44248  20328448.558    20328455.067
       245.000         216.000
  23159891.781    -5372602.17249  -4171808.20246  23159890.831    23159897.776
       217.000         165.000
  23563135.417    -3735980.89049  -2834018.46145  23563134.352    23563143.525
       209.000         154.000
 03  3 21  1 24 30.0000000  0  8G23G14G18G 3G17G15G31G 9
  22225634.323     3572359.11549   2776555.01547  22225633.804    22225641.041
       233.000         193.000
  21237694.583    -5592045.41549  -4154707.34247  21237694.260    21237699.684
       241.000         205.000
  21069775.948     2760192.80349   2142344.53847  21069775.588    21069780.832
       244.000         212.000
  21736264.916    -3260772.37849  -2535251.13147  21736265.067    21736271.188
       237.000         200.000
  22019447.436     3163908.65049   2334534.83046  22019447.164    22019455.058
       226.000         183.000
  20331268.002      535548.80049    414816.88548  20331267.446    20331273.821
       245.000         216.000
  23148153.458    -5434284.31349  -4219872.15346  23148152.757    23148160.334
       216.000         168.000
  23558229.220    -3761761.18449  -2854106.93645  23558228.818    23558237.405
       211.000         153.000
 03  3 21  1 25  0.0000000  0  8G23G14G18G 3G17G15G31G 9
  22236090.650     3627307.61449   2819372.01647  22236090.655    22236097.232
       234.000         193.000
  21223744.827    -5665351.68749  -4211829.07947  21223744.348    21223749.857
       241.000         205.000
  21077699.452     2801831.31149   2174790.12547  21077699.103    21077704.316
       244.000         211.000
  21733806.548    -3273690.94349  -2545317.53747  21733806.619    21733813.077
       237.000         200.000
  22031042.851     3224842.93549   2382016.06546  22031042.687    22031050.141
       226.000         182.000
  20334159.780      550745.20249    426658.23848  20334159.424    20334165.836
       245.000         216.000
  23136505.832    -5495491.14049  -4267565.72646  23136505.341    23136512.340
       220.000         170.000
  23553420.489    -3787031.72149  -2873798.19345  23553420.746    23553429.105
       211.000         154.000
 03  3 21  1 25 30.0000000  0  8G23G14G18G 3G17G15G31G 9
  22246557.665     3682311.49449   2862232.17247  22246557.789    22246564.266
       233.000         193.000
  21209878.616    -5738218.80049  -4268608.61747  21209878.287    21209883.478
       242.000         205.000
  21085656.804     2843647.65549   2207374.28147  21085656.704    21085661.542
       244.000         211.000
  21731455.208    -3286047.46949  -2554945.99247  21731455.107    21731461.691
       238.000         200.000
  22042698.837     3286095.32549   2429745.16146  22042698.527    22042706.944
       226.000         182.000
  20337124.586      566325.10249    438798.42248  20337123.862    20337130.373
       245.000         216.000
  23124949.195    -5556221.68549  -4314888.17246  23124948.731    23124955.967
       222.000         172.000
  23548708.917    -3811791.49349  -2893091.46345  23548709.118    23548716.167
       213.000         154.000
 03  3 21  1 26  0.0000000  0  8G23G14G18G 3G17G15G31G 9
  22257034.959     3737369.72849   2905134.68047  22257034.336    22257041.414
       233.000         192.000
  21196096.333    -5810645.06649  -4325044.63647  21196095.898    21196101.217
       242.000         206.000
  21093647.785     2885640.52149   2240095.99147  21093647.672    21093652.918
       245.000         211.000
  21729210.870    -3297841.63849  -2564136.23947  21729210.860    21729217.078
       237.000         200.000
  22054415.310     3347665.60249   2477721.97446  22054414.656    22054422.587
       228.000         182.000
  20340162.354      582288.95349    451237.78248  20340161.839    20340168.289
       245.000         216.000
  23113483.628    -5616474.17749  -4361838.10746  23113483.498    23113490.658
       222.000         173.000
  23544094.725    -3836039.05449  -2911985.58945  23544095.432    23544103.292
       215.000         155.000
 03  3 21  1 26 30.0000000  0  8G23G14G18G 3G17G15G31G 9
  22267522.468     3792482.44749   2948079.64547  22267522.365    22267528.815
       233.000         192.000
  21182398.419    -5882627.88349  -4381135.11347  21182398.321    21182403.472
       242.000         206.000
  21101672.316     2927809.70849   2272955.09447  21101671.946    21101677.286
       244.000         211.000
  21727073.666    -3309072.67049  -2572887.68447  21727074.090    21727079.844
       238.000         200.000
  22066192.389     3409554.34949   2525946.93746  22066192.183    22066200.071
       226.000         182.000
  20343273.572      598638.40849    463977.61948  20343273.085    20343279.408
       245.000         216.000
  23102109.333    -5676245.89949  -4408413.42146  23102108.863    23102116.686
       222.000         174.000
  23539578.765    -3859771.58249  -2930478.39045  23539578.369    23539586.441
       215.000         155.000
 03  3 21  1 27  0.0000000  0  8G23G14G18G 3G17G15G31G 9
  22278020.315     3847649.01249   2991066.56447  22278019.868    22278027.280
       233.000         191.000
  21168785.291    -5954165.23949  -4436878.47447  21168784.835    21168790.221
       241.000         206.000
  21109730.290     2970154.39049   2305950.94547  21109730.308    21109735.079
       244.000         211.000
  21725043.787    -3319740.28949  -2581200.11047  21725043.505    21725050.013
       238.000         201.000
  22078030.103     3471761.56649   2574420.05846  22078030.268    22078038.117
       227.000         182.000
  20346458.342      615374.36949    477018.62448  20346457.840    20346464.175
       245.000         216.000
  23090826.928    -5735534.83549  -4454612.55546  23090827.253    23090833.838
       223.000         176.000
  23535161.025    -3882986.92749  -2948568.20845  23535161.617    23535168.919
       216.000         156.000
 03  3 21  1 27 30.0000000  0  8G23G14G18G 3G17G15G31G 9
  22288528.219     3902868.13649   3034094.44347  22288527.713    22288535.062
       233.000         192.000
  21155257.126    -6025255.86149  -4492273.73147  21155256.850    21155262.277
       242.000         206.000
  21117821.319     3012673.01149   2339082.33947  21117820.777    21117826.370
       244.000         211.000
  21723120.953    -3329844.60549  -2589073.59447  21723120.876    21723127.205
       237.000         201.000
  22089928.325     3534287.00849   2623141.13946  22089927.981    22089935.941
       225.000         182.000
  20349716.666      632497.18249    490361.07148  20349716.045    20349722.650
       244.000         216.000
  23079637.099    -5794339.54749  -4500434.35646  23079637.020    23079643.812
       225.000         176.000
  23530841.952    -3905683.64649  -2966253.89845  23530841.248    23530849.279
       213.000         155.000
 03  3 21  1 28  0.0000000  0  8G23G14G18G 3G17G15G31G 9
  22299045.948     3958139.08649   3077162.70447  22299046.052    22299052.125
       233.000         192.000
  21141814.433    -6095897.73549  -4547319.31547  21141814.157    21141819.561
       242.000         207.000
  21125945.182     3055364.58149   2372348.48747  21125945.093    21125950.250
       244.000         210.000
  21721305.388    -3339385.48949  -2596508.04147  21721305.093    21721311.541
       238.000         200.000
  22101887.130     3597130.59149   2672110.13346  22101886.852    22101894.252
       226.000         181.000
  20353048.805      650007.68649    504005.62348  20353048.358    20353054.837
       245.000         216.000
  23068539.661    -5852658.14649  -4545877.36546  23068539.273    23068545.735
       223.000         177.000
  23526621.773    -3927860.04849  -2983534.14045  23526621.549    23526629.723
       215.000         155.000
 03  3 21  1 28 30.0000000  0  8G23G14G18G 3G17G15G31G 9
  22309573.488     4013461.49449   3120271.05847  22309573.294    22309580.240
       233.000         191.000
  21128457.492    -6166088.80749  -4602013.62447  21128457.084    21128462.485
       242.000         207.000
  21134101.914     3098228.30549   2405748.78647  21134101.726    21134106.653
       244.000         210.000
  21719597.087    -3348362.50549  -2603503.11147  21719596.906    21719603.389
       237.000         200.000
  22113906.561     3660292.84949   2721327.43246  22113906.191    22113914.059
       226.000         181.000
  20356454.934      667907.07849    517953.19548  20356454.360    20356461.029
       244.000         216.000
  23057534.724    -5910488.56249  -4590939.98146  23057534.671    23057541.265
       224.000         178.000
  23522501.045    -3949514.19349  -3000407.43445  23522500.602    23522508.254
       212.000         154.000
 03  3 21  1 29  0.0000000  0  8G23G14G18G 3G17G15G31G 9
  22320110.754     4068835.31149   3163419.47447  22320110.399    22320117.182
       233.000         191.000
  21115186.754    -6235826.66249  -4656354.77247  21115186.561    21115191.714
       242.000         207.000
  21142291.350     3141264.09449   2439283.16347  21142291.007    21142296.135
       243.000         210.000
  21717996.269    -3356774.85349  -2610058.18347  21717996.224    21718002.654
       237.000         200.000
  22125986.684     3723773.99849   2770793.23146  22125986.298    22125994.178
       226.000         181.000
  20359935.330      686196.67249    532204.82348  20359934.710    20359941.114
       244.000         216.000
  23046623.348    -5967828.12849  -4635620.11646  23046623.814    23046630.181
       225.000         179.000
  23518480.167    -3970643.37149  -3016871.66245  23518480.415    23518487.874
       213.000         155.000
 03  3 21  1 29 30.0000000  0  8G23G14G18G 3G17G15G31G 9
  22330657.540     4124258.87549   3206606.65747  22330657.458    22330664.210
       233.000         191.000
  21102002.514    -6305110.40749  -4710342.07347  21102002.228    21102007.243
       242.000         207.000
  21150513.137     3184469.93849   2472950.05147  21150512.965    21150518.122
       244.000         210.000
  21716502.691    -3364623.50749  -2616174.00447  21716502.718    21716509.142
       237.000         200.000
  22138127.260     3787573.32549   2820506.95546  22138127.323    22138134.717
       225.000         181.000
  20363489.943      704876.47349    546760.50848  20363489.530    20363495.812
       245.000         216.000
  23035805.526    -6024676.00349  -4679917.10346  23035805.264    23035811.467
       223.000         178.000
  23514559.396    -3991246.56349  -3032926.02545  23514559.129    23514567.110
       212.000         155.000
 03  3 21  1 30  0.0000000  0  8G23G14G18G 3G17G15G31G 9
  22341213.810     4179731.94149   3249832.40247  22341213.300    22341220.105
       232.000         191.000
  21088905.068    -6373937.83249  -4763973.80747  21088904.925    21088910.073
       242.000         208.000
  21158767.253     3227845.42049   2506749.11847  21158767.240    21158772.581
       243.000         210.000
  21715116.398    -3371908.05249  -2621850.27547  21715116.268    21715122.836
       236.000         200.000
  22150328.521     3851691.14049   2870468.85246  22150328.337    22150335.891
       226.000         180.000
  20367119.126      723947.74049    561621.23348  20367118.607    20367124.968
       244.000         215.000
  23025081.543    -6081029.76949  -4723829.08146  23025081.238    23025087.828
       224.000         178.000
  23510739.023    -4011321.60249  -3048568.83845  23510738.844    23510746.881
       214.000         155.000
 03  3 21  1 30 30.0000000  0  8G23G14G18G 3G17G15G31G 9
  22351779.075     4235253.12149   3293095.64647  22351778.945    22351785.566
       233.000         191.000
  21075894.712    -6442307.89149  -4817249.13947  21075894.172    21075899.859
       242.000         208.000
  21167053.259     3271388.77749   2540679.00347  21167052.964    21167058.254
       244.000         209.000
  21713837.427    -3378629.06349  -2627087.41647  21713837.203    21713843.953
       237.000         200.000
  22162590.334     3916126.90349   2920678.51446  22162589.549    22162597.057
       226.000         180.000
  20370822.735      743410.37349    576786.91848  20370822.273    20370828.917
       245.000         215.000
  23014451.886    -6136888.39049  -4767355.23446  23014451.797    23014458.251
       224.000         178.000
  23507019.641    -4030867.56849  -3063799.39845  23507019.649    23507028.096
       215.000         157.000
 03  3 21  1 31  0.0000000  0  8G23G14G18G 3G17G15G31G 9
  22362353.610     4290822.27449   3336396.27147  22362353.375    22362359.962
       232.000         191.000
  21062971.681    -6510218.32349  -4870166.32447  21062971.348    21062976.927
       242.000         208.000
  21175371.168     3315099.74349   2574739.48447  21175371.096    21175376.219
       244.000         209.000
  21712665.784    -3384785.73949  -2631884.81347  21712665.644    21712672.216
       236.000         199.000
  22174912.497     3980880.19149   2971135.60646  22174911.858    22174919.673
       224.000         179.000
  20374601.066      763265.75249    592258.63848  20374600.588    20374606.922
       245.000         216.000
  23003916.938    -6192249.52749  -4810493.73346  23003917.060    23003923.742
       223.000         178.000
  23503401.191    -4049882.00849  -3078615.76645  23503400.884    23503408.811
       214.000         156.000
 03  3 21  1 31 30.0000000  0  8G23G14G18G 3G17G15G31G 9
  22372937.032     4346438.56049   3379733.62947  22372936.558    22372943.648
       232.000         190.000
  21050136.487    -6577667.58849  -4922724.16047  21050136.184    21050141.275
       243.000         208.000
  21183720.760     3358977.16749   2608929.67847  21183720.286    21183725.401
       243.000         209.000
  21711601.535    -3390378.23549  -2636242.58947  21711602.071    21711607.660
       238.000         200.000
  22187295.019     4045951.13949   3021840.19446  22187294.785    22187302.546
       226.000         180.000
  20378454.322      783514.42949    608036.83348  20378453.760    20378460.294
       245.000         216.000
  22993476.893    -6247111.52549  -4853243.29146  22993476.727    22993483.297
       223.000         178.000
  23499884.394    -4068363.56949  -3093016.93345  23499885.428    23499892.428
       217.000         156.000
 03  3 21  1 32  0.0000000  0  8G23G14G18G 3G17G15G31G 9
  22383529.131     4402100.37549   3423106.46147  22383528.556    22383535.565
       233.000         190.000
  21037389.272    -6644654.80449  -4974921.96747  21037389.009    21037394.071
       243.000         208.000
  21192101.561     3403018.99949   2643247.98347  21192101.433    21192106.433
       244.000         209.000
  21710644.527    -3395407.79249  -2640161.72647  21710644.564    21710650.732
       238.000         200.000
  22199737.952     4111339.04649   3072791.77946  22199737.492    22199745.438
       224.000         180.000
  20382382.265      804156.31149    624121.41148  20382381.731    20382388.341
       244.000         215.000
  22983132.063    -6301473.60349  -4895603.31846  22983132.029    22983138.306
       223.000         177.000
  23496469.053    -4086311.45949  -3107002.23245  23496468.903    23496477.279
       215.000         156.000
 03  3 21  1 32 30.0000000  0  8G23G14G18G 3G17G15G31G 9
  22394129.949     4457808.07049   3466515.05047  22394129.697    22394136.930
       233.000         190.000
  21024730.381    -6711177.74349  -5026757.98847  21024730.092    21024735.469
       243.000         209.000
  21200513.795     3447225.19249   2677694.36747  21200513.790    21200518.770
       244.000         209.000
  21709794.691    -3399873.55949  -2643641.53847  21709794.562    21709801.232
       238.000         200.000
  22212241.268     4177044.52949   3123990.82546  22212241.055    22212248.706
       224.000         178.000
  20386385.350      825192.79249    640513.47348  20386385.009    20386391.303
       245.000         215.000
  22972882.872    -6355333.18749  -4937571.78246  22972883.174    22972889.905
       221.000         176.000
  23493155.674    -4103723.02549  -3120569.62445  23493155.657    23493162.589
       216.000         156.000
 03  3 21  1 33  0.0000000  0  8G23G14G18G 3G17G15G31G 9
  22404739.384     4513561.09249   3509958.94447  22404739.442    22404745.789
       232.000         190.000
  21012160.149    -6777234.43249  -5078230.70347  21012159.854    21012165.226
       242.000         209.000
  21208957.231     3491595.10749   2712268.32147  21208956.905    21208962.091
       243.000         208.000
  21709052.247    -3403775.16649  -2646681.74647  21709052.246    21709058.936
       238.000         200.000
  22224804.987     4243067.36649   3175437.16146  22224804.668    22224812.015
       224.000         178.000
  20390463.710      846624.58449    657213.56848  20390463.296    20390469.858
       245.000         215.000
  22962729.769    -6408688.30249  -4979147.15546  22962730.043    22962736.919
       222.000         175.000
  23489944.764    -4120596.52749  -3133717.75745  23489944.190    23489952.909
       214.000         155.000
 03  3 21  1 33 30.0000000  0  8G23G14G18G 3G17G15G31G 9
  22415357.033     4569357.04249   3553436.30547  22415356.651    22415363.739
       232.000         190.000
  20999678.679    -6842824.74449  -5129340.00547  20999678.385    20999683.393
       243.000         209.000
  21217431.134     3536126.07049   2746967.76747  21217430.808    21217436.132
       243.000         208.000
  21708416.751    -3407114.64349  -2649283.92447  21708416.806    21708422.871
       237.000         200.000
  22237428.906     4309406.17949   3227129.71046  22237428.868    22237436.632
       225.000         178.000
  20394617.180      868450.95649    674221.13348  20394616.711    20394623.192
       245.000         215.000
  22952672.753    -6461538.95549  -5020329.43446  22952672.036    22952679.704
       221.000         173.000
  23486836.125    -4136932.12049  -3146446.70345  23486836.721    23486843.888
       216.000         157.000
 03  3 21  1 34  0.0000000  0  8G23G14G18G 3G17G15G31G 9
  22425983.010     4625196.75749   3596947.77147  22425982.405    22425988.983
       233.000         190.000
  20987286.477    -6907945.87749  -5180083.71347  20987286.104    20987291.366
       242.000         209.000
  21225935.796     3580818.38149   2781792.94647  21225935.501    21225940.677
       243.000         208.000
  21707888.495    -3409890.76949  -2651447.13047  21707888.392    21707894.690
       238.000         201.000
  22250113.061     4376061.70149   3279069.03446  22250112.368    22250121.135
       223.000         178.000
  20398846.038      890673.91049    691537.71648  20398845.823    20398852.196
       245.000         215.000
  22942712.240    -6513882.20349  -5061116.34046  22942712.001    22942718.490
       221.000         172.000
  23483830.389    -4152727.02349  -3158754.37445  23483830.403    23483837.534
       215.000         156.000
 03  3 21  1 34 30.0000000  0  8G23G14G18G 3G17G15G31G 9
  22436617.176     4681079.58149   3640492.81747  22436616.673    22436623.663
       232.000         190.000
  20974983.894    -6972596.23049  -5230460.58147  20974983.611    20974988.928
       242.000         209.000
  21234471.050     3625671.34149   2816743.30147  21234471.012    21234475.860
       244.000         208.000
  21707467.388    -3412103.86149  -2653171.61547  21707467.123    21707473.595
       237.000         201.000
  22262857.454     4443033.76249   3331255.01246  22262857.534    22262864.951
       224.000         177.000
  20403150.536      913294.02549    709163.78448  20403150.153    20403156.370
       245.000         215.000
  22932848.824    -6565716.37849  -5101506.55446  22932848.769    22932855.366
       221.000         171.000
  23480927.733    -4167979.44549  -3170639.31545  23480927.782    23480936.091
       218.000         157.000
 03  3 21  1 35  0.0000000  0  8G23G14G18G 3G17G15G31G 9
  22447259.308     4737004.33449   3684070.54547  22447259.036    22447265.834
       233.000         190.000
  20962771.094    -7036774.63149  -5280469.68947  20962770.906    20962776.027
       242.000         210.000
  21243036.601     3670683.52049   2851817.72147  21243036.352    21243041.498
       245.000         208.000
  21707153.221    -3413754.44749  -2654457.77947  21707153.211    21707159.841
       239.000         200.000
  22275661.966     4510321.68749   3383687.13646  22275661.820    22275669.456
       226.000         177.000
  20407530.658      936311.69449    727099.62948  20407530.001    20407536.681
       246.000         215.000
  22923082.229    -6617040.21949  -5141499.09246  22923081.681    22923087.639
       219.000         170.000
  23478128.798    -4182688.32149  -3182100.70845  23478128.800    23478136.832
       218.000         159.000
 03  3 21  1 35 30.0000000  0  8G23G14G18G 3G17G15G31G 9
  22457909.475     4792971.45149   3727681.27847  22457909.313    22457916.086
       232.000         189.000
  20950648.601    -7100478.46649  -5330109.00647  20950648.228    20950653.574
       242.000         210.000
  21251632.432     3715854.93049   2887016.21947  21251632.241    21251637.338
       243.000         208.000
  21706946.340    -3414841.64949  -2655304.94147  21706946.054    21706952.818
       238.000         201.000
  22288526.706     4577926.05449   3436365.82146  22288526.694    22288533.836
       224.000         176.000
  20411986.673      959728.46849    745346.46348  20411986.056    20411992.492
       245.000         215.000
  22913412.858    -6667851.03149  -5181091.89046  22913412.145    22913418.567
       220.000         170.000
  23475433.594    -4196851.12149  -3193136.62045  23475433.965    23475441.303
       218.000         158.000
 03  3 21  1 36  0.0000000  0  8G23G14G18G 3G17G15G31G 9
  22468567.509     4848979.77349   3771324.11147  22468567.175    22468574.345
       233.000         189.000
  20938616.650    -7163706.87349  -5379377.87047  20938616.537    20938621.715
       242.000         210.000
  21260258.265     3761183.98249   2922337.54947  21260257.960    21260263.183
       242.000         207.000
  21706846.501    -3415366.56249  -2655713.96847  21706846.643    21706852.906
       238.000         201.000
  22301451.497     4645846.29649   3489290.65146  22301451.287    22301459.204
       223.000         177.000
  20416518.705      983544.28949    763904.24248  20416518.259    20416524.875
       245.000         215.000
  22903841.407    -6718148.06749  -5220284.34446  22903840.821    22903847.671
       220.000         171.000
  23472842.659    -4210467.19449  -3203746.47645  23472842.679    23472850.502
       219.000         160.000
 03  3 21  1 36 30.0000000  0  8G23G14G18G 3G17G15G31G 9
  22479233.307     4905028.59149   3814998.51547  22479232.891    22479240.030
       233.000         189.000
  20926675.443    -7226458.40049  -5428275.13447  20926675.054    20926680.261
       242.000         210.000
  21268913.878     3806669.61749   2957780.90347  21268913.657    21268919.073
       241.000         207.000
  21706853.608    -3415329.50249  -2655685.08347  21706853.568    21706859.667
       239.000         201.000
  22314436.403     4714082.20749   3542461.45246  22314436.047    22314444.161
       223.000         177.000
  20421126.777     1007759.84049    782773.50148  20421126.189    20421132.593
       244.000         215.000
  22894368.219    -6767929.63849  -5259075.13946  22894367.379    22894374.593
       222.000         171.000
  23470355.936    -4223534.99749  -3213929.12445  23470355.451    23470363.195
       216.000         158.000
 03  3 21  1 37  0.0000000  0  8G23G14G18G 3G17G15G31G 9
  22489906.432     4961116.71049   3858703.53447  22489906.042    22489912.924
       232.000         189.000
  20914825.090    -7288732.26949  -5476800.19247  20914824.588    20914830.124
       242.000         210.000
  21277599.027     3852310.51449   2993345.23447  21277598.705    21277603.886
       242.000         207.000
  21706967.539    -3414731.08649  -2655218.77647  21706967.189    21706973.679
       238.000         201.000
  22327481.300     4782633.17149   3595877.77846  22327480.467    22327488.717
       224.000         176.000
  20425810.887     1032375.21749    801954.31648  20425810.146    20425816.866
       245.000         215.000
  22884993.353    -6817194.86049  -5297463.58646  22884993.319    22884999.363
       224.000         172.000
  23467973.602    -4236053.85749  -3223684.03945  23467973.690    23467981.320
       218.000         157.000
 03  3 21  1 37 30.0000000  0  8G23G14G18G 3G17G15G31G 9
  22500587.043     5017243.81449   3902438.92347  22500586.868    22500593.296
       233.000         189.000
  20903065.986    -7350526.63049  -5524951.61047  20903065.769    20903071.039
       242.000         211.000
  21286313.651     3898106.15549   3029030.14147  21286313.672    21286318.664
       242.000         207.000
  21707188.165    -3413571.54149  -2654315.23547  21707188.166    21707194.465
       238.000         201.000
  22340586.043     4851498.86949   3649539.31146  22340585.714    22340593.209
       223.000         176.000
  20430571.204     1057391.02949    821447.15348  20430570.850    20430577.153
       244.000         215.000
  22875717.157    -6865941.90349  -5335448.26446  22875716.931    22875723.449
       223.000         172.000
  23465696.178    -4248022.10349  -3233009.87945  23465695.927    23465703.870
       216.000         158.000
 03  3 21  1 38  0.0000000  0  8G23G14G18G 3G17G15G31G 9
  22511275.213     5073409.88949   3946204.69247  22511274.979    22511281.726
       234.000         189.000
  20891398.500    -7411839.54449  -5572727.87647  20891398.236    20891403.387
       243.000         211.000
  21295057.673     3944055.89249   3064835.12447  21295057.119    21295062.560
       243.000         207.000
  21707515.732    -3411850.64549  -2652974.27147  21707515.630    21707521.941
       239.000         201.000
  22353750.693     4920679.32549   3703446.12246  22353750.531    22353758.069
       224.000         175.000
  20435408.048     1082808.50049    841252.97548  20435407.612    20435414.098
       246.000         215.000
  22866539.907    -6914168.68249  -5373027.53746  22866540.374    22866545.295
       225.000         172.000
  23463523.829    -4259437.60149  -3241905.02945  23463523.421    23463530.523
       216.000         158.000
 03  3 21  1 38 30.0000000  0  8G23G14G18G 3G17G15G31G 9
  22521970.545     5129614.15749   3990000.21847  22521970.254    22521977.065
       233.000         188.000
  20879822.891    -7472669.78049  -5620128.03447  20879822.889    20879827.830
       242.000         211.000
  21303830.657     3990158.75649   3100759.42447  21303830.455    21303835.858
       241.000         207.000
  21707949.958    -3409568.91949  -2651196.30147  21707949.939    21707956.335
       238.000         201.000
  22366975.132     4990174.19849   3757597.92246  22366974.526    22366982.600
       222.000         175.000
  20440321.393     1108628.10849    861372.14848  20440320.790    20440327.473
       244.000         215.000
  22857461.943    -6961874.01849  -5410200.49346  22857461.908    22857467.241
       225.000         172.000
  23461456.753    -4270299.44449  -3250368.74945  23461456.622    23461464.921
       217.000         159.000
 03  3 21  1 39  0.0000000  0  8G23G14G18G 3G17G15G31G 9
  22532672.852     5185855.19649   4033824.39147  22532672.815    22532679.663
       232.000         188.000
  20868339.268    -7533016.66749  -5667151.55247  20868338.860    20868344.274
       241.000         211.000
  21312632.544     4036413.04049   3136801.71747  21312632.392    21312637.989
       241.000         207.000
  21708490.576    -3406727.65849  -2648982.32447  21708490.225    21708496.762
       237.000         201.000
  22380259.280     5059982.81249   3811994.19646  22380259.349    22380267.866
       221.000         175.000
  20445311.151     1134849.55749    881804.44448  20445310.686    20445317.054
       244.000         215.000
  22848483.276    -7009057.14449  -5446966.53946  22848483.214    22848489.115
       225.000         171.000
  23459495.155    -4280607.19949  -3258400.71345  23459494.960    23459502.322
       216.000         160.000
 03  3 21  1 39 30.0000000  0  8G23G14G18G 3G17G15G31G 9
  22543382.386     5242133.70949   4077677.77147  22543382.181    22543388.725
       232.000         188.000
  20856948.053    -7592877.52049  -5713796.34147  20856947.736    20856953.122
       241.000         211.000
  21321463.392     4082819.25249   3172962.39647  21321463.348    21321468.533
       242.000         207.000
  21709137.779    -3403326.26849  -2646331.88947  21709137.747    21709143.615
       238.000         200.000
  22393603.094     5130105.66549   3866635.32746  22393602.122    22393610.978
       221.000         174.000
  20450377.756     1161474.83049    902551.40848  20450377.418    20450383.606
       244.000         215.000
  22839604.391    -7055715.47749  -5483323.65046  22839604.501    22839610.872
       224.000         171.000
  23457639.559    -4290358.15449  -3265998.81845  23457639.244    23457646.858
       217.000         160.000
 03  3 21  1 40  0.0000000  0  8G23G14G18G 3G17G15G31G 9
  22554098.858     5298449.10549   4121559.88846  22554098.473    22554105.245
       232.000         187.000
  20845649.604    -7652251.03749  -5760061.38847  20845649.337    20845654.707
       242.000         211.000
  21330323.020     4129376.55449   3209240.81047  21330322.755    21330327.838
       241.000         206.000
  21709891.594    -3399365.10949  -2643245.27347  21709891.635    21709897.903
       237.000         200.000
  22407006.779     5200542.53849   3921521.15446  22407006.562    22407014.796
       222.000         173.000
  20455521.262     1188504.06349    923613.14748  20455520.778    20455527.314
       244.000         215.000
  22830825.748    -7101847.45249  -5519270.61246  22830825.588    22830832.475
       224.000         173.000
  23455890.170    -4299551.15249  -3273162.15145  23455890.675    23455898.119
       217.000         160.000
 03  3 21  1 40 30.0000000  0  8G23G14G18G 3G17G15G31G 9
  22564821.932     5354799.44749   4165469.23946  22564821.179    22564828.110
       232.000         187.000
  20834443.925    -7711137.20049  -5805946.68147  20834443.545    20834448.714
       241.000         212.000
  21339210.790     4176082.34349   3245634.93547  21339210.432    21339215.514
       241.000         206.000
  21710751.530    -3394846.19649  -2639724.02947  21710751.410    21710757.702
       238.000         201.000
  22420469.948     5271291.67449   3976650.31146  22420469.792    22420477.726
       223.000         173.000
  20460741.474     1215936.49649    944989.06648  20460741.124    20460747.358
       245.000         215.000
  22822147.307    -7147453.24449  -5554807.56246  22822146.177    22822153.444
       224.000         173.000
  23454246.950    -4308186.46149  -3279890.90845  23454246.793    23454253.963
       215.000         158.000
 03  3 21  1 41  0.0000000  0  8G23G14G18G 3G17G15G31G 9
  22575551.911     5411185.87149   4209406.71346  22575551.891    22575558.520
       232.000         187.000
  20823331.516    -7769533.13049  -5851449.97347  20823331.078    20823336.523
       242.000         211.000
  21348126.956     4222937.46349   3282145.41147  21348126.979    21348132.057
       242.000         206.000
  21711717.823    -3389768.02749  -2635767.00847  21711717.521    21711724.237
       237.000         201.000
  22433992.773     5342354.28449   4032023.72746  22433992.980    22434000.796
       222.000         173.000
  20466038.877     1243774.33449    966680.88948  20466038.277    20466044.981
       244.000         215.000
  22813569.471    -7192529.68349  -5589932.03146  22813568.845    22813575.859
       225.000         175.000
  23452710.364    -4316261.08549  -3286182.77345  23452710.446    23452717.983
       216.000         157.000
 03  3 21  1 41 30.0000000  0  8G23G14G18G 3G17G15G31G 9
  22586288.401     5467606.29749   4253370.66346  22586288.208    22586294.569
       232.000         187.000
  20812312.362    -7827439.02449  -5896571.42047  20812311.996    20812317.393
       242.000         212.000
  21357071.240     4269939.37749   3318770.27447  21357071.287    21357075.926
       242.000         206.000
  21712790.101    -3384132.75349  -2631375.88447  21712789.938    21712796.539
       238.000         201.000
  22447574.892     5413728.47849   4087639.93646  22447574.178    22447582.771
       222.000         173.000
  20471413.205     1272016.71949    988687.93548  20471412.896    20471419.214
       244.000         215.000
  22805092.345    -7237076.98549  -5624644.18346  22805091.704    22805098.994
       225.000         176.000
  23451280.428    -4323775.43949  -3292038.08045  23451279.807    23451288.941
       215.000         156.000
 03  3 21  1 42  0.0000000  0  8G23G14G18G 3G17G15G31G 9
  22597031.508     5524061.40949   4297361.64346  22597030.911    22597038.326
       232.000         187.000
  20801386.970    -7884852.39849  -5941309.09047  20801386.660    20801391.933
       242.000         212.000
  21366043.516     4317088.82649   3355510.09647  21366043.206    21366048.447
       241.000         206.000
  21713968.614    -3377939.85249  -2626550.25047  21713968.422    21713974.933
       237.000         200.000
  22461216.361     5485415.02549   4143499.53746  22461216.803    22461223.546
       223.000         172.000
  20476864.862     1300665.17249   1011011.39648  20476864.262    20476870.748
       244.000         214.000
  22796716.341    -7281092.69949  -5658942.12146  22796716.342    22796722.465
       224.000         177.000
  23449957.539    -4330727.18249  -3297454.99045  23449957.272    23449964.189
       215.000         156.000
 03  3 21  1 42 30.0000000  0  8G23G14G18G 3G17G15G31G 9
  22607780.913     5580549.96249   4341378.69646  22607780.629    22607787.608
       232.000         187.000
  20790555.362    -7941772.54649  -5985662.42147  20790555.038    20790560.156
       241.000         212.000
  21375043.500     4364384.26749   3392363.68447  21375043.006    21375048.424
       241.000         206.000
  21715252.826    -3371190.72449  -2621291.18847  21715252.943    21715258.937
       237.000         200.000
  22474917.099     5557412.88049   4199601.70846  22474916.419    22474924.766
       221.000         172.000
  20482393.647     1329719.45049   1033651.08948  20482393.124    20482399.712
       244.000         214.000
  22788441.852    -7324576.01249  -5692825.19146  22788441.260    22788448.104
       226.000         178.000
  23448741.673    -4337115.77149  -3302433.07145  23448742.154    23448749.273
       215.000         157.000
 03  3 21  1 43  0.0000000  0  8G23G14G18G 3G17G15G31G 9
  22618536.693     5637071.90149   4385421.75946  22618536.583    22618542.974
       231.000         186.000
  20779817.971    -7998197.76049  -6029630.08647  20779817.821    20779822.684
       242.000         212.000
  21384071.231     4411825.28349   3429330.70847  21384071.076    21384076.096
       241.000         206.000
  21716643.051    -3363885.17649  -2615598.54547  21716642.721    21716649.408
       237.000         200.000
  22488677.125     5629722.23949   4255946.61146  22488676.863    22488684.987
       222.000         172.000
  20487999.941     1359180.49249   1056607.74048  20487999.513    20488005.804
       244.000         214.000
  22780268.988    -7367525.21349  -5726292.06346  22780268.408    22780275.243
       224.000         179.000
  23447633.454    -4342939.60049  -3306971.09645  23447633.371    23447640.557
       216.000         158.000
 03  3 21  1 43 30.0000000  0  8G23G14G18G 3G17G15G31G 9
  22629298.564     5693626.04749   4429489.91246  22629298.023    22629304.982
       231.000         186.000
  20769174.873    -8054127.54849  -6073211.71148  20769174.530    20769179.753
       242.000         213.000
  21393126.316     4459410.11349   3466409.78847  21393126.097    21393131.217
       242.000         206.000
  21718138.879    -3356024.52349  -2609473.35947  21718138.685    21718145.287
       238.000         200.000
  22502496.241     5702342.12449   4312533.47746  22502496.456    22502504.646
       221.000         172.000
  20493683.581     1389048.14549   1079881.23548  20493683.128    20493689.607
       245.000         214.000
  22772197.598    -7409939.68449  -5759342.27246  22772197.576    22772203.770
       223.000         180.000
  23446632.687    -4348198.36249  -3311068.78445  23446632.214    23446639.295
       216.000         158.000
 03  3 21  1 44  0.0000000  0  8G23G14G18G 3G17G15G31G 9
  22640066.701     5750213.04149   4473583.65946  22640066.148    22640072.984
       230.000         185.000
  20758626.475    -8109559.67149  -6116405.54748  20758626.212    20758631.373
       242.000         213.000
  21402208.926     4507139.15649   3503601.24647  21402208.819    21402213.964
       241.000         206.000
  21719740.358    -3347608.51749  -2602915.43547  21719740.806    21719746.474
       238.000         201.000
  22516374.526     5775272.84049   4369362.53846  22516374.268    22516382.962
       222.000         173.000
  20499444.857     1419323.74549   1103472.60548  20499444.300    20499451.005
       245.000         214.000
  22764228.439    -7451817.20549  -5791974.06946  22764228.343    22764234.569
       224.000         180.000
  23445739.926    -4352890.00249  -3314724.56145  23445740.152    23445748.161
       215.000         158.000
 03  3 21  1 44 30.0000000  0  8G23G14G18G 3G17G15G31G 9
  22650840.758     5806831.35449   4517701.81746  22650840.060    22650847.286
       230.000         185.000
  20748172.773    -8164494.07549  -6159211.54948  20748172.419    20748177.745
       242.000         213.000
  21411318.516     4555010.46049   3540903.55247  21411318.103    21411323.540
       241.000         205.000
  21721447.255    -3338639.02249  -2595926.20847  21721447.165    21721453.495
       237.000         201.000
  22530311.822     5848513.13149   4426432.82446  22530312.159    22530320.237
       222.000         172.000
  20505283.685     1450006.88849   1127381.54648  20505283.118    20505289.584
       244.000         214.000
  22756361.703    -7493157.51549  -5824187.27146  22756360.919    22756367.766
       225.000         180.000
  23444954.914    -4357014.38249  -3317938.32345  23444954.786    23444961.856
       215.000         157.000
 03  3 21  1 45  0.0000000  0  8G23G14G18G 3G17G15G31G 9
  22661620.776     5863480.64549   4561844.10346  22661620.746    22661627.163
       231.000         185.000
  20737814.095    -8218929.14549  -6201628.45748  20737813.870    20737818.930
       242.000         213.000
  21420455.097     4603023.60449   3578316.38847  21420455.058    21420459.952
       242.000         205.000
  21723259.333    -3329116.34949  -2588505.94347  21723259.141    21723265.514
       238.000         200.000
  22544307.909     5922062.68749   4483744.11746  22544307.281    22544315.451
       220.000         170.000
  20511200.124     1481098.21549   1151608.55048  20511199.432    20511206.223
       244.000         214.000
  22748597.454    -7533959.06349  -5855980.65446  22748597.134    22748603.723
       225.000         180.000
  23444278.253    -4360570.36449  -3320709.19745  23444278.214    23444285.568
       215.000         156.000
 03  3 21  1 45 30.0000000  0  8G23G14G18G 3G17G15G31G 9
  22672406.560     5920160.56249   4606010.25846  22672406.560    22672413.016
       229.000         185.000
  20727550.737    -8272863.56149  -6243655.24948  20727550.505    20727555.597
       242.000         213.000
  21429618.623     4651177.77949   3615839.11847  21429618.454    21429623.350
       242.000         205.000
  21725176.556    -3319041.34749  -2580655.29847  21725176.523    21725182.903
       238.000         200.000
  22558362.715     5995921.34149   4541296.25646  22558362.451    22558370.078
       221.000         170.000
  20517194.333     1512598.06749   1176153.88348  20517193.932    20517200.404
       244.000         214.000
  22740935.733    -7574220.72549  -5887353.34746  22740935.488    22740942.122
       225.000         178.000
  23443709.743    -4363557.14949  -3323036.50945  23443709.298    23443716.732
       217.000         157.000
 03  3 21  1 46  0.0000000  0  8G23G14G18G 3G17G15G31G 9
  22683198.143     5976870.88449   4650200.11346  22683198.069    22683204.832
       228.000         184.000
  20717382.836    -8326296.17149  -6285291.02348  20717382.475    20717387.661
       242.000         213.000
  21438808.794     4699472.52049   3653471.36847  21438808.772    21438813.790
       241.000         205.000
  21727198.915    -3308414.27249  -2572374.46247  21727198.953    21727205.002
       238.000         200.000
  22572476.333     6070088.44749   4599088.74346  22572476.140    22572484.269
       221.000         169.000
  20523266.447     1544507.12549   1201018.07748  20523266.198    20523272.684
       245.000         214.000
  22733377.228    -7613941.04649  -5918304.23046  22733376.761    22733383.763
       224.000         177.000
  23443250.114    -4365973.24549  -3324919.17645  23443250.525    23443256.082
       216.000         157.000
 03  3 21  1 46 30.0000000  0  8G23G14G18G 3G17G15G31G 9
  22693995.441     6033610.84449   4694413.05446  22693995.244    22694001.286
       229.000         184.000
  20707310.550    -8379226.27249  -6326535.22548  20707310.317    20707315.480
       242.000         213.000
  21448025.472     4747906.35349   3691212.01647  21448025.531    21448030.513
       242.000         205.000
  21729326.030    -3297236.35449  -2563664.39247  21729325.951    21729332.084
       238.000         200.000
  22586648.571     6144563.34749   4657121.06446  22586649.068    22586656.867
       219.000         169.000
  20529416.468     1576825.34449   1226201.10748  20529415.901    20529422.237
       244.000         214.000
  22725921.852    -7653119.30049  -5948832.70146  22725921.912    22725927.765
       223.000         176.000
  23442899.168    -4367818.17949  -3326356.73545  23442897.999    23442906.173
       214.000         156.000
 03  3 21  1 47  0.0000000  0  8G23G14G18G 3G17G15G31G 9
  22704798.441     6090380.37249   4738649.04246  22704798.445    22704805.095
       230.000         184.000
  20697334.186    -8431652.17949  -6367386.54948  20697334.034    20697339.149
       243.000         214.000
  21457268.623     4796479.11449   3729060.92047  21457268.222    21457273.425
       242.000         205.000
  21731557.791    -3285508.10149  -2554525.49247  21731557.786    21731564.224
       238.000         200.000
  22600879.301     6219346.16149   4715393.31346  22600879.017    22600887.520
       221.000         169.000
  20535644.440     1609553.63149   1251703.66548  20535643.760    20535650.357
       244.000         214.000
  22718569.848    -7691753.90449  -5978937.55746  22718569.562    22718576.100
       223.000         175.000
  23442656.853    -4369090.65549  -3327348.24545  23442656.577    23442663.913
       214.000         157.000
 03  3 21  1 47 30.0000000  0  8G23G14G18G 3G17G15G31G 9
  22715606.899     6147179.48849   4782908.07846  22715605.993    22715613.364
       228.000         184.000
  20687454.104    -8483572.55749  -6407843.96348  20687453.894    20687458.984
       242.000         214.000
  21466538.017     4845190.41149   3767017.76547  21466537.895    21466542.865
       241.000         205.000
  21733894.237    -3273229.72849  -2544957.93747  21733894.128    21733900.448
       237.000         200.000
  22615168.629     6294436.72449   4773905.38846  22615167.515    22615176.564
       221.000         170.000
  20541950.573     1642692.68549   1277526.29548  20541950.164    20541956.769
       244.000         214.000
  22711321.561    -7729843.33049  -6008617.61146  22711321.299    22711328.015
       222.000         175.000
  23442523.777    -4369789.34049  -3327892.63045  23442523.828    23442531.275
       215.000         157.000
 03  3 21  1 48  0.0000000  0  8G23G14G18G 3G17G15G31G 9
  22726420.659     6204006.36649   4827188.74646  22726419.777    22726427.183
       228.000         183.000
  20677670.118    -8534987.49149  -6447907.52748  20677669.777    20677674.992
       242.000         214.000
  21475833.495     4894038.25849   3805081.01647  21475832.990    21475838.142
       241.000         205.000
  21736335.055    -3260403.28449  -2534963.31047  21736334.799    21736341.282
       238.000         200.000
  22629516.158     6369833.06249   4832655.70246  22629515.972    22629524.425
       221.000         170.000
  20548334.747     1676241.67149   1303668.35748  20548334.124    20548340.813
       244.000         214.000
  22704177.219    -7767387.71149  -6037872.94546  22704176.975    22704183.229
       224.000         176.000
  23442499.907    -4369914.89749  -3327990.43245  23442499.395    23442507.153
       214.000         158.000
 03  3 21  1 48 30.0000000  0  8G23G14G18G 3G17G15G31G 9
  22737239.824     6260861.33449   4871491.31346  22737239.557    22737246.014
       229.000         184.000
  20667982.676    -8585895.23249  -6487575.87148  20667982.374    20667987.683
       242.000         214.000
  21485154.848     4943022.56149   3843250.59547  21485154.587    21485159.499
       241.000         204.000
  21738880.052    -3247029.09349  -2524541.86847  21738879.827    21738886.365
       237.000         199.000
  22643921.878     6445535.25349   4891644.34246  22643921.419    22643929.378
       220.000         169.000
  20554797.050     1710201.31549   1330130.40848  20554796.421    20554803.142
       244.000         214.000
  22697136.891    -7804385.34049  -6066702.23446  22697136.409    22697142.588
       224.000         177.000
  23442585.254    -4369465.71249  -3327640.37245  23442585.646    23442592.464
       215.000         158.000
 03  3 21  1 49  0.0000000  0  8G23G14G18G 3G17G15G31G 9
  22748064.235     6317743.74749   4915815.26146  22748064.073    22748070.536
       230.000         184.000
  20658391.857    -8636295.20149  -6526848.54748  20658391.593    20658396.727
       244.000         215.000
  21494501.997     4992142.30349   3881525.72347  21494501.816    21494506.708
       242.000         204.000
  21741529.043    -3233108.48949  -2513694.63447  21741528.793    21741535.127
       239.000         199.000
  22658385.688     6521542.66249   4950870.81946  22658385.266    22658393.681
       220.000         169.000
  20561337.512     1744571.82049   1356912.61348  20561336.843    20561343.391
       245.000         213.000
  22690200.542    -7840835.56749  -6095104.99446  22690200.111    22690206.828
       227.000         179.000
  23442780.231    -4368441.15449  -3326841.98645  23442780.481    23442789.177
       215.000         157.000
 03  3 21  1 49 30.0000000  0  8G23G14G18G 3G17G15G31G 9
  22758893.801     6374653.92549   4960160.84146  22758893.386    22758900.239
       228.000         183.000
  20648898.105    -8686185.45949  -6565724.05148  20648897.766    20648902.953
       242.000         215.000
  21503874.905     5041397.33849   3919906.26147  21503874.527    21503879.958
       240.000         204.000
  21744281.998    -3218641.62149  -2502421.75947  21744281.337    21744288.303
       237.000         199.000
  22672907.671     6597855.66849   5010335.42046  22672907.153    22672915.520
       218.000         169.000
  20567956.462     1779354.45849   1384015.96148  20567956.050    20567962.478
       244.000         213.000
  22683368.873    -7876736.53949  -6123079.75446  22683368.920    22683374.935
       227.000         180.000
  23443084.842    -4366840.01849  -3325594.28545  23443084.830    23443091.589
       215.000         156.000
 03  3 21  1 50  0.0000000  0  8G23G14G18G 3G17G15G31G 9
  22769728.737     6431591.53949   5004527.80946  22769728.215    22769735.244
       229.000         183.000
  20639501.414    -8735565.21349  -6604201.75948  20639501.191    20639506.219
       243.000         215.000
  21513273.358     5090786.80949   3958391.55847  21513273.231    21513278.498
       242.000         204.000
  21747138.715    -3203629.34149  -2490723.88247  21747138.989    21747144.999
       238.000         199.000
  22687487.543     6674473.76449   5070037.77646  22687486.960    22687495.289
       219.000         169.000
  20574653.790     1814549.13549   1411440.37248  20574653.384    20574659.815
       245.000         213.000
  22676641.927    -7912087.30849  -6150625.79146  22676642.027    22676648.017
       229.000         181.000
  23443499.444    -4364661.54549  -3323896.75245  23443499.533    23443506.613
       214.000         156.000
 03  3 21  1 50 30.0000000  0  8G23G14G18G 3G17G15G31G 9
  22780568.693     6488555.39749   5048915.22246  22780568.321    22780574.656
       229.000         183.000
  20630201.934    -8784434.03549  -6642281.33948  20630201.719    20630206.628
       242.000         215.000
  21522697.254     5140309.51249   3996980.67947  21522697.027    21522702.082
       241.000         203.000
  21750098.855    -3188073.37349  -2478602.35847  21750098.780    21750105.260
       237.000         199.000
  22702125.233     6751395.21349   5129976.51446  22702125.226    22702132.518
       219.000         167.000
  20581429.483     1850155.55749   1439185.62848  20581428.873    20581435.583
       243.000         213.000
  22670019.548    -7946887.53949  -6177742.83446  22670019.192    22670025.830
       228.000         182.000
  23444023.885    -4361905.57849  -3321749.19745  23444023.720    23444031.379
       216.000         158.000
 03  3 21  1 51  0.0000000  0  8G23G14G18G 3G17G15G31G 9
  22791413.564     6545545.79949   5093323.32146  22791413.223    22791420.651
       228.000         182.000
  20620999.968    -8832790.62749  -6679961.77548  20620999.799    20621004.750
       242.000         215.000
  21532146.372     5189965.13749   4035673.37147  21532145.976    21532151.302
       240.000         203.000
  21753162.287    -3171974.38849  -2466057.70047  21753162.389    21753169.163
       237.000         199.000
  22716820.731     6828620.13849   5190151.73046  22716821.382    22716828.898
       220.000         168.000
  20588283.634     1886174.57049   1467252.38648  20588283.028    20588289.936
       244.000         213.000
  22663502.261    -7981135.75949  -6204429.73846  22663502.304    22663508.168
       228.000         182.000
  23444658.407    -4358570.93749  -3319150.73245  23444658.141    23444665.720
       215.000         158.000
 03  3 21  1 51 30.0000000  0  8G23G14G18G 3G17G15G31G 9
  22802263.242     6602561.80349   5137751.36946  22802262.682    22802270.173
       227.000         181.000
  20611895.580    -8880634.41849  -6717242.62448  20611895.342    20611900.376
       242.000         215.000
  21541620.616     5239752.65549   4074468.83547  21541620.616    21541625.512
       241.000         203.000
  21756328.988    -3155333.61449  -2453090.87447  21756329.157    21756335.446
       238.000         199.000
  22731573.913     6906147.79749   5250562.85446  22731573.569    22731582.420
       220.000         168.000
  20595216.301     1922605.86249   1495640.39848  20595215.759    20595222.255
       244.000         213.000
  22657090.401    -8014831.45949  -6230686.11346  22657090.313    22657096.164
       228.000         182.000
  23445402.937    -4354657.58149  -3316101.33045  23445402.586    23445410.186
       216.000         157.000
 03  3 21  1 52  0.0000000  0  8G23G14G18G 3G17G15G31G 9
  22813117.833     6659602.89849   5182198.96946  22813117.537    22813124.317
       227.000         181.000
  20602888.937    -8927964.45849  -6754123.15148  20602888.767    20602893.829
       242.000         215.000
  21551119.851     5289671.14649   4113366.35947  21551119.990    21551124.669
       241.000         203.000
  21759598.553    -3138151.99549  -2439702.60647  21759598.633    21759605.112
       238.000         200.000
  22746384.455     6983977.56249   5311209.36446  22746384.006    22746392.563
       217.000         167.000
  20602227.484     1959449.93349   1524350.05048  20602227.095    20602233.520
       244.000         213.000
  22650783.664    -8047973.91349  -6256511.37346  22650783.369    22650789.386
       227.000         182.000
  23446257.875    -4350164.62349  -3312600.29945  23446257.444    23446264.775
       212.000         156.000
 03  3 21  1 52 30.0000000  0  8G23G14G18G 3G17G15G31G 9
  22823977.132     6716668.96549   5226666.03046  22823977.159    22823983.398
       228.000         181.000
  20593980.285    -8974779.77649  -6790602.59948  20593979.954    20593985.124
       242.000         215.000
  21560643.878     5339720.07849   4152365.52947  21560643.707    21560648.658
       240.000         203.000
  21762970.975    -3120430.38549  -2425893.56747  21762970.669    21762977.335
       238.000         200.000
  22761252.224     7062108.44049   5372090.51046  22761251.793    22761260.542
       218.000         166.000
  20609317.277     1996706.99049   1553381.51548  20609316.797    20609323.373
       244.000         213.000
  22644582.405    -8080561.92149  -6281904.60546  22644581.442    22644588.643
       227.000         182.000
  23447223.106    -4345091.41649  -3308647.11745  23447223.225    23447230.361
       212.000         155.000
 03  3 21  1 53  0.0000000  0  8G23G14G18G 3G17G15G31G 9
  22834841.198     6773760.18549   5271152.68246  22834840.979    22834847.970
       228.000         181.000
  20585169.736    -9021079.23549  -6826680.07548  20585169.474    20585174.615
       242.000         215.000
  21570192.621     5389899.15249   4191466.11447  21570192.097    21570197.606
       240.000         203.000
  21766445.872    -3102169.62649  -2411664.41247  21766445.923    21766452.288
       238.000         200.000
  22776177.376     7140540.49149   5433206.32746  22776177.111    22776185.841
       218.000         167.000
  20616485.754     2034377.60549   1582735.23947  20616485.074    20616491.569
       243.000         212.000
  22638486.945    -8112594.21349  -6306864.80246  22638486.122    22638492.939
       228.000         182.000
  23448299.116    -4339437.19349  -3304241.19045  23448298.910    23448306.266
       213.000         155.000
 03  3 21  1 53 30.0000000  0  8G23G14G18G 3G17G15G31G 9
  22845709.889     6830875.84149   5315658.38946  22845709.564    22845716.638
       228.000         181.000
  20576457.525    -9066862.23649  -6862355.11748  20576457.085    20576462.348
       241.000         215.000
  21579765.948     5440207.51149   4230667.42647  21579765.549    21579771.054
       240.000         202.000
  21770023.158    -3083371.13949  -2397016.25847  21770023.107    21770030.029
       238.000         200.000
  22791159.746     7219272.75449   5494556.07346  22791159.868    22791168.810
       218.000         170.000
  20623732.921     2072461.66449   1612411.12047  20623732.407    20623739.130
       243.000         212.000
  22632497.242    -8144070.27249  -6331391.57046  22632496.689    22632503.300
       228.000         182.000
  23449485.684    -4333201.53449  -3299382.20645  23449486.598    23449492.875
       215.000         156.000
 03  3 21  1 54  0.0000000  0  8G23G14G18G 3G17G15G31G 9
  22856583.315     6888015.63249   5360182.88846  22856583.097    22856589.919
       227.000         181.000
  20567843.680    -9112127.94249  -6897627.07548  20567843.358    20567848.540
       242.000         215.000
  21589363.815     5490644.47949   4269968.96147  21589363.645    21589368.826
       240.000         202.000
  21773702.517    -3064036.08149  -2381949.98447  21773702.190    21773708.724
       237.000         200.000
  22806199.015     7298304.80749   5556139.40946  22806198.927    22806207.654
       216.000         169.000
  20631058.747     2110959.49949   1642409.41947  20631058.465    20631064.949
       243.000         212.000
  22626613.392    -8174989.35449  -6355484.34746  22626613.471    22626619.296
       229.000         182.000
  23450783.192    -4326383.89249  -3294069.73445  23450783.231    23450790.677
       214.000         157.000
 03  3 21  1 54 30.0000000  0  8G23G14G18G 3G17G15G31G 9
  22867461.146     6945179.05949   5404725.82946  22867461.006    22867467.933
       229.000         181.000
  20559328.476    -9156875.61149  -6932495.36148  20559328.173    20559333.153
       242.000         215.000
  21598985.930     5541209.22649   4309370.06547  21598985.663    21598990.830
       240.000         201.000
  21777483.693    -3044165.50549  -2366466.42047  21777483.502    21777490.207
       237.000         199.000
  22821295.157     7377635.92149   5617955.80346  22821295.426    22821303.147
       218.000         168.000
  20638463.475     2149871.28949   1672730.29347  20638463.039    20638469.644
       244.000         212.000
  22620835.742    -8205350.66749  -6379142.49146  22620835.002    22620841.689
       230.000         182.000
  23452191.214    -4318983.92149  -3288303.48245  23452191.326    23452198.660
       212.000         156.000
 03  3 21  1 55  0.0000000  0  8G23G14G18G 3G17G15G31G 9
  22878343.598     7002366.29349   5449287.29346  22878342.813    22878350.670
       227.000         180.000
  20550912.077    -9201104.25849  -6966959.22448  20550911.920    20550916.889
       242.000         215.000
  21608632.316     5591901.30049   4348870.38047  21608632.295    21608637.238
       240.000         201.000
  21781366.556    -3023760.47749  -2350566.40847  21781366.534    21781373.062
       237.000         199.000
  22836448.261     7457265.68149   5680004.92046  22836448.256    22836456.706
       219.000         166.000
  20645947.046     2189197.46449   1703374.04747  20645946.848    20645953.456
       244.000         212.000
  22615164.565    -8235153.10149  -6402365.14946  22615164.727    22615170.189
       230.000         182.000
  23453710.285    -4311000.90349  -3282082.92245  23453709.115    23453717.353
       211.000         155.000
 03  3 21  1 55 30.0000000  0  8G23G14G18G 3G17G15G31G 9
  22889230.326     7059576.91249   5493866.98746  22889229.896    22889236.909
       226.000         179.000
  20542594.563    -9244812.95649  -7001017.92348  20542594.238    20542599.418
       241.000         216.000
  21618302.792     5642719.96849   4388469.34347  21618302.491    21618307.767
       240.000         201.000
  21785351.069    -3002822.29449  -2334250.95147  21785351.195    21785357.629
       237.000         199.000
  22851657.928     7537192.96949   5742285.84946  22851657.657    22851666.273
       215.000         166.000
  20653509.410     2228937.99049   1734340.68347  20653508.903    20653515.238
       243.000         212.000
  22609599.872    -8264396.08149  -6425151.87446  22609599.410    22609604.762
       229.000         182.000
  23455340.329    -4302434.48549  -3275407.75845  23455340.616    23455347.966
       214.000         156.000
 03  3 21  1 56  0.0000000  0  8G23G14G18G 3G17G15G31G 9
  22900121.507     7116810.57449   5538464.65646  22900121.236    22900128.945
       228.000         180.000
  20534376.110    -9288001.07949  -7034670.97948  20534375.847    20534380.934
       242.000         216.000
  21627997.255     5693664.67649   4428166.52147  21627996.939    21628002.224
       240.000         202.000
  21789436.759    -2981351.88449  -2317520.76847  21789436.707    21789443.370
       237.000         199.000
  22866924.142     7617417.26449   5804798.20546  22866924.258    22866932.832
       215.000         164.000
  20661150.661     2269093.03749   1765630.32147  20661150.133    20661156.691
       243.000         212.000
  22604141.766    -8293078.69749  -6447501.95446  22604141.478    22604147.449
       228.000         182.000
  23457081.648    -4293284.14749  -3268277.60245  23457082.410    23457088.548
       214.000         157.000
 03  3 21  1 56 30.0000000  0  8G23G14G18G 3G17G15G31G 9
  22911016.930     7174066.36549   5583079.55046  22911016.953    22911024.049
       229.000         181.000
  20526256.727    -9330668.61149  -7067918.38348  20526256.478    20526261.392
       243.000         216.000
  21637715.421     5744734.08749   4467960.86947  21637714.952    21637720.207
       240.000         201.000
  21793623.386    -2959351.14649  -2300377.35047  21793623.189    21793629.801
       237.000         198.000
  22882246.719     7697937.63949   5867541.29346  22882247.520    22882255.067
       216.000         163.000
  20668870.645     2309662.02049   1797242.50947  20668870.239    20668876.681
       244.000         212.000
  22598790.154    -8321200.98649  -6469415.40646  22598789.584    22598796.040
       229.000         183.000
  23458933.936    -4283550.12449  -3260692.60345  23458933.538    23458941.586
       216.000         157.000
 03  3 21  1 57  0.0000000  0  8G23G14G18G 3G17G15G31G 9
  22921916.700     7231344.36149   5627711.74246  22921916.417    22921923.013
       227.000         180.000
  20518236.658    -9372814.46949  -7100759.29748  20518236.460    20518241.445
       242.000         216.000
  21647457.225     5795927.83749   4507852.09947  21647457.217    21647462.096
       240.000         201.000
  21797910.703    -2936821.00649  -2282821.41247  21797910.581    21797917.242
       237.000         198.000
  22897625.470     7778753.52849   5930514.64845  22897624.265    22897634.055
       217.000         162.000
  20676669.552     2350645.48049   1829177.65947  20676669.070    20676675.831
       243.000         212.000
  22593545.378    -8348761.85749  -6490891.38646  22593544.565    22593551.736
       226.000         183.000
  23460897.558    -4273231.73749  -3252652.27945  23460897.359    23460904.312
       213.000         158.000
 03  3 21  1 57 30.0000000  0  8G23G14G18G 3G17G15G31G 9
  22932820.580     7288644.43549   5672361.14546  22932820.559    22932827.131
       227.000         180.000
  20510315.921    -9414438.00149  -7133193.19348  20510315.674    20510320.597
       241.000         216.000
  21657222.659     5847245.42649   4547839.84047  21657222.537    21657227.533
       240.000         201.000
  21802298.498    -2913762.96049  -2264854.11447  21802298.613    21802305.104
       238.000         199.000
  22913060.476     7859864.58249   5993718.02045  22913060.308    22913068.933
       218.000         160.000
  20684547.363     2392043.49549   1861435.84647  20684546.806    20684554.051
       243.000         212.000
  22588407.416    -8375760.75549  -6511929.46146  22588407.141    22588413.425
       224.000         183.000
  23462972.280    -4262328.63049  -3244156.29545  23462972.642    23462979.804
       215.000         157.000
 03  3 21  1 58  0.0000000  0  8G23G14G18G 3G17G15G31G 9
  22943728.586     7345966.49149   5717027.68646  22943727.878    22943735.658
       226.000         180.000
  20502494.772    -9455538.28149  -7165219.36248  20502494.658    20502499.476
       242.000         216.000
  21667011.480     5898686.36249   4587923.68347  21667010.940    21667016.849
       238.000         200.000
  21806786.565    -2890178.19449  -2246476.38147  21806786.386    21806793.319
       237.000         199.000
  22928551.370     7941269.32749   6057150.25445  22928551.364    22928559.766
       215.000         161.000
  20692504.082     2433856.39049   1894017.30947  20692503.868    20692510.382
       243.000         212.000
  22583376.521    -8402196.74949  -6532528.90446  22583376.234    22583382.989
       224.000         182.000
  23465158.534    -4250840.28149  -3235204.30645  23465158.399    23465165.861
       216.000         158.000
 03  3 21  1 58 30.0000000  0  8G23G14G18G 3G17G15G31G 9
  22954640.606     7403310.22849   5761711.10346  22954640.173    22954646.874
       227.000         179.000
  20494773.343    -9496114.75649  -7196837.37748  20494773.114    20494778.054
       241.000         216.000
  21676823.687     5950250.16449   4628103.26147  21676823.897    21676828.977
       239.000         200.000
  21811374.648    -2866067.85849  -2227689.11647  21811374.889    21811381.255
       238.000         199.000
  22944098.092     8022967.48949   6120811.12746  22944097.372    22944106.507
       214.000         163.000
  20700539.860     2476084.30049   1926922.16847  20700539.355    20700546.032
       243.000         212.000
  22578453.136    -8428069.34549  -6552689.33846  22578453.312    22578459.513
       226.000         183.000
  23467456.151    -4238766.57449  -3225796.19245  23467456.248    23467463.591
       217.000         159.000
 03  3 21  1 59  0.0000000  0  8G23G14G18G 3G17G15G31G 9
  22965556.885     7460675.16349   5806411.04846  22965556.636    22965563.417
       226.000         179.000
  20487151.543    -9536167.12249  -7228046.98948  20487151.220    20487156.419
       241.000         216.000
  21686659.186     6001935.75049   4668377.74447  21686658.978    21686663.983
       238.000         200.000
  21816062.532    -2841433.23649  -2208493.30847  21816062.534    21816069.009
       237.000         199.000
  22959700.469     8104958.56549   6184700.25046  22959700.370    22959708.984
       215.000         163.000
  20708654.543     2518727.24449   1960150.42047  20708654.017    20708660.625
       243.000         211.000
  22573637.098    -8453378.21149  -6572410.50346  22573636.577    22573643.238
       226.000         184.000
  23469864.933    -4226107.58049  -3215932.01145  23469865.620    23469871.678
       216.000         159.000
 03  3 21  1 59 30.0000000  0  8G23G14G18G 3G17G15G31G 9
  22976476.947     7518060.51349   5851126.90046  22976476.606    22976484.005
       226.000         179.000
  20479629.609    -9575695.23249  -7258848.09248  20479629.518    20479634.351
       242.000         216.000
  21696517.551     6053742.17149   4708746.37447  21696517.114    21696522.676
       239.000         199.000
  21820849.745    -2816276.39249  -2188890.57747  21820849.650    21820855.978
       238.000         199.000
  22975358.269     8187240.97849   6248816.37245  22975357.691    22975366.965
       215.000         162.000
  20716848.072     2561784.54349   1993701.55547  20716847.495    20716853.974
       243.000         211.000
  22568928.363    -8478123.31749  -6591692.37546  22568928.336    22568935.024
       228.000         184.000
  23472385.165    -4212863.38749  -3205611.80545  23472384.596    23472393.585
       213.000         159.000
 03  3 21  2  0  0.0000000  0  8G23G14G18G 3G17G15G31G 9
  22987401.001     7575467.13849   5895859.31346  22987400.384    22987407.814
       225.000         179.000
  20472207.712    -9614697.45249  -7289239.41748  20472207.526    20472212.603
       242.000         217.000
  21706399.065     6105669.84649   4749209.49347  21706398.993    21706404.179
       238.000         200.000
  21825736.222    -2790597.65249  -2168881.19047  21825735.997    21825742.482
       237.000         198.000
  22991071.489     8269814.91549   6313159.64345  22991071.492    22991080.126
       215.000         162.000
  20725120.653     2605257.50449   2027576.56647  20725120.178    20725126.922
       243.000         211.000
  22564327.370    -8502302.81149  -6610533.51646  22564327.031    22564332.963
       228.000         184.000
  23475017.002    -4199032.64149  -3194834.56545  23475017.164    23475024.378
       215.000         160.000
 03  3 21  2  0 30.0000000  0  8G23G14G18G 3G17G15G31G 9
  22998329.025     7632894.17849   5940607.66046  22998328.988    22998335.662
       227.000         179.000
  20464885.919    -9653173.80449  -7319220.96448  20464885.515    20464890.643
       241.000         216.000
  21716303.410     6157717.41549   4789766.04847  21716302.966    21716308.484
       238.000         199.000
  21830721.641    -2764399.20149  -2148466.82347  21830721.936    21830728.039
       237.000         198.000
  23006840.195     8352678.66249   6377728.78445  23006840.336    23006848.264
       217.000         161.000
  20733472.213     2649145.14649   2061774.71947  20733471.706    20733478.507
       243.000         211.000
  22559833.697    -8525917.10549  -6628934.24746  22559833.712    22559839.968
       228.000         183.000
  23477760.292    -4184616.20049  -3183600.92645  23477760.535    23477767.530
       217.000         160.000
 03  3 21  2  1  0.0000000  0  8G23G14G18G 3G17G15G31G 9
  23009260.759     7690340.56449   5985371.07146  23009260.440    23009267.769
       226.000         179.000
  20457664.031    -9691124.87249  -7348793.20548  20457663.814    20457668.686
       242.000         217.000
  21726230.236     6209883.47349   4830414.92047  21726230.144    21726235.635
       238.000         199.000
  21835805.488    -2737683.24349  -2127649.20347  21835805.367    21835811.882
       236.000         198.000
  23022663.691     8435830.95549   6442522.75045  23022663.562    23022672.546
       216.000         160.000
  20741902.563     2693446.89049   2096295.54747  20741902.200    20741908.799
       243.000         211.000
  22555447.534    -8548966.55949  -6646894.84246  22555447.509    22555453.377
       228.000         184.000
  23480615.208    -4169614.46449  -3171911.23745  23480615.428    23480622.558
       217.000         161.000
 03  3 21  2  1 30.0000000  0  8G23G14G18G 3G17G15G31G 9
  23020196.358     7747807.58149   6030150.54846  23020196.360    23020203.492
       227.000         179.000
  20450542.549    -9728548.47849  -7377954.43648  20450542.334    20450547.216
       241.000         217.000
  21736179.857     6262168.99349   4871156.88247  21736179.596    21736185.020
       238.000         199.000
  21840987.819    -2710449.60349  -2106428.19947  21840987.669    21840994.328
       236.000         198.000
  23038542.025     8519272.32649   6507541.98045  23038541.050    23038550.459
       214.000         160.000
  20750411.976     2738164.26049   2131140.24047  20750411.569    20750418.271
       243.000         211.000
  22551169.147    -8571449.01749  -6664413.61946  22551168.541    22551175.436
       225.000         183.000
  23483581.467    -4154026.03549  -3159764.37045  23483581.125    23483588.026
       215.000         159.000
 03  3 21  2  2  0.0000000  0  8G23G14G18G 3G17G15G31G 9
  23031136.050     7805295.42449   6074946.27546  23031135.637    23031142.449
       225.000         178.000
  20443521.646    -9765443.46849  -7406703.75548  20443521.495    20443526.491
       242.000         217.000
  21746152.172     6314574.00149   4911991.95647  21746151.922    21746157.451
       238.000         198.000
  21846268.524    -2682699.40849  -2084804.68247  21846268.573    21846274.807
       236.000         197.000
  23054475.339     8603002.76849   6572786.44245  23054474.929    23054484.669
       215.000         160.000
  20759000.557     2783297.69149   2166309.13747  20759000.323    20759006.794
       244.000         211.000
  22546998.744    -8593363.60649  -6681489.90946  22546998.098    22547004.843
       225.000         182.000
  23486659.699    -4137850.25349  -3147159.82645  23486659.034    23486667.097
       215.000         159.000
 03  3 21  2  2 30.0000000  0  8G23G14G18G 3G17G15G31G 9
  23042079.162     7862802.14749   6119756.70746  23042079.171    23042085.858
       227.000         178.000
  20436601.141    -9801811.20549  -7435042.23248  20436600.906    20436605.858
       241.000         217.000
  21756146.751     6367095.79549   4952918.02247  21756146.883    21756151.902
       238.000         198.000
  21851646.846    -2654436.03649  -2062781.28847  21851646.550    21851653.132
       236.000         197.000
  23070463.138     8687019.67649   6638254.13845  23070463.071    23070471.904
       215.000         162.000
  20767668.041     2828845.36249   2201800.81947  20767667.563    20767674.238
       244.000         211.000
  22542936.301    -8614711.68749  -6698124.75146  22542935.700    22542942.682
       225.000         182.000
  23489849.136    -4121088.87449  -3134098.95145  23489848.226    23489856.197
       215.000         159.000
 03  3 21  2  3  0.0000000  0  8G23G14G18G 3G17G15G31G 9
  23053026.116     7920328.72049   6164582.60346  23053026.002    23053032.915
       225.000         179.000
  20429781.186    -9837650.31549  -7462968.79248  20429780.987    20429785.863
       241.000         217.000
  21766163.766     6419735.11049   4993935.66547  21766163.878    21766168.992
       238.000         199.000
  21857122.767    -2625659.71049  -2040358.19247  21857122.769    21857129.146
       236.000         197.000
  23086505.588     8771322.86649   6703944.92845  23086505.295    23086514.028
       215.000         161.000
  20776414.473     2874808.18649   2237615.99147  20776414.158    20776420.386
       243.000         210.000
  22538981.985    -8635491.84649  -6714317.05446  22538982.007    22538988.466
       225.000         183.000
  23493150.378    -4103740.57849  -3120580.78545  23493150.530    23493157.757
       218.000         161.000
 03  3 21  2  3 30.0000000  0  8G23G14G18G 3G17G15G31G 9
  23063976.816     7977875.13449   6209423.96246  23063977.001    23063983.332
       226.000         178.000
  20423061.944    -9872960.11849  -7490482.90248  20423061.829    20423066.709
       242.000         217.000
  21776203.025     6472491.74749   5035044.72747  21776202.818    21776208.107
       238.000         198.000
  21862696.149    -2596371.90049  -2017536.53447  21862695.941    21862702.304
       236.000         197.000
  23102602.493     8855911.78949   6769858.34945  23102601.692    23102611.217
       215.000         159.000
  20785240.003     2921186.30349   2273754.77047  20785239.568    20785246.119
       244.000         210.000
  22535135.820    -8655703.45949  -6730066.33546  22535135.430    22535142.450
       225.000         184.000
  23496563.256    -4085805.38549  -3106605.24745  23496563.428    23496570.570
       217.000         161.000
 03  3 21  2  4  0.0000000  0  8G23G14G18G 3G17G15G31G 9
  23074931.243     8035440.54549   6254280.12846  23074930.878    23074937.731
       225.000         178.000
  20416443.360    -9907741.01349  -7517584.87748  20416443.161    20416448.038
       241.000         217.000
  21786264.384     6525364.21649   5076244.05347  21786264.183    21786269.332
       239.000         198.000
  21868366.378    -2566574.75849  -1994317.98947  21868366.395    21868372.487
       236.000         197.000
  23118753.309     8940784.93149   6835993.23645  23118753.430    23118762.087
       215.000         157.000
  20794144.341     2967978.91249   2310216.53347  20794144.034    20794150.503
       244.000         210.000
  22531397.708    -8675346.98149  -6745372.94746  22531397.498    22531404.207
       226.000         183.000
  23500087.822    -4067284.08149  -3092173.04145  23500087.428    23500094.857
       216.000         161.000
 03  3 21  2  4 30.0000000  0  8G23G14G18G 3G17G15G31G 9
  23085889.254     8093025.54849   6299151.55446  23085889.042    23085896.167
       225.000         178.000
  20409925.619    -9941991.79549  -7544273.77048  20409925.283    20409930.208
       241.000         217.000
  21796347.839     6578352.99149   5117534.00947  21796347.313    21796352.552
       237.000         198.000
  21874133.298    -2536269.25949  -1970703.32247  21874133.532    21874139.469
       237.000         197.000
  23134958.361     9025942.21349   6902349.52645  23134957.842    23134966.246
       214.000         157.000
  20803127.715     3015186.85749   2347001.93847  20803127.195    20803133.849
       243.000         210.000
  22527767.959    -8694421.30649  -6760236.03446  22527767.671    22527774.182
       226.000         184.000
  23503723.847    -4048175.70649  -3077283.33445  23503724.090    23503732.015
       217.000         161.000
 03  3 21  2  5  0.0000000  0  8G23G14G18G 3G17G15G31G 9
  23096850.706     8150628.96049   6344037.32846  23096850.893    23096856.798
       225.000         177.000
  20403508.678    -9975713.05549  -7570550.05848  20403508.495    20403513.253
       242.000         217.000
  21806452.974     6631456.33749   5158913.23847  21806453.047    21806458.234
       238.000         198.000
  21879996.632    -2505457.93749  -1946694.49847  21879996.244    21880002.962
       237.000         197.000
  23151216.864     9111381.88449   6968925.87245  23151216.127    23151224.968
       214.000         156.000
  20812189.914     3062809.30749   2384110.32947  20812189.411    20812196.176
       244.000         210.000
  22524246.446    -8712926.99649  -6774656.03746  22524246.459    22524252.742
       228.000         184.000
  23507471.691    -4028481.66349  -3061937.31245  23507471.706    23507478.472
       216.000         162.000
 03  3 21  2  5 30.0000000  0  8G23G14G18G 3G17G15G31G 9
  23107815.932     8208251.59749   6388938.08546  23107815.622    23107822.828
       225.000         177.000
  20397192.710   -10008903.74049  -7596412.91048  20397192.527    20397197.222
       241.000         217.000
  21816580.143     6684674.70249   5200382.09347  21816579.886    21816585.347
       238.000         198.000
  21885955.962    -2474141.43449  -1922292.04047  21885955.638    21885962.530
       236.000         197.000
  23167529.088     9197103.60349   7035721.98645  23167529.003    23167537.436
       211.000         156.000
  20821331.169     3110846.71149   2421542.05847  20821330.893    20821337.477
       244.000         210.000
  22520833.480    -8730863.08749  -6788632.19646  22520833.172    22520840.225
       228.000         184.000
  23511330.807    -4008201.17349  -3046134.28545  23511331.114    23511337.148
       218.000         162.000
 03  3 21  2  6  0.0000000  0  8G23G14G18G 3G17G15G31G 9
  23118784.817     8265893.38349   6433853.75346  23118784.668    23118791.440
       225.000         177.000
  20390977.738   -10041563.46249  -7621862.02248  20390977.470    20390982.316
       242.000         217.000
  21826729.024     6738007.50249   5241940.11347  21826728.550    21826733.860
       238.000         197.000
  21892011.115    -2442321.35849  -1897497.18847  21892011.026    21892017.566
       237.000         197.000
  23183895.018     9283106.99149   7102737.59745  23183894.014    23183903.953
       213.000         157.000
  20830551.371     3159299.16349   2459297.19947  20830550.920    20830557.640
       244.000         210.000
  22517528.849    -8748229.06149  -6802164.10746  22517528.589    22517535.452
       229.000         184.000
  23515301.789    -3987334.15349  -3029874.22645  23515300.966    23515308.901
       216.000         162.000
 03  3 21  2  6 30.0000000  0  8G23G14G18G 3G17G15G31G 9
  23129757.059     8323553.26249   6478783.53346  23129756.203    23129763.710
       225.000         176.000
  20384863.733   -10073692.66149  -7646897.73748  20384863.563    20384868.230
       242.000         217.000
  21836899.458     6791453.37749   5283586.25347  21836899.699    21836904.164
       239.000         197.000
  21898161.692    -2410000.17949  -1872311.86147  21898161.358    21898168.120
       237.000         197.000
  23200314.150     9369389.98549   7169971.07545  23200313.467    23200322.549
       210.000         156.000
  20839850.381     3208165.45849   2497374.82747  20839849.852    20839856.727
       245.000         210.000
  22514332.599    -8765025.75049  -6815252.42346  22514332.472    22514338.533
       230.000         184.000
  23519383.857    -3965881.59749  -3013157.91045  23519384.559    23519390.469
       218.000         162.000
 03  3 21  2  7  0.0000000  0  8G23G14G18G 3G17G15G31G 9
  23140732.882     8381231.63949   6523727.71346  23140732.924    23140740.250
       224.000         176.000
  20378850.870   -10105290.57249  -7671519.47048  20378850.625    20378855.352
       242.000         218.000
  21847091.442     6845012.40749   5325320.56047  21847091.293    21847096.498
       239.000         196.000
  21904407.286    -2377179.01849  -1846736.95347  21904407.324    21904413.914
       236.000         197.000
  23216786.433     9455952.59149   7237422.42045  23216787.213    23216795.175
       214.000         157.000
  20849228.132     3257446.06349   2535775.28547  20849227.720    20849234.534
       244.000         210.000
  22511244.731    -8781252.46049  -6827896.59446  22511243.860    22511250.647
       228.000         184.000
  23523577.770    -3943843.16249  -2995985.07946  23523578.086    23523584.074
       217.000         163.000
 03  3 21  2  7 30.0000000  0  8G23G14G18G 3G17G15G31G 9
  23151712.266     8438928.53449   6568686.33946  23151712.403    23151718.771
       225.000         176.000
  20372939.063   -10136357.12649  -7695727.15048  20372938.628    20372943.698
       241.000         218.000
  21857304.838     6898684.16649   5367142.70747  21857304.503    21857309.852
       238.000         197.000
  21910747.787    -2343859.68449  -1820773.85147  21910747.485    21910754.044
       236.000         197.000
  23233311.708     9542793.32949   7305090.49945  23233311.653    23233320.218
       214.000         158.000
  20858684.777     3307140.92649   2574498.54647  20858684.373    20858690.970
       244.000         209.000
  22508265.320    -8796908.86549  -6840096.37246  22508265.392    22508271.518
       228.000         183.000
  23527882.829    -3921218.98249  -2978355.79346  23527882.086    23527890.767
       216.000         163.000
 03  3 21  2  8  0.0000000  0  8G23G14G18G 3G17G15G31G 9
  23162695.140     8496643.23049   6613658.84346  23162694.161    23162702.404
       224.000         176.000
  20367128.398   -10166892.33249  -7719520.79348  20367128.111    20367132.875
       241.000         218.000
  21867539.497     6952467.77349   5409052.00847  21867539.298    21867544.235
       237.000         196.000
  21917182.650    -2310044.58549  -1794424.43447  21917182.620    21917189.212
       236.000         196.000
  23249889.789     9629910.94249   7372974.31545  23249889.396    23249898.022
       215.000         158.000
  20868220.116     3357249.29149   2613544.01847  20868219.392    20868226.098
       244.000         209.000
  22505394.458    -8811995.45349  -6851852.14046  22505394.070    22505400.663
       228.000         183.000
  23532299.362    -3898009.76849  -2960270.66546  23532298.988    23532306.585
       216.000         163.000
 03  3 21  2  8 30.0000000  0  8G23G14G18G 3G17G15G31G 9
  23173681.238     8554375.75349   6658645.22946  23173680.715    23173687.680
       224.000         176.000
  20361418.872   -10196895.75149  -7742900.06348  20361418.623    20361423.286
       241.000         218.000
  21877795.440     7006362.75649   5451048.10347  21877795.497    21877800.197
       238.000         196.000
  21923711.533    -2275734.99249  -1767689.69547  21923711.440    21923717.510
       236.000         196.000
  23266520.371     9717305.15849   7441073.68345  23266520.023    23266528.749
       210.000         156.000
  20877834.042     3407771.17349   2652911.70347  20877833.766    20877839.888
       244.000         209.000
  22502632.042    -8826511.76549  -6863163.53546  22502631.123    22502638.764
       228.000         184.000
  23536827.032    -3874215.85149  -2941729.89346  23536826.424    23536834.882
       219.000         164.000
 03  3 21  2  9  0.0000000  0  8G23G14G18G 3G17G15G31G 9
  23184670.848     8612126.64749   6703645.92746  23184670.117    23184677.306
       225.000         176.000
  20355810.691   -10226366.75949  -7765864.46548  20355810.526    20355815.327
       242.000         218.000
  21888072.580     7060369.39249   5493131.19847  21888072.323    21888077.828
       237.000         196.000
  21930334.254    -2240932.18749  -1740570.63047  21930333.886    21930340.838
       235.000         196.000
  23283203.192     9804974.98249   7509387.81245  23283203.204    23283212.138
       211.000         155.000
  20887526.862     3458706.87949   2692601.86047  20887526.057    20887533.045
       243.000         209.000
  22499978.276    -8840457.21349  -6874030.11046  22499978.229    22499984.387
       229.000         185.000
  23541466.332    -3849836.99649  -2922733.35146  23541466.252    23541473.450
       218.000         165.000
 03  3 21  2  9 30.0000000  0  8G23G14G18G 3G17G15G31G 9
  23195663.924     8669895.75749   6748660.82846  23195662.757    23195670.551
       225.000         176.000
  20350303.926   -10255305.23149  -7788413.90348  20350303.758    20350308.472
       242.000         218.000
  21898370.730     7114486.84649   5535300.64347  21898370.524    21898375.391
       237.000         196.000
  21937050.398    -2205638.01349  -1713068.69047  21937050.106    21937056.919
       235.000         196.000
  23299938.578     9892919.73949   7577916.15245  23299939.058    23299947.933
       212.000         155.000
  20897298.270     3510056.41349   2732614.47347  20897297.852    20897304.573
       244.000         209.000
  22497433.143    -8853831.67949  -6884451.75546  22497433.321    22497439.595
       228.000         185.000
  23546216.794    -3824873.34149  -2903281.10346  23546216.793    23546223.488
       219.000         165.000
 03  3 21  2 10  0.0000000  0  8G23G14G18G 3G17G15G31G 9
  23206660.327     8727682.45549   6793689.40946  23206660.074    23206667.547
       225.000         176.000
  20344898.407   -10283711.62049  -7810548.73248  20344898.080    20344902.922
       242.000         218.000
  21908689.806     7168714.16049   5577555.69347  21908689.740    21908694.347
       237.000         196.000
  21943859.794    -2169854.77349  -1685185.65647  21943859.832    21943866.407
       235.000         196.000
  23316726.053     9981137.57249   7646657.28045  23316725.817    23316734.279
       213.000         155.000
  20907148.379     3561818.73449   2772948.73947  20907147.953    20907154.797
       243.000         209.000
  22494996.530    -8866635.92149  -6894429.07946  22494996.158    22495002.725
       228.000         184.000
  23551078.282    -3799326.02149  -2883374.05946  23551077.868    23551084.433
       216.000         163.000
 03  3 21  2 10 30.0000000  0  8G23G14G18G 3G17G15G31G 9
  23217660.246     8785486.61049   6838731.62846  23217659.789    23217667.061
       226.000         176.000
  20339594.043   -10311585.94649  -7832268.96748  20339593.732    20339598.414
       242.000         218.000
  21919029.696     7223050.74149   5619895.89147  21919029.312    21919034.803
       237.000         195.000
  21950761.794    -2133584.40149  -1656923.03647  21950761.684    21950768.690
       235.000         196.000
  23333565.131    10069627.44049   7715610.41245  23333563.990    23333573.308
       210.000         154.000
  20917076.924     3613993.59349   2813604.46647  20917076.599    20917083.293
       244.000         209.000
  22492668.574    -8878869.85749  -6903961.98946  22492667.880    22492674.447
       228.000         183.000
  23556050.693    -3773195.36049  -2863012.45646  23556050.975    23556057.552
       219.000         164.000
 03  3 21  2 11  0.0000000  0  8G23G14G18G 3G17G15G31G 9
  23228663.417     8843308.59249   6883787.72746  23228662.981    23228669.461
       224.000         176.000
  20334391.103   -10338927.52049  -7853574.07248  20334390.984    20334395.798
       241.000         218.000
  21929390.369     7277496.63549   5662321.25147  21929390.619    21929395.504
       237.000         195.000
  21957756.261    -2096828.07749  -1628281.75847  21957756.292    21957762.848
       235.000         196.000
  23350455.823    10158388.98249   7784775.21245  23350454.986    23350463.688
       210.000         152.000
  20927084.019     3666581.28149   2854581.86847  20927083.641    20927090.459
       241.000         208.000
  22490449.169    -8890533.00749  -6913050.14146  22490448.726    22490455.393
       228.000         183.000
  23561134.272    -3746481.17549  -2842196.18346  23561134.016    23561141.132
       219.000         165.000
 03  3 21  2 11 30.0000000  0  8G23G14G18G 3G17G15G31G 9
  23239669.814     8901148.07949   6928857.45946  23239669.052    23239675.767
       225.000         175.000
  20329289.509   -10365736.50049  -7874464.16448  20329289.176    20329294.063
       242.000         218.000
  21939771.830     7332051.42749   5704831.48847  21939771.532    21939776.938
       237.000         195.000
  21964842.816    -2059587.94849  -1599263.48447  21964842.846    21964849.305
       236.000         196.000
  23367398.001    10247421.10449   7854150.86845  23367397.817    23367406.932
       210.000         152.000
  20937169.584     3719581.13849   2895880.45347  20937168.900    20937175.911
       242.000         208.000
  22488338.137    -8901625.47549  -6921693.60646  22488338.008    22488344.420
       227.000         182.000
  23566328.598    -3719184.25449  -2820925.79446  23566328.460    23566335.302
       217.000         164.000
 03  3 21  2 12  0.0000000  0  8G23G14G18G 3G17G15G31G 9
  23250679.622     8959004.96649   6973940.74846  23250679.829    23250685.858
       225.000         175.000
  20324289.276   -10392012.77249  -7894939.16948  20324288.968    20324293.691
       242.000         218.000
  21950173.887     7386714.77749   5747426.31047  21950173.791    21950178.906
       237.000         195.000
  21972021.096    -2021865.90149  -1569869.69147  21972021.436    21972027.704
       236.000         196.000
  23384391.562    10336723.06149   7923736.79045  23384391.103    23384400.420
       212.000         155.000
  20947333.517     3772992.97249   2937500.04847  20947333.123    20947340.012
       242.000         208.000
  22486335.779    -8912147.45949  -6929892.55446  22486335.424    22486341.685
       228.000         182.000
  23571633.697    -3691304.99149  -2799201.64945  23571633.138    23571640.787
       216.000         162.000
 03  3 21  2 12 30.0000000  0  8G23G14G18G 3G17G15G31G 9
  23261692.847     9016879.70449   7019037.96646  23261692.915    23261699.777
       225.000         175.000
  20319390.493   -10417755.89449  -7914998.72548  20319390.119    20319394.928
       241.000         218.000
  21960596.607     7441486.37149   5790105.47247  21960596.585    21960601.621
       237.000         195.000
  21979290.772    -1983663.45949  -1540101.56047  21979290.564    21979297.271
       236.000         196.000
  23401436.369    10426293.68349   7993532.04645  23401436.073    23401445.101
       213.000         156.000
  20957575.845     3826816.94549   2979440.79647  20957575.442    20957582.330
       241.000         208.000
  22484442.193    -8922098.58849  -6937646.67046  22484442.265    22484448.170
       229.000         182.000
  23577049.596    -3662843.46849  -2777023.80246  23577050.268    23577057.323
       219.000         163.000
 03  3 21  2 13  0.0000000  0  8G23G14G18G 3G17G15G31G 9
  23272709.201     9074770.92549   7064148.01346  23272709.149    23272715.542
       225.000         175.000
  20314592.845   -10442967.39549  -7934644.03248  20314592.570    20314597.240
       241.000         218.000
  21971039.628     7496364.53949   5832867.67547  21971039.466    21971044.227
       237.000         195.000
  21986651.271    -1944984.01849  -1509961.74947  21986651.518    21986657.814
       236.000         196.000
  23418531.965    10516130.50449   8063534.72445  23418532.397    23418540.801
       211.000         156.000
  20967896.352     3881051.29149   3021701.31647  20967896.188    20967902.574
       242.000         208.000
  22482656.995    -8931480.46949  -6944957.21346  22482656.821    22482663.237
       231.000         183.000
  23582576.098    -3633801.78849  -2754393.89146  23582575.653    23582583.010
       217.000         164.000
 03  3 21  2 13 30.0000000  0  8G23G14G18G 3G17G15G31G 9
  23283728.799     9132679.22749   7109271.37246  23283728.110    23283734.713
       223.000         174.000
  20309896.579   -10467646.39649  -7953874.40648  20309896.441    20309901.176
       241.000         218.000
  21981502.978     7551349.52449   5875713.12847  21981502.702    21981507.627
       236.000         194.000
  21994102.316    -1905828.63149  -1479451.07447  21994102.290    21994108.898
       236.000         195.000
  23435678.194    10606233.70049   8133744.95445  23435677.708    23435686.244
       211.000         156.000
  20978294.989     3935696.37749   3064281.88847  20978294.609    20978301.247
       241.000         208.000
  22480980.335    -8940292.39149  -6951823.62646  22480979.871    22480985.731
       229.000         184.000
  23588213.040    -3604179.63049  -2731311.64746  23588213.400    23588219.769
       217.000         163.000
 03  3 21  2 14  0.0000000  0  8G23G14G18G 3G17G15G31G 9
  23294751.532     9190604.70249   7154408.11146  23294751.029    23294758.508
       223.000         173.000
  20305301.690   -10491792.92149  -7972689.86548  20305301.462    20305306.161
       242.000         219.000
  21991986.513     7606441.02949   5918641.58647  21991986.145    21991991.860
       237.000         194.000
  22001643.560    -1866198.91549  -1448570.79847  22001643.479    22001649.703
       235.000         195.000
  23452874.743    10696602.18549   8204161.91145  23452874.073    23452883.174
       209.000         155.000
  20988771.804     3990751.92749   3107182.30547  20988771.156    20988777.711
       242.000         207.000
  22479411.801    -8948534.45049  -6958246.00046  22479411.357    22479417.645
       229.000         184.000
  23593960.370    -3573977.39149  -2707777.38046  23593960.841    23593968.094
       219.000         163.000
 03  3 21  2 14 30.0000000  0  8G23G14G18G 3G17G15G31G 9
  23305777.717     9248548.23749   7199558.91646  23305777.516    23305784.665
       223.000         173.000
  20300808.239   -10515406.23049  -7991089.82748  20300807.963    20300812.768
       242.000         219.000
  22002490.320     7661639.33549   5961653.25947  22002490.183    22002495.035
       237.000         194.000
  22009274.956    -1826096.13149  -1417321.90047  22009274.816    22009281.614
       236.000         195.000
  23470121.592    10787235.39649   8274785.15945  23470121.493    23470130.267
       211.000         156.000
  20999326.783     4046218.73749   3150403.18047  20999326.219    20999333.001
       242.000         207.000
  22477951.904    -8956205.97649  -6964223.79146  22477951.338    22477958.476
       229.000         185.000
  23599818.061    -3543194.96849  -2683791.02546  23599817.406    23599824.448
       219.000         163.000
 03  3 21  2 15  0.0000000  0  8G23G14G18G 3G17G15G31G 9
  23316807.374     9306509.14949   7244723.28246  23316807.300    23316813.795
       223.000         172.000
  20296416.115   -10538486.98549  -8009074.81348  20296416.004    20296420.548
       242.000         219.000
  22013014.402     7716943.49149   6004747.41547  22013013.948    22013019.344
       236.000         194.000
  22016995.788    -1785523.00549  -1385706.49247  22016995.731    22017002.078
       235.000         194.000
  23487418.466    10878131.54049   8345613.29945  23487418.139    23487427.935
       212.000         154.000
  21009959.751     4102095.49049   3193943.49547  21009959.408    21009966.130
       241.000         207.000
  22476600.409    -8963307.86349  -6969757.72046  22476600.293    22476606.654
       229.000         185.000
  23605785.939    -3511833.61849  -2659353.56645  23605785.555    23605792.756
       217.000         162.000
 03  3 21  2 15 30.0000000  0  8G23G14G18G 3G17G15G31G 9
  23327840.414     9364487.78349   7289901.44846  23327840.172    23327847.448
       223.000         172.000
  20292125.363   -10561034.97449  -8026644.65848  20292125.074    20292129.903
       241.000         219.000
  22023558.538     7772353.42049   6047923.99047  22023558.068    22023563.318
       236.000         194.000
  22024805.742    -1744481.22249  -1353725.90747  22024805.804    22024812.346
       235.000         194.000
  23504765.312    10969290.15449   8416645.95845  23504764.520    23504774.176
       212.000         153.000
  21020670.767     4158382.16649   3237803.22947  21020670.303    21020676.795
       241.000         207.000
  22475357.430    -8969839.98749  -6974847.67146  22475357.474    22475364.156
       229.000         185.000
  23611863.714    -3479893.59549  -2634465.20245  23611864.326    23611870.551
       217.000         160.000
 03  3 21  2 16  0.0000000  0  8G23G14G18G 3G17G15G31G 9
  23338876.454     9422483.07149   7335092.58546  23338876.492    23338883.163
       221.000         171.000
  20287935.714   -10583051.36549  -8043800.26948  20287935.415    20287940.293
       241.000         219.000
  22034122.547     7827867.77049   6091181.93647  22034122.484    22034127.515
       237.000         194.000
  22032704.391    -1702974.05149  -1321382.67247  22032704.406    22032710.904
       236.000         194.000
  23522161.682    11060708.88549   8487881.31545  23522161.986    23522170.092
       211.000         152.000
  21031459.482     4215077.21849   3281981.17647  21031459.204    21031465.750
       241.000         207.000
  22474222.591    -8975803.69449  -6979494.70746  22474221.980    22474228.475
       228.000         184.000
  23618051.447    -3447376.42949  -2609127.11045  23618051.293    23618058.180
       216.000         160.000
 03  3 21  2 16 30.0000000  0  8G23G14G18G 3G17G15G31G 9
  23349915.906     9480495.79549   7380297.31946  23349915.540    23349922.875
       223.000         171.000
  20283847.395   -10604535.54549  -8060541.17448  20283847.265    20283851.996
       242.000         219.000
  22044706.521     7883486.88649   6134521.51947  22044706.327    22044711.567
       236.000         193.000
  22040691.372    -1661002.30149  -1288677.43447  22040691.267    22040697.563
       236.000         194.000
  23539607.637    11152387.77849   8559319.38045  23539607.599    23539615.879
       211.000         151.000
  21042326.083     4272181.29949   3326477.84947  21042325.331    21042332.033
       241.000         206.000
  22473195.841    -8981198.41549  -6983698.38746  22473195.700    22473202.023
       228.000         183.000
  23624349.033    -3414282.05149  -2583339.25845  23624348.764    23624356.732
       216.000         161.000
 03  3 21  2 17  0.0000000  0  8G23G14G18G 3G17G15G31G 9
  23360958.723     9538525.98649   7425515.65746  23360958.695    23360964.599
       224.000         171.000
  20279860.379   -10625487.58949  -8076867.43248  20279860.145    20279864.845
       241.000         219.000
  22055310.344     7939210.33849   6177942.39447  22055310.166    22055315.527
       236.000         193.000
  22048766.326    -1618568.32449  -1255612.01547  22048766.297    22048772.564
       235.000         194.000
  23557102.875    11244325.23149   8630958.92045  23557103.397    23557110.812
       210.000         150.000
  21053270.303     4329693.84549   3371292.80447  21053270.064    21053276.469
       241.000         206.000
  22472277.498    -8986024.51449  -6987458.98546  22472277.496    22472283.159
       229.000         183.000
  23630756.289    -3380611.42349  -2557102.38045  23630756.198    23630763.251
       215.000         158.000
 03  3 21  2 17 30.0000000  0  8G23G14G18G 3G17G15G31G 9
  23372004.665     9596572.75949   7470746.91646  23372004.008    23372011.243
       222.000         170.000
  20275974.382   -10645908.36149  -8092779.70648  20275974.145    20275979.017
       241.000         219.000
  22065933.829     7995037.16849   6221443.82947  22065933.972    22065938.818
       236.000         193.000
  22056928.719    -1575674.80549  -1222188.52447  22056928.506    22056935.281
       235.000         193.000
  23574646.945    11336519.79749   8702798.79945  23574646.922    23574655.505
       212.000         150.000
  21064292.124     4387613.73749   3416425.17247  21064291.604    21064298.534
       240.000         206.000
  22471467.121    -8990282.99449  -6990777.27646  22471467.307    22471473.259
       229.000         183.000
  23637273.133    -3346365.97349  -2530417.58745  23637273.056    23637280.264
       216.000         157.000
 03  3 21  2 18  0.0000000  0  8G23G14G18G 3G17G15G31G 9
  23383053.861     9654637.20149   7515991.94546  23383053.519    23383060.910
       222.000         171.000
  20272189.674   -10665797.17949  -8108277.47348  20272189.565    20272194.267
       241.000         219.000
  22076577.128     8050968.10649   6265026.39047  22076577.084    22076582.440
       237.000         193.000
  22065178.218    -1532322.92349  -1188407.85947  22065178.255    22065184.335
       234.000         193.000
  23592239.856    11428970.94849   8774838.61345  23592239.073    23592247.822
       210.000         150.000
  21075391.452     4445941.41549   3461875.28647  21075391.090    21075397.676
       240.000         206.000
  22470764.874    -8993973.29249  -6993652.82846  22470765.403    22470770.474
       229.000         184.000
  23643899.433    -3311545.59149  -2503284.78745  23643900.538    23643906.460
       216.000         157.000
 03  3 21  2 18 30.0000000  0  8G23G14G18G 3G17G15G31G 9
  23394106.393     9712719.12649   7561250.58146  23394106.447    23394113.684
       224.000         171.000
  20268506.122   -10685154.48749  -8123361.07448  20268505.865    20268510.665
       241.000         219.000
  22087239.997     8107002.12049   6308689.26847  22087239.772    22087244.866
       236.000         192.000
  22073514.605    -1488514.92949  -1154271.77747  22073514.374    22073521.206
       235.000         193.000
  23609881.328    11521677.62549   8847077.57145  23609881.079    23609889.701
       212.000         150.000
  21086568.341     4504676.09249   3507642.56047  21086567.893    21086574.836
       240.000         205.000
  22470170.596    -8997095.99749  -6996086.09146  22470170.405    22470176.407
       230.000         184.000
  23650634.691    -3276151.07949  -2475704.60945  23650634.836    23650641.333
       215.000         157.000
 03  3 21  2 19  0.0000000  0  8G23G14G18G 3G17G15G31G 9
  23405162.451     9770818.62149   7606522.92946  23405162.343    23405168.545
       222.000         170.000
  20264923.516   -10703980.78349  -8138030.90048  20264923.076    20264928.004
       241.000         219.000
  22097922.490     8163138.97449   6352432.28047  22097922.397    22097927.249
       237.000         193.000
  22081937.375    -1444252.93449  -1119781.93747  22081937.673    22081944.157
       235.000         193.000
  23627571.190    11614638.55149   8919514.61745  23627571.383    23627580.724
       211.000         151.000
  21097822.427     4563817.25349   3553726.56447  21097821.862    21097828.952
       240.000         205.000
  22469684.260    -8999651.74449  -6998077.56846  22469684.231    22469690.257
       229.000         184.000
  23657478.977    -3240183.44449  -2447677.85545  23657478.888    23657487.085
       214.000         157.000
 03  3 21  2 19 30.0000000  0  8G23G14G18G 3G17G15G31G 9
  23416221.715     9828935.53049   7651808.85046  23416220.638    23416228.077
       221.000         170.000
  20261441.949   -10722276.29849  -8152287.13448  20261441.826    20261446.586
       241.000         219.000
  22108624.531     8219378.33449   6396255.16247  22108624.748    22108629.383
       237.000         192.000
  22090446.142    -1399539.40149  -1084940.24347  22090446.052    22090452.656
       236.000         193.000
  23645309.249    11707852.26149   8992148.61445  23645310.192    23645319.176
       209.000         150.000
  21109153.911     4623364.34749   3600126.88147  21109153.897    21109160.518
       241.000         205.000
  22469305.800    -9001640.96249  -6999627.60446  22469305.384    22469311.400
       230.000         184.000
  23664432.044    -3203643.83449  -2419205.40345  23664431.375    23664438.250
       212.000         155.000
 03  3 21  2 20  0.0000000  0  8G23G14G18G 3G17G15G31G 9
  23427284.122     9887069.28849   7697107.87746  23427283.969    23427290.769
       222.000         170.000
  20258061.310   -10740041.80449  -8166130.37448  20258061.126    20258065.948
       241.000         219.000
  22119345.862     8275719.03849   6440157.02047  22119345.476    22119350.992
       235.000         192.000
  22099040.237    -1354377.09049  -1049748.84347  22099040.323    22099046.781
       235.000         193.000
  23663095.117    11801316.94449   9064978.20245  23663095.170    23663103.418
       209.000         149.000
  21120562.416     4683316.24449   3646842.62847  21120561.809    21120568.972
       239.000         205.000
  22469034.941    -9003064.73749  -7000737.02046  22469034.311    22469040.737
       230.000         184.000
  23671493.592    -3166533.45449  -2390288.20345  23671493.946    23671501.309
       213.000         153.000
 03  3 21  2 20 30.0000000  0  8G23G14G18G 3G17G15G31G 9
  23438350.140     9945221.36249   7742421.19046  23438350.238    23438356.899
       223.000         171.000
  20254781.701   -10757276.23849  -8179559.79148  20254781.576    20254786.328
       240.000         219.000
  22130086.589     8332162.42849   6484138.89247  22130086.410    22130091.691
       234.000         191.000
  22107719.620    -1308766.30049  -1014207.99647  22107719.584    22107726.071
       235.000         193.000
  23680928.621    11895032.88649   9138003.57545  23680929.284    23680936.845
       208.000         146.000
  21132048.094     4743674.03249   3693874.64747  21132047.728    21132054.471
       240.000         204.000
  22468871.864    -9003921.90549  -7001404.93846  22468871.914    22468877.322
       229.000         184.000
  23678664.434    -3128851.77549  -2360925.82545  23678664.082    23678671.285
       212.000         154.000
 03  3 21  2 21  0.0000000  0  8G23G14G18G 3G17G15G31G 9
  23449419.430    10003390.11249   7787747.49146  23449418.815    23449425.924
       222.000         170.000
  20251602.772   -10773981.56549  -8192576.91248  20251602.517    20251607.212
       241.000         219.000
  22140846.465     8388706.48449   6528199.20847  22140846.321    22140851.304
       236.000         191.000
  22116483.715    -1262711.23149   -978320.94547  22116483.807    22116490.172
       236.000         193.000
  23698809.655    11988997.19349   9211222.49145  23698808.606    23698818.229
       209.000         145.000
  21143610.579     4804435.28449   3741221.07147  21143609.883    21143616.920
       239.000         204.000
  22468816.000    -9004214.83549  -7001633.18546  22468816.152    22468822.378
       228.000         185.000
  23685943.235    -3090601.64649  -2331120.50245  23685944.032    23685949.967
       215.000         154.000
 03  3 21  2 21 30.0000000  0  8G23G14G18G 3G17G15G31G 9
  23460492.002    10061576.65849   7833087.66446  23460491.470    23460499.194
       222.000         170.000
  20248524.688   -10790157.02149  -8205181.15248  20248524.638    20248529.211
       241.000         219.000
  22151625.750     8445351.83249   6572338.45147  22151625.239    22151630.868
       235.000         191.000
  22125332.081    -1216212.98749   -942088.55947  22125332.001    22125338.774
       235.000         192.000
  23716738.044    12083210.01749   9284635.03445  23716738.264    23716745.747
       210.000         146.000
  21155249.900     4865600.67649   3788882.40247  21155249.655    21155256.330
       240.000         204.000
  22468867.738    -9003942.89949  -7001421.28546  22468867.357    22468874.549
       228.000         186.000
  23693330.357    -3051782.97249  -2300872.15745  23693328.970    23693337.674
       209.000         152.000
 03  3 21  2 22  0.0000000  0  8G23G14G18G 3G17G15G31G 9
  23471567.877    10119781.27849   7878441.91246  23471566.942    23471574.560
       222.000         169.000
  20245547.370   -10805803.03749  -8217372.83948  20245547.009    20245551.837
       241.000         219.000
  22162424.205     8502098.36749   6616556.53047  22162424.063    22162429.170
       236.000         191.000
  22134264.368    -1169273.61349   -905512.44547  22134263.868    22134270.552
       234.000         192.000
  23734713.054    12177670.11149   9358240.29045  23734712.530    23734721.243
       207.000         144.000
  21166966.224     4927169.64749   3836858.21647  21166965.994    21166972.721
       240.000         204.000
  22469026.822    -9003106.61849  -7000769.62946  22469026.906    22469033.053
       229.000         186.000
  23700824.990    -3012396.33349  -2270181.24545  23700825.400    23700831.512
       213.000         150.000
 03  3 21  2 22 30.0000000  0  8G23G14G18G 3G17G15G31G 9
  23482647.280    10178004.13449   7923810.37846  23482647.212    23482654.727
       221.000         169.000
  20242670.660   -10820919.95749  -8229152.24048  20242670.321    20242675.103
       240.000         219.000
  22173241.922     8558945.76449   6660853.20847  22173241.984    22173246.806
       235.000         191.000
  22143280.188    -1121895.29849   -868594.30647  22143280.186    22143286.839
       235.000         192.000
  23752734.927    12272376.14349   9432037.16245  23752734.434    23752744.510
       207.000         142.000
  21178759.117     4989141.84349   3885148.21247  21178758.780    21178765.539
       240.000         204.000
  22469293.248    -9001706.64449  -6999678.74246  22469293.572    22469299.413
       230.000         186.000
  23708428.041    -2972442.87649  -2239048.67245  23708427.177    23708435.894
       213.000         152.000
 03  3 21  2 23  0.0000000  0  8G23G14G18G 3G17G15G31G 9
  23493730.044    10236244.35349   7969192.36646  23493729.250    23493736.732
       220.000         168.000
  20239894.376   -10835509.10249  -8240520.38948  20239894.333    20239898.972
       241.000         219.000
  22184078.636     8615892.96549   6705227.66347  22184078.582    22184083.297
       235.000         190.000
  22152378.936    -1074081.25849   -831336.62647  22152378.857    22152385.628
       234.000         191.000
  23770803.199    12367326.02949   9506024.06445  23770802.566    23770812.402
       206.000         142.000
  21190628.545     5051515.66849   3933751.18247  21190628.193    21190634.923
       240.000         204.000
  22469666.813    -8999744.36249  -6998149.68346  22469666.334    22469672.501
       230.000         185.000
  23716138.312    -2931924.52749  -2207475.88745  23716138.319    23716145.285
       212.000         151.000
 03  3 21  2 23 30.0000000  0  8G23G14G18G 3G17G15G31G 9
  23504816.182    10294502.74849   8014588.51946  23504815.665    23504823.285
       222.000         168.000
  20237218.675   -10849570.00749  -8251476.92248  20237218.415    20237223.114
       241.000         219.000
  22194934.406     8672940.20549   6749680.06047  22194934.217    22194940.137
       236.000         191.000
  22161560.233    -1025832.94849   -793740.56147  22161559.821    22161566.960
       232.000         191.000
  23788917.876    12462519.47049   9580200.75045  23788918.125    23788925.928
       210.000         143.000
  21202574.383     5114291.19749   3982667.16347  21202573.993    21202580.711
       240.000         203.000
  22470147.239    -8997219.72149  -6996182.43246  22470146.841    22470153.247
       231.000         185.000
  23723956.162    -2890841.44849  -2175463.07145  23723955.797    23723962.777
       212.000         150.000
 03  3 21  2 24  0.0000000  0  8G23G14G18G 3G17G15G31G 9
  23515905.836    10352779.70949   8059999.13346  23515905.467    23515912.257
       222.000         168.000
  20234643.402   -10863103.14649  -8262022.20648  20234643.378    20234647.971
       241.000         219.000
  22205809.205     8730087.39849   6794210.34947  22205808.319    22205814.266
       234.000         190.000
  22170823.746     -977152.61149   -755807.85247  22170824.068    22170830.015
       233.000         190.000
  23807078.640    12557955.04849   9654566.12045  23807077.573    23807088.018
       208.000         144.000
  21214596.548     5177468.05649   4031895.86747  21214596.630    21214602.537
       240.000         203.000
  22470734.539    -8994133.15849  -6993777.31246  22470734.075    22470740.632
       229.000         186.000
  23731881.215    -2849194.61149  -2143010.97845  23731881.710    23731888.390
       214.000         150.000
 03  3 21  2 24 30.0000000  0  8G23G14G18G 3G17G15G31G 9
  23526999.107    10411074.95849   8105424.00646  23526997.818    23527005.624
       220.000         167.000
  20232168.517   -10876109.06149  -8272156.67348  20232168.501    20232172.898
       242.000         219.000
  22216702.735     8787334.01949   6838818.11047  22216702.267    22216707.997
       234.000         190.000
  22180169.088     -928042.58149   -717540.32247  22180169.078    22180175.550
       233.000         190.000
  23825285.226    12653631.64049   9729119.26145  23825284.898    23825293.957
       208.000         146.000
  21226694.978     5241045.18849   4081436.48447  21226694.455    21226701.025
       239.000         203.000
  22471428.587    -8990485.67449  -6990935.11146  22471428.244    22471434.653
       229.000         186.000
  23739913.341    -2806985.34549  -2110120.62645  23739913.150    23739919.814
       213.000         150.000
 03  3 21  2 25  0.0000000  0  8G23G14G18G 3G17G15G31G 9
  23538095.923    10469388.74749   8150863.31746  23538095.506    23538101.754
       221.000         167.000
  20229793.823   -10888588.19349  -8281880.65448  20229793.515    20229798.398
       241.000         219.000
  22227615.316     8844679.98749   6883503.28847  22227614.952    22227620.345
       234.000         189.000
  22189595.665     -878505.25249   -678939.85047  22189596.022    22189602.699
       233.000         190.000
  23843537.520    12749547.90849   9803859.19245  23843536.833    23843546.847
       209.000         147.000
  21238869.336     5305022.15349   4131288.64647  21238868.787    21238875.833
       240.000         203.000
  22472229.261    -8986277.68749  -6987656.15246  22472229.139    22472235.577
       229.000         186.000
  23748052.312    -2764214.69249  -2076792.79845  23748052.485    23748058.863
       215.000         150.000
 03  3 21  2 25 30.0000000  0  8G23G14G18G 3G17G15G31G 9
  23549196.059    10527720.37649   8196316.53446  23549195.561    23549203.253
       220.000         167.000
  20227519.085   -10900541.70449  -8291195.06148  20227518.750    20227523.616
       241.000         219.000
  22238546.584     8902124.15349   6928264.97047  22238546.495    22238551.517
       234.000         189.000
  22199103.064     -828543.59549   -640008.71047  22199103.101    22199109.755
       233.000         190.000
  23861834.909    12845701.82949   9878784.30345  23861834.216    23861843.426
       200.000         145.000
  21251119.572     5369397.54149   4181451.27747  21251119.086    21251125.716
       240.000         203.000
  22473136.371    -8981510.91149  -6983941.77446  22473136.761    22473142.507
       230.000         186.000
  23756297.922    -2720884.49049  -2043028.97945  23756297.378    23756304.335
       214.000         151.000
 03  3 21  2 26  0.0000000  0  9G23G14G18G 3G17G25G15G31G 9
  23560299.063    10586068.00949   8241782.21746  23560298.015    23560305.993
       220.000         167.000
  20225343.938   -10911972.16949  -8300101.90648  20225343.906    20225348.369
       241.000         219.000
  22249496.145     8959664.40249   6973101.52847  22249496.354    22249500.914
       234.000         189.000
  22208690.337     -778161.74249   -600750.15947  22208690.314    22208697.643
       232.000         190.000
  23880176.963    12942089.97749   9953891.92045  23880178.307    23880185.398
       206.000         143.000
  24520147.980    -4393126.53949  -3415274.54245  24520147.695    24520156.890
       205.000         145.000
  21263445.153     5434168.85949   4231922.42047  21263444.694    21263451.251
       239.000         203.000
  22474149.499    -8976187.98749  -6979794.03646  22474149.040    22474155.028
       230.000         186.000
  23764649.119    -2676998.01649  -2008831.73345  23764650.165    23764655.358
       216.000         150.000
 03  3 21  2 26 30.0000000  0  9G23G14G18G 3G17G25G15G31G 9
  23571405.968    10644435.14649   8287263.09946  23571406.525    23571412.862
       222.000         167.000
  20223268.873   -10922876.84749  -8308599.04248  20223268.443    20223273.404
       241.000         220.000
  22260464.520     9017303.69849   7018015.26747  22260464.381    22260469.911
       234.000         189.000
  22218357.858     -727358.81649   -561163.49347  22218358.231    22218364.752
       233.000         190.000
  23898564.240    13038714.72049  10029183.88345  23898563.918    23898573.124
       206.000         146.000
  24501589.043    -4490653.59249  -3491269.52945  24501589.463    24501597.838
       208.000         147.000
  21275846.616     5499338.70049   4282704.10847  21275846.088    21275853.011
       239.000         203.000
  22475268.691    -8970306.21549  -6975210.83446  22475268.465    22475274.842
       228.000         185.000
  23773106.776    -2632552.93849  -1974199.19045  23773105.601    23773113.079
       211.000         150.000
 03  3 21  2 27  0.0000000  0  9G23G14G18G 3G17G25G15G31G 9
  23582516.788    10702822.06749   8332759.39146  23582516.683    23582523.197
       222.000         167.000
  20221293.654   -10933256.12849  -8316686.77448  20221293.410    20221298.100
       240.000         219.000
  22271451.789     9075041.95049   7063006.11247  22271451.955    22271456.695
       234.000         189.000
  22228105.128     -676137.09349   -521250.49347  22228105.263    22228111.882
       233.000         190.000
  23916996.123    13135574.30149  10104658.84745  23916995.968    23917005.724
       207.000         146.000
  24483018.768    -4588241.55849  -3567311.97945  24483019.208    24483027.646
       208.000         148.000
  21288323.694     5564906.48749   4333795.87447  21288323.091    21288329.631
       239.000         202.000
  22476494.022    -8963866.36049  -6970192.75946  22476493.957    22476500.002
       230.000         185.000
  23781670.376    -2587550.32849  -1939132.17645  23781671.062    23781678.147
       215.000         153.000
 03  3 21  2 27 30.0000000  0  9G23G14G18G 3G17G25G15G31G 9
  23593631.161    10761227.99649   8378270.49946  23593630.559    23593637.692
       220.000         167.000
  20219418.235   -10943111.49549  -8324366.26448  20219418.148    20219422.754
       241.000         220.000
  22282457.642     9132878.06849   7108073.21447  22282457.426    22282462.578
       233.000         189.000
  22237931.404     -624499.61249   -481013.53247  22237931.201    22237938.424
       232.000         189.000
  23935472.156    13232666.68749  10180315.22645  23935471.188    23935481.849
       206.000         145.000
  24464437.044    -4685888.83949  -3643400.64545  24464437.622    24464445.776
       208.000         148.000
  21300876.184     5630870.50749   4385196.39447  21300875.701    21300882.493
       238.000         202.000
  22477825.382    -8956870.18549  -6964741.18546  22477825.365    22477831.161
       229.000         185.000
  23790339.728    -2541992.24149  -1903632.37345  23790339.770    23790347.033
       216.000         155.000
 03  3 21  2 28  0.0000000  0  9G23G14G18G 3G17G25G15G31G 9
  23604749.054    10819653.42549   8423796.79346  23604748.693    23604755.869
       220.000         166.000
  20217642.544   -10952443.12249  -8331637.64948  20217642.357    20217646.866
       241.000         220.000
  22293482.130     9190812.15749   7153216.66447  22293482.323    22293486.863
       233.000         188.000
  22247836.401     -572448.72149   -440454.43447  22247836.463    22247843.419
       233.000         189.000
  23953992.455    13329991.34549  10256152.59745  23953993.805    23954001.182
       209.000         146.000
  24445844.601    -4783592.30149  -3719533.11245  24445845.214    24445852.185
       205.000         146.000
  21313504.098     5697230.38049   4436905.37647  21313503.708    21313510.562
       239.000         202.000
  22479262.414    -8949318.11449  -6958856.45646  22479262.450    22479268.362
       230.000         186.000
  23799114.888    -2495879.78349  -1867700.58445  23799114.876    23799121.790
       214.000         154.000
 03  3 21  2 28 30.0000000  0  9G23G14G18G 3G17G25G15G31G 9
  23615870.625    10878097.98949   8469338.01746  23615870.543    23615877.662
       222.000         167.000
  20215966.159   -10961252.49149  -8338502.07748  20215965.948    20215970.575
       241.000         220.000
  22304525.163     9248843.41149   7198435.82147  22304524.789    22304530.617
       233.000         188.000
  22257819.556     -519987.36349   -399575.48547  22257819.492    22257826.113
       232.000         189.000
  23972556.766    13427545.93149  10332169.13545  23972556.415    23972565.318
       210.000         147.000
  24427241.784    -4881350.16249  -3795707.95445  24427242.432    24427249.370
       207.000         145.000
  21326207.047     5763984.86949   4488921.84047  21326206.784    21326213.462
       238.000         202.000
  22480805.060    -8941211.75649  -6952539.81146  22480804.943    22480811.160
       230.000         186.000
  23807994.656    -2449215.01349  -1831338.39745  23807994.189    23808001.120
       215.000         153.000
 03  3 21  2 29  0.0000000  0  9G23G14G18G 3G17G25G15G31G 9
  23626996.107    10936562.34049   8514894.64346  23626995.691    23627002.427
       220.000         167.000
  20214389.157   -10969539.60149  -8344959.55348  20214389.010    20214393.597
       241.000         220.000
  22315586.641     9306972.12349   7243730.91847  22315586.381    22315591.685
       232.000         188.000
  22267880.387     -467117.37449   -358378.11247  22267880.437    22267887.652
       232.000         189.000
  23991164.534    13525329.87449  10408364.36345  23991163.603    23991171.993
       208.000         146.000
  24408629.188    -4979159.64149  -3871923.05345  24408628.918    24408637.018
       208.000         145.000
  21338985.065     5831133.67249   4541245.56347  21338984.508    21338991.026
       238.000         201.000
  22482453.208    -8932551.40749  -6945791.48646  22482452.572    22482458.911
       231.000         185.000
  23816979.657    -2401998.74549  -1794546.51645  23816981.097    23816987.466
       218.000         157.000
 03  3 21  2 29 30.0000000  0  9G23G14G18G 3G17G25G15G31G 9
  23638125.179    10995045.98749   8560466.31946  23638124.617    23638132.672
       221.000         167.000
  20212911.351   -10977305.75049  -8351011.08348  20212911.213    20212915.675
       241.000         220.000
  22326666.564     9365197.45949   7289101.31546  22326666.710    22326671.190
       234.000         187.000
  22278018.356     -413841.84149   -316864.74147  22278018.519    22278024.692
       231.000         189.000
  24009815.386    13623341.18249  10484736.80345  24009814.861    24009824.635
       208.000         145.000
  24390007.063    -5077018.79449  -3948176.86445  24390007.399    24390015.661
       208.000         144.000
  21351837.831     5898675.46549   4593875.52347  21351837.091    21351844.044
       238.000         201.000
  22484206.386    -8923338.59449  -6938612.66546  22484206.178    22484212.272
       229.000         186.000
  23826069.336    -2354232.70049  -1757326.20745  23826069.066    23826076.137
       214.000         157.000
 03  3 21  2 30  0.0000000  0  9G23G14G18G 3G17G25G15G31G 9
  23649258.107    11053549.81449   8606053.71446  23649257.260    23649265.041
       220.000         167.000
  20211532.661   -10984550.86549  -8356656.60848  20211532.257    20211537.027
       241.000         220.000
  22337764.987     9423519.74749   7334547.26046  22337764.098    22337769.968
       232.000         187.000
  22288233.262     -360162.51349   -275036.71447  22288233.197    22288240.314
       232.000         188.000
  24028509.442    13721579.20749  10561285.91545  24028508.660    24028517.339
       207.000         144.000
  24371376.338    -5174924.23949  -4024466.77245  24371376.047    24371383.604
       208.000         143.000
  21364765.351     5966610.17849   4646811.65147  21364764.951    21364771.763
       238.000         201.000
  22486064.450    -8913573.64749  -6931003.60846  22486064.531    22486070.559
       230.000         186.000
  23835263.294    -2305917.60849  -1719678.08645  23835263.281    23835269.390
       216.000         155.000
 03  3 21  2 30 30.0000000  0  9G23G14G18G 3G17G25G15G31G 9
  23660394.724    11112073.27449   8651656.39046  23660394.820    23660401.430
       219.000         166.000
  20210252.759   -10991276.37249  -8361897.25048  20210252.533    20210257.248
       242.000         220.000
  22348881.513     9481938.13249   7380068.06546  22348881.421    22348886.521
       232.000         187.000
  22298524.395     -306082.38349   -232896.37947  22298524.443    22298531.127
       232.000         189.000
  24047246.318    13820041.84449  10638010.02145  24047245.478    24047255.390
       205.000         143.000
  24352736.984    -5272873.96949  -4100791.17045  24352737.920    24352745.147
       207.000         145.000
  21377767.413     6034936.42249   4700052.86347  21377766.920    21377773.934
       238.000         201.000
  22488027.531    -8903258.12949  -6922965.54446  22488027.453    22488033.726
       231.000         186.000
  23844561.522    -2257055.37049  -1681603.58945  23844561.883    23844568.739
       219.000         157.000
 03  3 21  2 31  0.0000000  0  9G23G14G18G 3G17G25G15G31G 9
  23671535.181    11170616.63849   8697274.60046  23671535.197    23671541.623
       220.000         166.000
  20209071.725   -10997482.86249  -8366733.45648  20209071.531    20209076.047
       241.000         220.000
  22360016.510     9540452.73449   7425663.86646  22360016.103    22360021.655
       232.000         186.000
  22308891.246     -251603.84949   -190445.60847  22308891.716    22308898.415
       231.000         189.000
  24066025.604    13918727.63949  10714908.00245  24066025.227    24066033.864
       205.000         143.000
  24334090.005    -5370865.05549  -4177147.79845  24334090.680    24334098.506
       211.000         146.000
  21390843.857     6103653.35549   4753598.51247  21390843.417    21390850.362
       238.000         201.000
  22490095.132    -8892393.00449  -6914499.21146  22490095.031    22490101.204
       231.000         186.000
  23853963.733    -2207647.48149  -1643103.94645  23853964.694    23853970.324
       219.000         159.000
 03  3 21  2 31 30.0000000  0  9G23G14G18G 3G17G25G15G31G 9
  23682679.400    11229180.45249   8742908.72646  23682679.232    23682685.560
       219.000         165.000
  20207989.337   -11003170.77749  -8371165.58448  20207988.980    20207993.710
       241.000         220.000
  22371169.624     9599063.30249   7471334.44146  22371169.582    22371175.012
       232.000         186.000
  22319333.618     -196729.01049   -147686.02547  22319333.787    22319340.573
       231.000         188.000
  24084847.076    14017635.82549  10791979.26445  24084846.438    24084856.503
       201.000         142.000
  24315435.952    -5468894.94149  -4253534.63445  24315435.884    24315443.783
       212.000         147.000
  21403994.498     6172760.28549   4807448.04247  21403993.993    21404000.638
       238.000         201.000
  22492267.231    -8880978.95449  -6905605.14746  22492266.578    22492273.329
       230.000         186.000
  23863469.355    -2157694.97649  -1604179.90145  23863467.725    23863476.038
       215.000         157.000
 03  3 21  2 32  0.0000000  0  9G23G14G18G 3G17G25G15G31G 9
  23693827.704    11287764.75749   8788558.83946  23693827.495    23693834.941
       220.000         165.000
  20207005.418   -11008341.18449  -8375194.45648  20207005.211    20207009.883
       242.000         220.000
  22382341.074     9657769.71049   7517079.69646  22382341.377    22382346.162
       233.000         186.000
  22329850.908     -141460.90949   -104619.99447  22329850.626    22329857.627
       231.000         188.000
  24103710.619    14116765.01149  10869222.73745  24103709.679    24103720.404
       202.000         141.000
  24296774.578    -5566961.28149  -4329949.88145  24296773.564    24296782.248
       211.000         148.000
  21417219.153     6242256.48549   4861600.89547  21417218.798    21417225.831
       238.000         201.000
  22494543.387    -8869017.21149  -6896284.31546  22494543.112    22494549.031
       229.000         186.000
  23873078.097    -2107199.62149  -1564832.86645  23873077.932    23873084.934
       218.000         156.000
 03  3 21  2 32 30.0000000  0  9G23G14G18G 3G17G25G15G31G 9
  23704979.921    11346369.87849   8834225.15546  23704979.594    23704987.640
       218.000         165.000
  20206119.915   -11012994.42749  -8378820.34348  20206119.804    20206124.309
       241.000         220.000
  22393530.892     9716572.12449   7562899.76446  22393530.172    22393535.975
       232.000         186.000
  22340442.485      -85801.47549    -61249.05047  22340442.743    22340449.433
       231.000         188.000
  24122616.045    14216113.77149  10946637.34145  24122615.311    24122624.555
       203.000         142.000
  24278106.671    -5665061.13349  -4406391.24845  24278106.806    24278114.206
       211.000         149.000
  21430517.820     6312141.28549   4916056.56747  21430517.382    21430524.424
       237.000         200.000
  22496923.640    -8856508.50049  -6886537.28046  22496923.284    22496929.377
       229.000         185.000
  23882790.222    -2056162.71249  -1525063.83545  23882790.548    23882796.618
       217.000         158.000
 03  3 21  2 33  0.0000000  0  9G23G14G18G 3G17G25G15G31G 9
  23716135.916    11404995.46149   8879907.40446  23716135.381    23716142.118
       218.000         164.000
  20205332.576   -11017131.87849  -8382044.31348  20205332.369    20205336.781
       242.000         220.000
  22404738.682     9775469.68549   7608793.96746  22404738.662    22404744.016
       232.000         186.000
  22351108.039      -29753.79149    -17575.56546  22351108.340    22351114.840
       231.000         187.000
  24141562.838    14315680.02049  11024221.40945  24141562.044    24141572.416
       204.000         141.000
  24259433.089    -5763192.64649  -4482857.27745  24259432.824    24259440.827
       211.000         150.000
  21443890.103     6382413.22749   4970813.90647  21443889.714    21443896.645
       237.000         200.000
  22499407.718    -8843454.61249  -6876365.43446  22499407.664    22499413.397
       229.000         185.000
  23892604.957    -2004586.08549  -1484874.27045  23892605.633    23892612.826
       216.000         159.000
 03  3 21  2 33 30.0000000  0  9G23G14G18G 3G17G25G15G31G 9
  23727295.997    11463642.17049   8925606.12546  23727296.115    23727302.086
       219.000         165.000
  20204643.271   -11020754.12849  -8384866.82748  20204642.937    20204647.613
       241.000         220.000
  22415964.646     9834462.34749   7654762.27246  22415965.200    22415969.149
       233.000         186.000
  22361847.162       26680.25649     26398.98346  22361847.115    22361854.049
       231.000         187.000
  24160550.908    14415462.94049  11101974.30045  24160551.228    24160560.078
       204.000         141.000
  24240753.843    -5861352.42649  -4559345.34045  24240751.677    24240761.424
       210.000         150.000
  21457335.962     6453071.66449   5025872.41147  21457335.646    21457342.527
       237.000         200.000
  22501995.463    -8829856.12249  -6865769.21546  22501994.543    22502001.449
       228.000         184.000
  23902522.197    -1952470.88849  -1444265.00145  23902521.779    23902529.287
       214.000         158.000
 03  3 21  2 34  0.0000000  0  9G23G14G18G 3G17G25G15G31G 9
  23738460.233    11522310.00049   8971321.30846  23738460.776    23738467.046
       219.000         165.000
  20204051.762   -11023862.17349  -8387288.66848  20204051.626    20204056.170
       241.000         220.000
  22427208.683     9893550.03449   7700804.62746  22427209.006    22427213.953
       232.000         186.000
  22372659.145       83497.66949     70672.25246  22372659.130    22372665.832
       230.000         187.000
  24179579.880    14515460.78849  11179894.66345  24179579.086    24179589.398
       201.000         139.000
  24222069.208    -5959538.28349  -4635853.75545  24222068.551    24222076.853
       208.000         150.000
  21470855.238     6524115.81649   5081231.46247  21470854.697    21470861.823
       237.000         200.000
  22504686.436    -8815714.45749  -6854749.74346  22504686.110    22504692.619
       229.000         184.000
  23912541.357    -1899818.83949  -1403237.46145  23912541.262    23912547.686
       215.000         157.000
 03  3 21  2 34 30.0000000  0  9G23G14G18G 3G17G25G15G31G 9
  23749628.481    11580999.39349   9017053.28446  23749627.865    23749635.628
       218.000         165.000
  20203558.097   -11026456.39549  -8389310.12748  20203557.898    20203562.436
       241.000         220.000
  22438470.750     9952732.89449   7746921.13146  22438470.140    22438475.614
       231.000         186.000
  22383543.638      140696.05749    115242.40146  22383543.365    22383550.573
       231.000         187.000
  24198649.610    14615672.44649  11257981.64645  24198649.963    24198657.237
       208.000         138.000
  24203380.492    -6057747.40549  -4712380.27145  24203380.209    24203387.949
       212.000         151.000
  21484447.749     6595544.93349   5136890.49247  21484447.227    21484454.042
       237.000         199.000
  22507480.691    -8801030.57149  -6843307.76446  22507480.446    22507486.275
       229.000         183.000
  23922662.741    -1846631.39949  -1361792.70845  23922662.705    23922669.290
       214.000         157.000
 03  3 21  2 35  0.0000000  0  9G23G14G18G 3G17G25G15G31G 9
  23760800.821    11639711.26049   9062802.77446  23760801.100    23760807.891
       218.000         165.000
  20203162.135   -11028537.34649  -8390931.63148  20203162.052    20203166.409
       242.000         220.000
  22449750.998    10012011.08949   7793111.92746  22449750.911    22449756.381
       232.000         185.000
  22394500.253      198273.57749    160107.97746  22394500.690    22394507.312
       231.000         187.000
  24217759.704    14716096.61449  11336234.26445  24217759.154    24217768.296
       206.000         136.000
  24184688.257    -6155976.73049  -4788922.52045  24184688.299    24184696.091
       213.000         152.000
  21498113.437     6667358.65049   5192849.20947  21498113.146    21498119.960
       237.000         199.000
  22510377.891    -8785805.03049  -6831443.70546  22510377.640    22510384.323
       227.000         183.000
  23932885.536    -1792909.35449  -1319931.38345  23932885.718    23932892.718
       212.000         156.000
 03  3 21  2 35 30.0000000  0  9G23G14G18G 3G17G25G15G31G 9
  23771977.396    11698443.97149   9108568.50046  23771978.142    23771984.123
       220.000         165.000
  20202863.378   -11030107.60049  -8392155.19448  20202863.249    20202867.548
       242.000         220.000
  22461049.085    10071382.79949   7839375.59746  22461048.859    22461053.820
       233.000         186.000
  22405528.341      256225.93549    205265.62946  22405528.555    22405535.403
       231.000         187.000
  24236909.848    14816730.60649  11414650.35445  24236909.537    24236919.809
       205.000         135.000
  24165991.970    -6254224.95949  -4865479.50245  24165991.023    24166000.104
       212.000         152.000
  21511851.865     6739554.47949   5249105.66547  21511851.225    21511858.813
       236.000         199.000
  22513377.741    -8770040.62949  -6819159.77546  22513377.483    22513383.879
       228.000         182.000
  23943209.752    -1738655.93149  -1277656.01245  23943209.821    23943217.321
       211.000         156.000
 03  3 21  2 36  0.0000000  0  9G23G14G18G 3G17G25G15G31G 9
  23783158.223    11757198.49649   9154351.23846  23783157.223    23783164.889
       219.000         165.000
  20202661.738   -11031167.10649  -8392980.76948  20202661.459    20202666.039
       241.000         220.000
  22472365.158    10130848.71649   7885712.67046  22472364.736    22472370.080
       231.000         185.000
  22416627.370      314551.51149    250714.08546  22416627.352    22416634.252
       231.000         186.000
  24256099.681    14917573.87449  11493229.49345  24256100.781    24256108.774
       202.000         136.000
  24147292.720    -6352488.82849  -4942048.68245  24147292.637    24147301.199
       213.000         152.000
  21525662.902     6812132.07649   5305659.60947  21525662.724    21525669.432
       237.000         198.000
  22516480.186    -8753737.85549  -6806456.32046  22516480.035    22516486.131
       229.000         182.000
  23953634.728    -1683872.05049  -1234967.27845  23953634.144    23953640.475
       211.000         154.000
 03  3 21  2 36 30.0000000  0  9G23G14G18G 3G17G25G15G31G 9
  23794343.024    11815975.71549   9200151.64946  23794342.539    23794349.483
       218.000         165.000
  20202557.177   -11031716.49249  -8393408.85048  20202556.921    20202561.575
       242.000         220.000
  22483699.135    10190409.48149   7932123.63946  22483698.929    22483703.935
       231.000         185.000
  22427797.035      373248.03749    296451.59046  22427797.109    22427804.114
       230.000         186.000
  24275329.116    15018625.20449  11571970.77045  24275329.139    24275337.694
       204.000         135.000
  24128591.489    -6450765.62249  -5018627.89345  24128591.074    24128598.646
       213.000         150.000
  21539546.551     6885091.15949   5362510.80147  21539546.023    21539553.330
       236.000         198.000
  22519684.946    -8736897.44749  -6793333.94346  22519684.667    22519690.778
       228.000         181.000
  23964160.580    -1628558.85949  -1191866.11445  23964161.236    23964167.385
       212.000         154.000
 03  3 21  2 37  0.0000000  0  8G23G14G18G 3G25G15G31G 9
  23805532.232    11874774.98849   9245969.23346  23805532.263    23805538.862
       220.000         165.000
  20202549.427   -11031757.32849  -8393440.65748  20202549.246    20202553.596
       241.000         220.000
  22495050.993    10250063.87849   7978607.57746  22495051.110    22495056.446
       232.000         185.000
  22439036.528      432312.08649    342475.47346  22439036.748    22439043.428
       231.000         186.000
  24109887.991    -6549052.90149  -5095215.30245  24109887.502    24109895.737
       209.000         149.000
  21553502.425     6958430.06349   5419657.96547  21553502.201    21553509.388
       236.000         198.000
  22522991.410    -8719521.61449  -6779794.33846  22522990.208    22522997.303
       228.000         181.000
  23974786.505    -1572718.70449  -1148354.30045  23974786.091    23974793.243
       211.000         155.000
 03  3 21  2 37 30.0000000  0  8G23G14G18G 3G25G15G31G 9
  23816726.166    11933599.29149   9291806.32846  23816725.704    23816733.247
       219.000         165.000
  20202638.703   -11031287.97949  -8393074.91548  20202638.225    20202642.957
       241.000         220.000
  22506421.232    10309814.27249   8025166.31846  22506420.919    22506426.436
       233.000         185.000
  22450346.046      491743.72649    388785.79546  22450346.209    22450353.117
       231.000         186.000
  24091183.058    -6647345.49249  -5171806.88745  24091183.301    24091192.154
       209.000         150.000
  21567531.027     7032150.14749   5477102.16747  21567530.779    21567537.305
       237.000         198.000
  22526400.037    -8701608.95849  -6765836.44246  22526400.198    22526405.943
       227.000         181.000
  23985512.785    -1516350.85649  -1104431.31845  23985511.436    23985519.862
       208.000         153.000
 03  3 21  2 38  0.0000000  0  8G23G14G18G 3G25G15G31G 9
  23827924.222    11992445.82249   9337660.75146  23827923.402    23827931.877
       219.000         166.000
  20202824.268   -11030312.41249  -8392314.71948  20202823.976    20202828.581
       241.000         220.000
  22517809.013    10369657.59149   8071797.46746  22517808.745    22517814.023
       232.000         185.000
  22461724.502      551537.32149    435378.16246  22461724.262    22461731.108
       230.000         185.000
  24072477.837    -6745644.04449  -5248403.07445  24072477.541    24072485.893
       213.000         151.000
  21581631.369     7106247.43549   5534840.28547  21581631.218    21581637.782
       236.000         197.000
  22529909.930    -8683163.73149  -6751463.54646  22529909.898    22529915.756
       228.000         182.000
  23996338.708    -1459459.98149  -1060100.77045  23996338.351    23996345.520
       210.000         152.000
 03  3 21  2 38 30.0000000  0  8G23G14G18G 3G25G15G31G 9
  23839126.657    12051315.04349   9383532.86146  23839125.986    23839133.417
       219.000         166.000
  20203105.997   -11028831.44649  -8391160.70748  20203105.691    20203110.400
       241.000         220.000
  22529214.552    10429594.05549   8118501.20546  22529214.200    22529219.690
       232.000         184.000
  22473171.362      611690.80349    482250.96146  22473170.878    22473178.306
       228.000         184.000
  24053771.837    -6843945.36049  -5325001.40945  24053771.930    24053779.566
       212.000         152.000
  21595803.185     7180721.00349   5592871.59947  21595802.617    21595809.755
       236.000         197.000
  22533521.014    -8664186.99849  -6736676.48846  22533521.318    22533527.506
       228.000         182.000
  24007263.902    -1402047.28449  -1015363.62645  24007264.766    24007271.887
       211.000         153.000
 03  3 21  2 39  0.0000000  0  8G23G14G18G 3G25G15G31G 9
  23850333.490    12110207.48149   9429423.05146  23850333.158    23850340.692
       218.000         165.000
  20203483.814   -11026845.82349  -8389613.45548  20203483.729    20203488.272
       241.000         220.000
  22540637.846    10489623.95149   8165277.73446  22540637.971    22540643.003
       232.000         184.000
  22484686.063      672201.53449    529402.13646  22484686.595    22484692.699
       229.000         183.000
  24035065.456    -6942246.70549  -5401599.79545  24035065.570    24035072.697
       212.000         154.000
  21610046.646     7255570.42249   5651195.77747  21610046.416    21610053.257
       236.000         197.000
  22537233.068    -8644679.94449  -6721476.19846  22537232.868    22537239.177
       228.000         182.000
  24018288.331    -1344114.54349   -970221.21645  24018287.745    24018296.183
       209.000         154.000
 03  3 21  2 39 30.0000000  0  8G23G14G18G 3G25G15G31G 9
  23861544.937    12169123.89449   9475331.92646  23861543.537    23861551.446
       215.000         164.000
  20203957.560   -11024356.27249  -8387673.53048  20203957.371    20203962.040
       241.000         220.000
  22552078.917    10549747.17649   8212127.00146  22552078.921    22552083.772
       231.000         183.000
  22496268.435      733067.25249    576829.94946  22496268.447    22496275.774
       229.000         184.000
  24016359.791    -7040544.95149  -5478195.75445  24016359.570    24016367.763
       214.000         157.000
  21624361.451     7330794.82749   5709812.17147  21624361.176    21624367.857
       236.000         197.000
  22541045.892    -8624643.63849  -6705863.51146  22541045.539    22541052.045
       229.000         182.000
  24029411.408    -1285663.14249   -924674.66445  24029411.754    24029417.886
       207.000         152.000
 03  3 21  2 40  0.0000000  0  8G23G14G18G 3G25G15G31G 9
  23872760.824    12228064.56849   9521259.70345  23872760.812    23872768.520
       216.000         162.000
  20204526.974   -11021363.67749  -8385341.62648  20204526.827    20204531.420
       241.000         220.000
  22563537.831    10609963.98749   8259049.18546  22563537.018    22563542.488
       230.000         183.000
  22507917.845      794285.12149    624532.13746  22507918.172    22507925.242
       230.000         184.000
  23997655.323    -7138837.35149  -5554787.15145  23997655.399    23997662.653
       214.000         157.000
  21638747.406     7406393.24949   5768720.02147  21638746.867    21638753.827
       236.000         196.000
  22544959.229    -8604079.36149  -6689839.40446  22544959.000    22544965.773
       229.000         183.000
  24040632.728    -1226694.74449   -878725.27345  24040632.536    24040640.038
       208.000         151.000
 03  3 21  2 40 30.0000000  0  8G23G14G18G 3G25G15G31G 9
  23883981.578    12287029.20649   9567206.14346  23883981.534    23883988.535
       216.000         164.000
  20205191.888   -11017869.62149  -8382618.96948  20205191.707    20205196.268
       242.000         220.000
  22575014.338    10670273.68649   8306043.75046  22575013.823    22575018.777
       230.000         182.000
  22519633.651      855851.79149    672506.12746  22519633.612    22519640.559
       230.000         184.000
  23978952.248    -7237121.82949  -5631372.37945  23978951.497    23978958.757
       212.000         155.000
  21653204.240     7482364.23849   5827918.16547  21653203.729    21653210.982
       236.000         196.000
  22548972.645    -8582989.03349  -6673405.39346  22548972.201    22548978.467
       230.000         183.000
  24051952.123    -1167211.51249   -832374.71145  24051952.490    24051957.211
       210.000         151.000
 03  3 21  2 41  0.0000000  0  8G23G14G18G 3G25G15G31G 9
  23895206.865    12346018.77649   9613172.02746  23895206.453    23895213.952
       218.000         163.000
  20205952.120   -11013874.74049  -8379506.06648  20205952.040    20205956.575
       241.000         220.000
  22586508.640    10730676.50549   8353110.87846  22586508.885    22586513.150
       232.000         182.000
  22531415.439      917765.61349    720750.62246  22531415.546    22531421.992
       230.000         184.000
  23960251.209    -7335395.19049  -5707948.95945  23960251.253    23960258.336
       210.000         153.000
  21667731.873     7558707.43449   5887406.33247  21667731.492    21667738.658
       236.000         196.000
  22553086.061    -8561373.46949  -6656562.11646  22553085.953    22553092.159
       230.000         184.000
  24063369.043    -1107214.79649   -785624.03845  24063368.557    24063376.068
       204.000         149.000
 03  3 21  2 41 30.0000000  0  8G23G14G18G 3G25G15G31G 9
  23906437.004    12405033.52649   9659157.51746  23906436.828    23906444.096
       219.000         164.000
  20206807.403   -11009380.01549  -8376003.66848  20206807.109    20206811.718
       241.000         221.000
  22598020.772    10791172.72349   8400250.79346  22598020.286    22598025.703
       230.000         182.000
  22543262.870      980024.02949    769263.63746  22543262.684    22543269.682
       230.000         183.000
  23941552.820    -7433654.79249  -5784514.81945  23941552.988    23941560.829
       208.000         153.000
  21682330.116     7635421.48549   5947183.48447  21682329.556    21682336.744
       235.000         195.000
  22557299.050    -8539234.42049  -6639310.91946  22557298.667    22557304.972
       230.000         184.000
  24074883.045    -1046706.56049   -738474.73445  24074882.925    24074889.601
       207.000         149.000
 03  3 21  2 42  0.0000000  0  8G23G14G18G 3G25G15G31G 9
  23917672.033    12464073.13949   9705162.39746  23917672.690    23917678.710
       219.000         164.000
  20207757.504   -11004387.17849  -8372113.13148  20207757.271    20207762.094
       242.000         221.000
  22609550.333    10851761.49749   8447462.80946  22609549.704    22609555.145
       230.000         181.000
  22555175.211     1042623.49249    818042.39246  22555175.057    22555182.418
       230.000         183.000
  23922857.721    -7531898.27349  -5861068.13645  23922858.020    23922865.211
       211.000         152.000
  21696998.563     7712504.97649   6007248.52847  21696998.131    21697005.361
       235.000         195.000
  22561611.297    -8516573.65149  -6621653.19146  22561610.642    22561617.196
       230.000         184.000
  24086494.591     -985688.98049   -690928.57445  24086495.116    24086501.465
       211.000         149.000
 03  3 21  2 42 30.0000000  0  9G11G23G14G18G 3G25G15G31G 9
  24653446.209     -619834.28049   -467626.98545  24653445.825    24653452.623
       208.000         138.000
  23928911.700    12523138.11149   9751187.02646  23928911.819    23928919.268
       219.000         164.000
  20208802.250   -10998896.97249  -8367835.03948  20208802.077    20208806.602
       241.000         221.000
  22621097.669    10912443.12749   8494747.19646  22621097.920    22621102.228
       230.000         182.000
  22567152.029     1105561.82649    867085.21346  22567152.156    22567159.156
       230.000         183.000
  23904166.292    -7630122.75649  -5937606.62645  23904166.230    23904173.294
       213.000         152.000
  21711737.317     7789957.14449   6067600.86047  21711736.797    21711743.859
       234.000         195.000
  22566022.406    -8493392.31749  -6603589.84146  22566022.388    22566028.952
       230.000         185.000
  24098202.530     -924163.61849   -642986.72945  24098202.701    24098209.266
       210.000         149.000
 03  3 21  2 43  0.0000000  0  9G11G23G14G18G 3G25G15G31G 9
  24634391.381     -719975.34249   -545658.92045  24634390.177    24634397.027
       210.000         142.000
  23940156.212    12582227.90449   9797230.99546  23940155.985    23940162.955
       217.000         163.000
  20209941.273   -10992911.36749  -8363170.91748  20209940.929    20209945.576
       241.000         221.000
  22632662.491    10973216.49349   8542103.05546  22632662.504    22632666.534
       229.000         182.000
  22579192.654     1168835.43449    916389.29146  22579192.630    22579199.724
       229.000         183.000
  23885478.631    -7728326.30549  -6014128.82945  23885479.627    23885486.019
       214.000         153.000
  21726545.655     7867775.86349   6128238.79947  21726544.686    21726552.220
       233.000         194.000
  22570532.328    -8469692.88649  -6585122.76346  22570532.555    22570538.336
       232.000         186.000
  24110006.490     -862133.46849   -594651.52845  24110005.081    24110012.982
       206.000         148.000
 03  3 21  2 43 30.0000000  0  9G11G23G14G18G 3G25G15G31G 9
  24615346.863     -820055.46149   -623643.34745  24615345.501    24615352.685
       211.000         143.000
  23951405.445    12641342.61749   9843294.37146  23951405.427    23951412.326
       219.000         163.000
  20211174.314   -10986431.70249  -8358121.82048  20211174.095    20211178.811
       242.000         221.000
  22644244.651    11034081.47349   8589530.31646  22644244.296    22644249.578
       229.000         181.000
  22591296.455     1232441.31249    965952.26546  22591296.151    22591303.413
       229.000         183.000
  23866795.774    -7826506.48349  -6090632.81445  23866796.471    23866803.980
       216.000         156.000
  21741423.538     7945959.89849   6189161.39047  21741422.936    21741430.174
       234.000         194.000
  22575140.466    -8445477.26149  -6566253.45846  22575139.856    22575146.532
       230.000         187.000
  24121905.722     -799600.54349   -545924.55845  24121906.452    24121913.513
       212.000         148.000
 03  3 21  2 44  0.0000000  0  9G11G23G14G18G 3G25G15G31G 9
  24596314.290     -920072.08849   -701578.31545  24596313.417    24596319.130
       210.000         144.000
  23962659.596    12700483.24449   9889377.95246  23962659.366    23962666.397
       219.000         163.000
  20212501.230   -10979458.66949  -8352688.27448  20212501.067    20212505.683
       242.000         221.000
  22655844.433    11095038.71849   8637029.44846  22655844.225    22655849.281
       228.000         181.000
  22603463.101     1296377.34449   1015772.51446  22603462.898    22603469.623
       229.000         181.000
  23848117.752    -7924659.76749  -6167115.84445  23848117.512    23848126.302
       214.000         157.000
  21756370.964     8024508.79849   6250368.29847  21756370.408    21756377.542
       234.000         194.000
  22579846.545    -8420746.21049  -6546982.51346  22579846.328    22579853.142
       229.000         187.000
  24133901.060     -736565.88749   -496806.61745  24133901.777    24133909.135
       214.000         150.000
 03  3 21  2 44 30.0000000  0  9G11G23G14G18G 3G25G15G31G 9
  24577294.224    -1020022.04849   -779461.33845  24577292.964    24577299.505
       210.000         144.000
  23973918.754    12759651.03249   9935482.69245  23973918.641    23973924.937
       220.000         162.000
  20213922.031   -10971992.43349  -8346870.42148  20213922.053    20213926.373
       242.000         221.000
  22667461.956    11156089.18149   8684601.22146  22667462.113    22667467.296
       228.000         181.000
  22615692.268     1360641.73749   1065848.64146  22615692.002    22615698.837
       228.000         181.000
  23829445.324    -8022782.76449  -6243575.28745  23829446.078    23829453.627
       215.000         158.000
  21771387.695     8103422.34749   6311859.34047  21771387.402    21771394.413
       234.000         193.000
  22584650.646    -8395500.48349  -6527310.54446  22584650.442    22584656.606
       231.000         186.000
  24145991.386     -673030.50649   -447298.52345  24145990.818    24145998.555
       210.000         148.000
 03  3 21  2 45  0.0000000  0  9G11G23G14G18G 3G25G15G31G 9
  24558287.168    -1119903.01149   -857290.60945  24558286.842    24558292.196
       212.000         144.000
  23985183.373    12818846.69249   9981609.15545  23985183.463    23985190.180
       219.000         161.000
  20215436.585   -10964033.86649  -8340668.93248  20215436.365    20215440.945
       242.000         221.000
  22679097.226    11217232.97649   8732245.71746  22679097.328    22679102.565
       228.000         181.000
  22627983.478     1425232.21049   1116178.85346  22627983.643    22627990.504
       228.000         182.000
  23810779.808    -8120872.27249  -6320008.59745  23810779.980    23810787.281
       216.000         158.000
  21786473.691     8182699.57649   6373633.76947  21786473.678    21786480.559
       234.000         193.000
  22589552.556    -8369741.26149  -6507238.43546  22589552.258    22589558.591
       231.000         186.000
  24158176.604     -608996.09949   -397401.52545  24158177.322    24158184.339
       212.000         148.000
 03  3 21  2 45 30.0000000  0  9G11G23G14G18G 3G25G15G31G 9
  24539293.642    -1219713.83549   -935065.20545  24539292.621    24539299.328
       211.000         144.000
  23996453.265    12878069.84549  10027757.03845  23996452.811    23996460.193
       218.000         162.000
  20217044.328   -10955584.84749  -8334085.26948  20217044.032    20217048.543
       242.000         221.000
  22690750.032    11278469.43049   8779962.43046  22690749.901    22690755.811
       228.000         180.000
  22640336.099     1490145.34549   1166760.49946  22640336.051    22640343.366
       229.000         182.000
  23792120.799    -8218926.24449  -6396414.20845  23792119.279    23792128.718
       212.000         157.000
  21801628.543     8262338.91849   6435690.36147  21801627.737    21801635.180
       234.000         193.000
  22594551.666    -8343470.81349  -6486767.98746  22594551.747    22594557.183
       230.000         186.000
  24170456.674     -544465.34849   -347117.78445  24170456.431    24170462.884
       212.000         148.000
 03  3 21  2 46  0.0000000  0  9G11G23G14G18G 3G25G15G31G 9
  24520314.011    -1319452.67849  -1012783.71745  24520313.270    24520318.968
       213.000         145.000
  24007728.299    12937320.45649  10073926.30645  24007728.186    24007735.465
       219.000         161.000
  20218745.095   -10946647.00249  -8327120.70348  20218744.874    20218749.510
       242.000         221.000
  22702420.547    11339798.32849   8827751.15946  22702420.701    22702426.390
       228.000         180.000
  22652749.513     1555378.04949   1217591.15546  22652748.988    22652756.654
       228.000         182.000
  23773468.614    -8316942.21049  -6472790.23045  23773468.530    23773477.317
       211.000         157.000
  21816851.968     8342338.82849   6498027.90547  21816851.498    21816858.984
       233.000         192.000
  22599647.712    -8316691.13449  -6465900.72246  22599647.230    22599653.942
       230.000         185.000
  24182830.339     -479440.47049   -296449.02145  24182830.635    24182837.609
       213.000         148.000
 03  3 21  2 46 30.0000000  0  9G11G23G14G18G 3G25G15G31G 9
  24501348.377    -1419117.07749  -1090444.21645  24501347.860    24501354.370
       213.000         145.000
  24019008.767    12996599.49149  10120117.72445  24019008.866    24019014.998
       218.000         160.000
  20220538.785   -10937220.94349  -8319775.70948  20220538.502    20220543.055
       242.000         221.000
  22714108.757    11401219.88749   8875612.08846  22714108.380    22714113.551
       228.000         180.000
  22665223.220     1620928.07049   1268669.05546  22665223.262    22665229.969
       227.000         181.000
  23754824.490    -8414916.79149  -6549133.98945  23754824.257    23754832.059
       212.000         156.000
  21832143.921     8422698.59049   6560645.86547  21832143.761    21832150.468
       235.000         192.000
  22604840.407    -8289403.41249  -6444637.57846  22604839.905    22604846.888
       228.000         185.000
  24195297.840     -413922.92749   -245396.33845  24195297.624    24195304.906
       213.000         148.000
 03  3 21  2 47  0.0000000  0  9G11G23G14G18G 3G25G15G31G 9
  24482397.050    -1518705.22249  -1168045.29945  24482396.390    24482403.026
       212.000         146.000
  24030294.631    13055906.84649  10166331.23245  24030294.523    24030301.091
       217.000         159.000
  20222425.080   -10927308.36449  -8312051.61248  20222424.917    20222429.517
       242.000         221.000
  22725814.404    11462733.73649   8923544.94646  22725814.226    22725819.524
       227.000         179.000
  22677756.719     1686792.35849   1319991.84546  22677756.806    22677763.698
       228.000         180.000
  23736188.683    -8512847.83449  -6625443.82145  23736188.139    23736195.839
       212.000         156.000
  21847504.223     8503416.60749   6623542.97847  21847504.168    21847510.830
       236.000         192.000
  22610129.253    -8261609.72249  -6422980.17746  22610129.143    22610135.594
       229.000         185.000
  24207858.574     -347915.39249   -193961.86045  24207858.508    24207864.678
       210.000         148.000
 03  3 21  2 47 30.0000000  0  9G11G23G14G18G 3G25G15G31G 9
  24463460.588    -1618215.20949  -1245585.49745  24463460.719    24463466.435
       213.000         146.000
  24041585.786    13115242.95849  10212567.12545  24041585.727    24041593.244
       215.000         158.000
  20224403.753   -10916910.31649  -8303949.23048  20224403.757    20224408.151
       243.000         222.000
  22737537.761    11524340.16349   8971549.93146  22737537.640    22737543.297
       227.000         179.000
  22690349.607     1752968.19149   1371557.39746  22690349.768    22690356.868
       228.000         181.000
  23717561.583    -8610732.31449  -6701717.37545  23717561.404    23717569.914
       216.000         157.000
  21862932.358     8584491.73949   6686718.35847  21862931.398    21862938.873
       233.000         192.000
  22615514.211    -8233311.62249  -6400929.72646  22615513.955    22615519.896
       229.000         185.000
  24220512.132     -281419.84849   -142147.09245  24220512.178    24220518.936
       215.000         148.000
 03  3 21  2 48  0.0000000  0  9G11G23G14G18G 3G25G15G31G 9
  24444539.610    -1717645.44749  -1323063.54045  24444539.078    24444545.862
       215.000         147.000
  24052882.525    13174607.48449  10258825.16545  24052883.375    24052888.068
       216.000         157.000
  20226474.493   -10906028.76149  -8295470.08248  20226474.393    20226478.801
       243.000         222.000
  22749278.649    11586038.53949   9019626.56746  22749278.982    22749283.961
       228.000         179.000
  22703001.221     1819452.18949   1423363.09446  22703000.979    22703008.267
       227.000         180.000
  23698944.137    -8708568.23449  -6777953.08245  23698944.682    23698952.016
       217.000         159.000
  21878427.981     8665922.45049   6750170.80947  21878427.460    21878434.950
       233.000         191.000
  22620994.641    -8204511.48449  -6378488.08246  22620993.712    22621000.488
       229.000         184.000
  24233258.444     -214438.83249    -89954.03745  24233259.384    24233265.609
       213.000         149.000
 03  3 21  2 48 30.0000000  0  9G11G23G14G18G 3G25G15G31G 9
  24425634.208    -1816993.97449  -1400477.89845  24425633.266    24425640.012
       216.000         148.000
  24064184.769    13234000.88649  10305105.71445  24064185.071    24064191.338
       213.000         156.000
  20228636.880   -10894665.10649  -8286615.27648  20228636.736    20228641.273
       242.000         222.000
  22761036.871    11647828.83049   9067774.83946  22761036.482    22761042.442
       228.000         179.000
  22715710.709     1886241.79349   1475406.91246  22715710.471    22715717.554
       227.000         179.000
  23680336.513    -8806352.79749  -6854148.78445  23680336.174    23680344.762
       217.000         161.000
  21893991.185     8747707.50249   6813899.38747  21893990.975    21893997.758
       234.000         191.000
  22626570.281    -8175211.03449  -6355656.57946  22626570.391    22626576.532
       229.000         184.000
  24246096.281     -146974.12649    -37384.09545  24246096.077    24246103.206
       212.000         148.000
 03  3 21  2 49  0.0000000  0  9G11G23G14G18G 3G25G15G31G 9
  24406744.753    -1916257.99449  -1477826.42745  24406744.033    24406751.461
       216.000         149.000
  24075492.582    13293424.02149  10351409.42445  24075492.044    24075500.252
       213.000         155.000
  20230890.882   -10882820.08849  -8277385.38648  20230890.726    20230895.135
       243.000         222.000
  22772812.756    11709711.55249   9115995.11846  22772812.450    22772818.482
       228.000         179.000
  22728478.120     1953334.49249   1527686.90646  22728478.272    22728485.109
       227.000         179.000
  23661739.030    -8904082.60349  -6930301.82645  23661739.419    23661746.108
       217.000         162.000
  21909621.683     8829845.81549   6877903.22047  21909621.495    21909628.596
       234.000         191.000
  22632240.958    -8145411.45949  -6332436.15746  22632240.636    22632247.978
       229.000         184.000
  24259026.239      -79027.40549     15561.46345  24259027.205    24259033.033
       216.000         149.000
 03  3 21  2 49 30.0000000  0  9G11G23G14G18G 3G25G15G31G 9
  24387871.682    -2015436.10349  -1555108.00145  24387871.498    24387878.144
       216.000         151.000
  24086805.960    13352876.70649  10397736.13945  24086805.731    24086813.323
       212.000         155.000
  20233236.158   -10870495.77849  -8267782.01948  20233235.912    20233240.436
       243.000         222.000
  22784606.190    11771685.88949   9164286.78646  22784605.896    22784611.413
       228.000         178.000
  22741302.457     2020726.89649   1580200.42846  22741302.674    22741309.419
       227.000         179.000
  23643152.502    -9001755.75549  -7006410.70745  23643152.226    23643159.659
       217.000         162.000
  21925318.988     8912335.43749   6942180.80847  21925318.748    21925325.943
       233.000         191.000
  22638006.240    -8115115.28449  -6308828.77246  22638006.634    22638012.978
       231.000         185.000
  24272047.473      -10601.46549     68880.44445  24272047.311    24272053.783
       215.000         148.000
 03  3 21  2 50  0.0000000  0  9G11G23G14G18G 3G25G15G31G 9
  24369015.403    -2114526.26649  -1632321.04945  24369015.152    24369021.731
       218.000         152.000
  24098125.189    13412359.24549  10444086.15445  24098125.985    24098132.215
       214.000         156.000
  20235672.361   -10857693.34649  -8257806.08948  20235672.086    20235676.730
       243.000         222.000
  22796416.885    11833751.59849   9212649.67446  22796416.459    22796421.807
       227.000         178.000
  22754183.340     2088416.08349   1632945.20246  22754183.407    22754190.830
       227.000         179.000
  23624577.326    -9099369.20749  -7082473.06345  23624576.906    23624585.116
       216.000         162.000
  21941082.916     8995175.28249   7006731.28947  21941082.435    21941089.727
       233.000         190.000
  22643865.727    -8084324.40349  -6284835.89946  22643864.939    22643871.772
       230.000         184.000
  24285159.300       58301.45249    122571.08445  24285159.484    24285165.589
       213.000         147.000
 03  3 21  2 50 30.0000000  0  9G11G23G14G18G 3G25G15G31G 9
  24350176.424    -2213525.97949  -1709463.62145  24350176.524    24350182.213
       218.000         154.000
  24109450.203    13471872.72549  10490460.25545  24109449.775    24109456.405
       212.000         154.000
  20238199.412   -10844413.61449  -8247458.24148  20238199.186    20238203.730
       244.000         222.000
  22808245.181    11895909.81249   9261084.63546  22808244.981    22808250.746
       227.000         178.000
  22767120.247     2156400.03249   1685919.67746  22767120.650    22767127.163
       227.000         179.000
  23606013.798    -9196919.82449  -7158486.46145  23606013.607    23606021.671
       214.000         161.000
  21956913.372     9078364.66249   7071554.14747  21956912.975    21956920.342
       234.000         191.000
  22649819.013    -8053039.87449  -6260458.37746  22649818.667    22649824.882
       229.000         183.000
  24298361.374      127679.79749    176632.19645  24298361.205    24298367.238
       211.000         146.000
 03  3 21  2 51  0.0000000  0  9G11G23G14G18G 3G25G15G31G 9
  24331354.840    -2312433.40649  -1786534.27945  24331355.313    24331361.030
       217.000         155.000
  24120781.161    13531416.94649  10536858.31645  24120781.241    24120788.437
       212.000         154.000
  20240816.925   -10830658.42349  -8236739.90848  20240816.764    20240821.235
       245.000         222.000
  22820091.063    11958159.83549   9309591.12146  22820091.310    22820095.850
       226.000         178.000
  22780112.539     2224675.52949   1739121.34046  22780112.456    22780119.499
       226.000         178.000
  23587462.817    -9294405.28449  -7234449.06845  23587462.929    23587470.674
       215.000         161.000
  21972810.029     9161901.74349   7136647.92747  21972809.530    21972816.793
       233.000         191.000
  22655865.774    -8021263.99649  -6235697.98046  22655865.511    22655871.954
       230.000         183.000
  24311653.603      197531.12249    231061.83745  24311655.051    24311659.411
       212.000         146.000
 03  3 21  2 51 30.0000000  0  9G11G23G14G18G 3G25G15G31G 9
  24312551.350    -2411245.82449  -1863530.91245  24312551.881    24312557.144
       217.000         156.000
  24132118.145    13590992.88449  10583281.09045  24132118.672    24132126.489
       210.000         154.000
  20243524.789   -10816428.66449  -8225651.77548  20243524.370    20243529.129
       245.000         222.000
  22831954.365    12020502.17849   9358169.55246  22831953.438    22831958.821
       226.000         177.000
  22793159.926     2293240.09749   1792548.25146  22793160.174    22793166.490
       225.000         177.000
  23568925.025    -9391822.01549  -7310358.11945  23568924.903    23568933.167
       215.000         162.000
  21988772.697     9245785.91449   7202012.16647  21988772.460    21988779.457
       233.000         190.000
  22662005.718    -7988998.03549  -6210555.69846  22662005.380    22662011.779
       230.000         183.000
  24325035.482      267853.80649    285858.79145  24325034.969    24325043.173
       209.000         147.000
 03  3 21  2 52  0.0000000  0  9G11G23G14G18G 3G25G15G31G 9
  24293766.288    -2509962.30149  -1940452.77445  24293765.626    24293772.373
       216.000         157.000
  24143460.902    13650599.85549  10629728.05545  24143459.431    24143468.144
       209.000         153.000
  20246322.469   -10801726.65249  -8214195.65748  20246322.303    20246326.785
       245.000         222.000
  22843835.081    12082936.03249   9406819.29346  22843835.532    22843840.724
       227.000         177.000
  22806261.668     2362089.97349   1846197.46846  22806261.464    22806268.149
       226.000         177.000
  23550400.551    -9489168.22049  -7386212.21846  23550400.367    23550408.821
       216.000         163.000
  22004800.989     9330015.02949   7267645.19047  22004800.384    22004808.183
       233.000         189.000
  22668238.434    -7956244.99649  -6185033.88146  22668238.485    22668244.969
       230.000         183.000
  24338506.286      338644.80849    341020.65545  24338506.233    24338511.783
       210.000         144.000
 03  3 21  2 52 30.0000000  0  9G11G23G14G18G 3G25G15G31G 9
  24275000.089    -2608579.85449  -2017297.54245  24274999.398    24275005.647
       215.000         157.000
  24154809.784    13710239.11749  10676200.17645  24154809.693    24154817.013
       210.000         152.000
  20249209.950   -10786552.95049  -8202371.98648  20249209.784    20249214.193
       245.000         222.000
  22855733.620    12145462.20949   9455540.97146  22855733.605    22855739.005
       226.000         178.000
  22819417.288     2431223.36349   1900067.58546  22819417.976    22819424.451
       225.000         177.000
  23531890.192    -9586440.57849  -7462008.77246  23531890.701    23531897.246
       218.000         164.000
  22020894.795     9414588.49549   7333546.56047  22020894.682    22020901.537
       232.000         189.000
  22674563.702    -7923005.87149  -6159133.28346  22674563.506    22674569.424
       230.000         183.000
  24352066.158      409902.60649    396546.28745  24352064.826    24352072.480
       208.000         142.000
 03  3 21  2 53  0.0000000  0  8G11G23G14G18G 3G25G15G31
  24256252.770    -2707097.37349  -2094064.36245  24256252.536    24256258.510
       212.000         157.000
  24166164.730    13769909.85349  10722696.81845  24166163.703    24166171.814
       209.000         153.000
  20252186.678   -10770910.16849  -8190182.79948  20252186.543    20252190.874
       245.000         222.000
  22867649.201    12208079.48849   9504333.64346  22867648.826    22867654.367
       226.000         177.000
  22832626.144     2500636.21549   1954155.47346  22832626.172    22832633.736
       226.000         178.000
  23513394.360    -9683637.08449  -7537746.22446  23513394.496    23513402.121
       219.000         163.000
  22037053.696     9499503.85549   7399714.33047  22037052.956    22037060.638
       230.000         189.000
  22680980.813    -7889283.69849  -6132856.28846  22680980.294    22680986.963
       229.000         183.000
 03  3 21  2 53 30.0000000  0  8G11G23G14G18G 3G25G15G31
  24237524.957    -2805511.81849  -2170750.87045  24237524.891    24237530.571
       210.000         155.000
  24177525.740    13829613.23049  10769218.89245  24177526.407    24177534.203
       212.000         155.000
  20255252.522   -10754798.93249  -8177628.58448  20255252.281    20255256.888
       244.000         222.000
  22879582.271    12270788.77049   9553197.99246  22879582.635    22879587.352
       226.000         176.000
  22845887.853     2570326.43349   2008459.49746  22845888.061    22845894.859
       227.000         178.000
  23494913.640    -9780754.04249  -7613421.70346  23494913.280    23494921.325
       219.000         163.000
  22053277.431     9584760.57649   7466148.09346  22053277.514    22053284.381
       230.000         187.000
  22687489.654    -7855079.61449  -6106203.77346  22687489.598    22687495.025
       230.000         182.000
 03  3 21  2 54  0.0000000  0  8G11G23G14G18G 3G25G15G31
  24218817.262    -2903821.26249  -2247355.54245  24218816.822    24218823.515
       207.000         154.000
  24188893.381    13889349.76749  10815766.79645  24188891.959    24188900.638
       211.000         154.000
  20258407.171   -10738220.79749  -8164710.55048  20258406.847    20258411.415
       244.000         222.000
  22891533.157    12333590.10949   9602134.09446  22891532.842    22891538.507
       226.000         176.000
  22859201.838     2640291.25849   2062977.50246  22859202.144    22859208.965
       226.000         177.000
  23476448.365    -9877789.33549  -7689033.56145  23476448.553    23476454.947
       218.000         162.000
  22069565.928     9670357.25849   7532846.76846  22069565.658    22069572.650
       230.000         187.000
  22694089.977    -7820395.58549  -6079177.28046  22694089.829    22694096.178
       229.000         182.000
 03  3 21  2 54 30.0000000  0  8G11G23G14G18G 3G25G15G31
  24200130.045    -3002024.01449  -2323877.06045  24200129.409    24200135.717
       206.000         152.000
  24200267.055    13949119.08149  10862340.24445  24200267.104    24200273.975
       212.000         153.000
  20261650.282   -10721177.96249  -8151430.41248  20261650.032    20261654.698
       244.000         222.000
  22903501.218    12396482.82749   9651141.38246  22903501.726    22903506.962
       227.000         176.000
  22872567.231     2710527.12749   2117706.70846  22872566.951    22872574.624
       225.000         176.000
  23457999.114    -9974740.38349  -7764579.76645  23457999.115    23458005.963
       218.000         162.000
  22085918.724     9756291.87449   7599808.77846  22085918.527    22085925.795
       231.000         187.000
  22700780.878    -7785234.33749  -6051778.92546  22700781.016    22700787.352
       229.000         182.000
 03  3 21  2 55  0.0000000  0  8G11G23G14G18G 3G25G15G31
  24181463.676    -3100117.32849  -2400313.30745  24181462.292    24181469.009
       205.000         151.000
  24211647.352    14008922.24249  10908940.09845  24211647.345    24211654.816
       212.000         154.000
  20264981.719   -10703670.97849  -8137788.60148  20264981.595    20264986.105
       245.000         222.000
  22915486.881    12459467.71649   9700220.50346  22915486.889    22915492.380
       226.000         176.000
  22885983.888     2781032.04049   2172645.55446  22885984.283    22885991.480
       225.000         175.000
  23439566.451   -10071603.78049  -7840057.65846  23439565.926    23439573.612
       218.000         164.000
  22102335.754     9842563.80049   7667033.61146  22102335.252    22102342.576
       230.000         187.000
  22707562.448    -7749597.08249  -6024009.65046  22707562.082    22707568.386
       229.000         182.000
 03  3 21  2 55 30.0000000  0  8G11G23G14G18G 3G25G15G31
  24162818.180    -3198099.49049  -2476662.93845  24162817.360    24162824.645
       205.000         151.000
  24223034.041    14068759.52849  10955566.51145  24223034.092    24223041.755
       214.000         154.000
  20268401.169   -10685701.52649  -8123786.42548  20268400.908    20268405.546
       244.000         222.000
  22927490.027    12522544.67049   9749371.34946  22927489.739    22927495.330
       225.000         175.000
  22899451.130     2851802.72649   2227791.49746  22899451.200    22899458.594
       225.000         175.000
  23421150.820   -10168376.98849  -7915465.27446  23421150.665    23421158.753
       217.000         165.000
  22118816.566     9929171.34949   7734519.98446  22118816.042    22118823.752
       228.000         186.000
  22714434.184    -7713485.97949  -5995871.14946  22714433.895    22714439.919
       229.000         182.000
 03  3 21  2 56  0.0000000  0  8G11G23G14G18G 3G25G15G31
  24144194.080    -3295967.57049  -2552923.67745  24144192.903    24144200.120
       203.000         152.000
  24234427.507    14128631.80049  11002220.20545  24234427.495    24234434.931
       215.000         154.000
  20271908.449   -10667270.66749  -8109424.71448  20271908.270    20271912.983
       245.000         222.000
  22939510.794    12585714.12649   9798594.29246  22939509.828    22939515.822
       224.000         174.000
  22912968.489     2922836.81949   2283142.69046  22912968.872    22912975.705
       225.000         176.000
  23402753.114   -10265056.51749  -7990799.88646  23402753.181    23402760.428
       218.000         166.000
  22135360.976    10016113.62449   7802267.15646  22135360.839    22135368.465
       229.000         185.000
  22721395.665    -7676902.60949  -5967364.65246  22721395.675    22721401.976
       228.000         182.000
 03  3 21  2 56 30.0000000  0  8G11G23G14G18G 3G25G15G31
  24125591.939    -3393719.70949  -2629094.08245  24125592.610    24125598.754
       208.000         154.000
  24245827.635    14188539.23449  11048901.31445  24245827.493    24245834.974
       214.000         153.000
  20275503.127   -10648380.39649  -8094705.01948  20275502.901    20275507.444
       245.000         222.000
  22951548.967    12648975.47449   9847888.82646  22951548.444    22951554.214
       224.000         174.000
  22926535.358     2994131.10149   2338696.61546  22926535.889    22926543.125
       224.000         176.000
  23384373.919   -10361640.10349  -8066059.74146  23384374.345    23384381.378
       221.000         167.000
  22151969.011    10103388.92549   7870273.83946  22151969.011    22151976.492
       230.000         186.000
  22728446.623    -7639849.37849  -5938492.05546  22728446.554    22728453.046
       229.000         182.000
 03  3 21  2 57  0.0000000  0  8G11G23G14G18G 3G25G15G31
  24107012.673    -3491354.32849  -2705172.93045  24107013.092    24107019.436
       213.000         156.000
  24257234.502    14248481.86449  11095609.84745  24257233.547    24257242.318
       214.000         153.000
  20279184.928   -10629032.54749  -8079628.76848  20279184.952    20279189.306
       245.000         222.000
  22963604.786    12712328.94449   9897255.14846  22963604.447    22963609.552
       226.000         174.000
  22940151.167     3065682.38949   2394450.83146  22940150.634    22940158.471
       224.000         176.000
  23366013.609   -10458125.07849  -8141242.75746  23366013.945    23366020.449
       221.000         167.000
  22168639.993    10190995.31949   7938538.52646  22168639.990    22168647.135
       230.000         186.000
  22735586.630    -7602328.77549  -5909255.26046  22735586.411    22735592.362
       229.000         182.000
 03  3 21  2 57 30.0000000  0  8G11G23G14G18G 3G25G15G31
  24088456.349    -3588869.30349  -2781158.54145  24088456.059    24088462.911
       216.000         158.000
  24268647.950    14308459.78049  11142345.85245  24268647.095    24268654.752
       212.000         152.000
  20282953.481   -10609229.00049  -8064197.42748  20282953.344    20282957.807
       245.000         222.000
  22975678.004    12775774.05549   9946692.87446  22975677.929    22975683.559
       225.000         174.000
  22953815.170     3137487.59449   2450402.88946  22953815.294    22953822.683
       224.000         175.000
  23347672.323   -10554509.19549  -8216347.19446  23347672.463    23347679.678
       221.000         166.000
  22185373.691    10278931.15949   8007059.90546  22185373.715    22185381.669
       230.000         186.000
  22742815.057    -7564343.06149  -5879656.05646  22742814.977    22742820.998
       229.000         182.000
 03  3 21  2 58  0.0000000  0  8G11G23G14G18G 3G25G15G31
  24069923.182    -3686261.96249  -2857048.84245  24069922.739    24069929.565
       217.000         159.000
  24280068.084    14368474.00349  11189110.14745  24280067.569    24280075.248
       212.000         152.000
  20286808.529   -10588970.65149  -8048411.69948  20286808.345    20286812.797
       245.000         222.000
  22987768.819    12839311.51749   9996202.57846  22987768.409    22987774.455
       223.000         174.000
  22967527.320     3209544.43349   2506551.04446  22967527.442    22967535.230
       226.000         176.000
  23329350.948   -10650788.90449  -8291370.28446  23329351.156    23329357.819
       222.000         166.000
  22202169.979    10367195.72649   8075837.44046  22202169.528    22202177.452
       229.000         185.000
  22750131.775    -7525893.81549  -5849695.65646  22750131.472    22750138.570
       228.000         182.000
 03  3 21  2 58 30.0000000  0  8G11G23G14G18G 3G25G15G31
  24051413.391    -3783531.02949  -2932842.85245  24051413.043    24051419.254
       219.000         160.000
  24291495.315    14428523.88949  11235902.27345  24291495.298    24291502.299
       214.000         152.000
  20290749.617   -10568260.05149  -8032273.56948  20290749.506    20290753.918
       245.000         222.000
  22999876.973    12902940.37649  10045783.48246  22999876.787    22999881.367
       223.000         172.000
  22981286.574     3281849.20949   2562892.39346  22981286.746    22981294.338
       225.000         176.000
  23311049.946   -10746962.17749  -8366310.43146  23311049.426    23311055.941
       222.000         166.000
  22219028.308    10455786.78049   8144869.38246  22219027.907    22219035.107
       229.000         184.000
  22757536.059    -7486984.02449  -5819376.39046  22757536.046    22757541.922
       229.000         181.000
 03  3 21  2 59  0.0000000  0  8G11G23G14G18G 3G25G15G31
  24032927.741    -3880673.28349  -3008538.05445  24032927.780    24032934.911
       221.000         160.000
  24302929.248    14488610.63249  11282723.07345  24302927.553    24302936.657
       209.000         151.000
  20294776.604   -10547098.09549  -8015783.73048  20294776.469    20294780.856
       245.000         222.000
  23012002.563    12966661.46049  10095436.25546  23012002.492    23012007.782
       225.000         172.000
  22995092.367     3354399.49049   2619425.03646  22995092.699    22995100.350
       224.000         176.000
  23292769.611   -10843025.86749  -8441165.18446  23292770.061    23292776.307
       221.000         167.000
  22235948.624    10544703.26949   8214154.90646  22235948.283    22235955.590
       229.000         184.000
  22765027.767    -7447615.07549  -5788699.33246  22765028.129    22765034.107
       229.000         181.000
 03  3 21  2 59 30.0000000  0  8G11G23G14G18G 3G25G15G31
  24014466.842    -3977686.20949  -3084132.47445  24014466.321    24014472.929
       222.000         159.000
  24314370.420    14548735.15049  11329573.31845  24314370.901    24314378.098
       210.000         150.000
  20298889.297   -10525485.86549  -7998943.02748  20298889.022    20298893.715
       245.000         222.000
  23024146.163    13030475.31849  10145161.34046  23024146.365    23024151.207
       225.000         173.000
  23008944.566     3427193.14049   2676147.31746  23008945.179    23008951.678
       224.000         175.000
  23274510.717   -10938976.49149  -8515931.84446  23274509.792    23274517.040
       222.000         167.000
  22252930.716    10633944.40549   8283693.39946  22252930.956    22252937.342
       229.000         184.000
  22772606.516    -7407788.71349  -5757665.85046  22772606.463    22772612.920
       229.000         182.000
 03  3 21  3  0  0.0000000  0  8G11G23G14G18G 3G25G15G31
  23996030.687    -4074569.01849  -3159625.52045  23996031.033    23996036.443
       223.000         158.000
  24325819.041    14608896.61849  11376452.38445  24325819.166    24325826.253
       210.000         150.000
  20303087.118   -10503426.00449  -7981753.52648  20303086.805    20303091.398
       245.000         222.000
  23036306.967    13094381.04849  10194957.99246  23036306.457    23036310.875
       223.000         172.000
  23022842.282     3500226.08049   2733056.06846  23022842.748    23022850.578
       223.000         174.000
  23256273.481   -11034812.51649  -8590609.21046  23256273.297    23256281.077
       220.000         168.000
  22269974.183    10723507.48549   8353482.75946  22269974.457    22269981.049
       230.000         184.000
  22780271.676    -7367508.11049  -5726278.41746  22780271.556    22780278.144
       229.000         182.000
 03  3 21  3  0 30.0000000  0  8G11G23G14G18G 3G25G15G31
  23977619.645    -4171319.13649  -3235015.18445  23977619.549    23977625.429
       222.000         157.000
  24337274.536    14669095.62849  11423360.67045  24337274.326    24337282.366
       208.000         149.000
  20307369.788   -10480920.10249  -7964216.45548  20307369.461    20307374.082
       245.000         222.000
  23048485.146    13158378.59549  10244826.18946  23048485.166    23048490.105
       224.000         172.000
  23036785.027     3573495.48949   2790149.08246  23036784.926    23036792.891
       222.000         173.000
  23238058.759   -11130530.79949  -8665194.83146  23238059.346    23238065.501
       221.000         169.000
  22287078.611    10813391.10049   8423521.89946  22287078.337    22287085.526
       228.000         183.000
  22788022.982    -7326775.44049  -5694538.72146  22788022.630    22788029.086
       228.000         181.000
 03  3 21  3  1  0.0000000  0  8G11G23G14G18G 3G25G15G31
  23959234.423    -4267933.94249  -3310299.39145  23959234.237    23959240.637
       223.000         157.000
  24348737.253    14729333.28549  11470299.07345  24348736.441    24348744.651
       207.000         149.000
  20311737.207   -10457969.17449  -7946332.60948  20311737.017    20311741.541
       245.000         222.000
  23060681.182    13222468.63449  10294766.47246  23060680.903    23060686.722
       225.000         173.000
  23050772.256     3646998.85749   2847424.38746  23050771.863    23050779.172
       220.000         172.000
  23219867.441   -11226127.70649  -8739685.86346  23219867.101    23219874.591
       222.000         169.000
  22304243.785    10903594.42049   8493810.16446  22304243.254    22304250.998
       228.000         183.000
  22795859.844    -7285592.30449  -5662448.02346  22795859.385    22795865.868
       227.000         180.000
 03  3 21  3  1 30.0000000  0  8G11G23G14G18G 3G25G15G31
  23940875.599    -4364411.23349  -3385476.44145  23940874.857    23940881.525
       223.000         156.000
  24360207.409    14789609.64349  11517267.63645  24360208.748    24360215.892
       213.000         153.000
  20316188.875   -10434575.16049  -7928103.50348  20316188.545    20316193.331
       245.000         222.000
  23072894.764    13286651.12549  10344778.79846  23072894.687    23072900.275
       225.000         172.000
  23064803.325     3720733.12649   2904879.61346  23064803.859    23064811.525
       222.000         172.000
  23201699.438   -11321600.67549  -8814080.32346  23201698.868    23201706.246
       222.000         169.000
  22321469.497    10994115.56349   8564346.07046  22321469.148    22321476.801
       229.000         183.000
  22803782.019    -7243961.16049  -5630008.21746  22803781.880    22803788.499
       228.000         180.000
 03  3 21  3  2  0.0000000  0  8G11G23G14G18G 3G25G15G31
  23922543.171    -4460749.68049  -3460545.31445  23922543.088    23922548.483
       223.000         156.000
  24371685.151    14849924.41149  11564266.14845  24371684.234    24371693.177
       213.000         155.000
  20320724.400   -10410740.47949  -7909531.01948  20320724.195    20320728.815
       246.000         222.000
  23085125.643    13350925.28249  10394862.54146  23085125.380    23085131.680
       225.000         172.000
  23078877.940     3794694.84449   2962512.08646  23078878.215    23078885.196
       224.000         171.000
  23183555.231   -11416948.11149  -8888376.97546  23183555.009    23183561.915
       222.000         169.000
  22338755.175    11084952.27449   8635127.87546  22338754.612    22338762.188
       228.000         182.000
  22811789.021    -7201885.06949  -5597221.70146  22811788.138    22811794.832
       227.000         180.000
 03  3 21  3  2 30.0000000  0  8G11G23G14G18G 3G25G15G31
  23904237.560    -4556946.03149  -3535503.45145  23904237.491    23904242.731
       221.000         157.000
  24383170.078    14910279.00349  11611295.66245  24383170.332    24383177.640
       213.000         155.000
  20325343.737   -10386465.77749  -7890615.66648  20325343.697    20325348.145
       245.000         222.000
  23097374.253    13415292.05449  10445018.45846  23097374.241    23097379.927
       225.000         172.000
  23092995.350     3868881.84249   3020320.09846  23092995.892    23093002.689
       223.000         172.000
  23165435.709   -11512166.47049  -8962573.04546  23165436.062    23165443.166
       222.000         170.000
  22356100.726    11176103.92549   8706155.08846  22356099.974    22356107.524
       228.000         183.000
  22819880.198    -7159365.26049  -5564089.44746  22819879.776    22819886.593
       227.000         180.000
 03  3 21  3  3  0.0000000  0  8G11G23G14G18G 3G25G15G31
  23885959.439    -4652997.68349  -3610348.83345  23885958.575    23885965.798
       219.000         157.000
  24394663.002    14970673.96049  11658356.67045  24394663.596    24394669.833
       215.000         157.000
  20330046.571   -10361752.56549  -7871358.60748  20330046.452    20330050.861
       246.000         222.000
  23109640.546    13479751.70249  10495246.73846  23109639.739    23109645.887
       226.000         172.000
  23107155.014     3943291.48649   3078301.60146  23107154.760    23107162.758
       222.000         171.000
  23147341.530   -11607252.34949  -9036665.87546  23147341.669    23147348.359
       224.000         170.000
  22373505.968    11267569.16849   8777426.67046  22373505.085    22373512.357
       228.000         182.000
  22828055.490    -7116403.87849  -5530613.10246  22828055.176    22828062.072
       226.000         179.000
 03  3 21  3  3 30.0000000  0  8G11G23G14G18G 3G25G15G31
  23867709.147    -4748903.13249  -3685080.28445  23867708.769    23867714.300
       218.000         158.000
  24406163.659    15031109.10549  11705448.97545  24406162.855    24406170.859
       213.000         157.000
  20334832.371   -10336603.05549  -7851761.57848  20334832.069    20334836.597
       246.000         222.000
  23121924.550    13544304.02649  10545547.23446  23121924.785    23121928.220
       228.000         172.000
  23121356.466     4017920.24949   3136453.83446  23121356.468    23121364.363
       222.000         170.000
  23129273.018   -11702203.42949  -9110653.66446  23129272.398    23129279.090
       223.000         170.000
  22390970.565    11359346.09749   8848941.11546  22390969.704    22390976.904
       227.000         181.000
  22836314.208    -7073003.70549  -5496794.85146  22836313.949    22836320.340
       226.000         179.000
 03  3 21  3  4  0.0000000  0  8G11G23G14G18G 3G25G15G31
  23849487.140    -4844659.69549  -3759695.70745  23849486.664    23849493.004
       216.000         159.000
  24417671.833    15091585.24849  11752573.21645  24417672.037    24417679.454
       213.000         156.000
  20339700.870   -10311018.78849  -7831825.77948  20339700.788    20339705.192
       246.000         222.000
  23134226.171    13608949.12049  10595920.03146  23134225.959    23134231.370
       227.000         171.000
  23135599.035     4092765.60049   3194774.83646  23135599.308    23135606.774
       222.000         169.000
  23111230.521   -11797016.40549  -9184533.85646  23111230.738    23111237.175
       224.000         171.000
  22408494.135    11451433.19649   8920697.25846  22408493.773    22408500.888
       227.000         181.000
  22844656.186    -7029166.67249  -5462636.18746  22844655.794    22844662.117
       226.000         179.000
 03  3 21  3  4 30.0000000  0  8G11G23G14G18G 3G25G15G31
  23831293.723    -4940265.55649  -3834193.70545  23831292.979    23831299.955
       217.000         160.000
  24429187.906    15152102.51649  11799729.50745  24429187.695    24429194.748
       215.000         156.000
  20344651.785   -10285001.70349  -7811552.72148  20344651.681    20344656.183
       246.000         222.000
  23146545.389    13673686.97849  10646365.08346  23146545.450    23146550.977
       227.000         172.000
  23149882.328     4167824.28649   3253262.07446  23149882.050    23149889.567
       222.000         170.000
  23093214.959   -11891688.97249  -9258304.62646  23093214.500    23093221.530
       222.000         171.000
  22426076.526    11543828.85349   8992693.82746  22426076.750    22426083.778
       229.000         182.000
  22853080.658    -6984895.43749  -5428139.19546  22853080.352    22853087.624
       225.000         178.000
 03  3 21  3  5  0.0000000  0  8G11G23G14G18G 3G25G15G31
  23813129.432    -5035718.84649  -3908572.81545  23813129.214    23813135.395
       217.000         160.000
  24440711.971    15212661.24449  11846918.12845  24440711.987    24440718.445
       214.000         156.000
  20349684.691   -10258553.70049  -7790943.87748  20349684.417    20349688.926
       245.000         222.000
  23158882.294    13738517.27149  10696882.19746  23158881.820    23158886.676
       225.000         171.000
  23164205.497     4243092.99449   3311912.96046  23164206.044    23164213.438
       222.000         170.000
  23075226.637   -11986218.43849  -9331963.88946  23075226.503    23075232.452
       223.000         172.000
  22443717.385    11636531.38849   9064929.52946  22443716.958    22443724.143
       227.000         182.000
  22861587.381    -6940192.56149  -5393305.83946  22861587.382    22861594.079
       227.000         179.000
 03  3 21  3  5 30.0000000  0  8G11G23G14G18G 3G25G15G31
  23794994.805    -5131016.95949  -3982830.99745  23794994.108    23795000.851
       216.000         160.000
  24452244.004    15273261.77049  11894139.31345  24452243.234    24452252.050
       213.000         157.000
  20354799.202   -10231676.50149  -7770000.60848  20354798.996    20354803.602
       245.000         222.000
  23171236.651    13803440.33549  10747471.57046  23171236.237    23171242.399
       224.000         170.000
  23178568.168     4318569.02449   3370725.40946  23178568.021    23178575.597
       223.000         171.000
  23057265.930   -12080602.18449  -9405509.61046  23057265.607    23057273.540
       221.000         171.000
  22461416.048    11729538.90949   9137402.89146  22461415.656    22461422.935
       226.000         181.000
  22870175.976    -6895060.35949  -5358137.94646  22870175.837    22870182.720
       227.000         179.000
 03  3 21  3  6  0.0000000  0  8G11G23G14G18G 3G25G15G31
  23776890.157    -5226156.97749  -4056965.99745  23776889.372    23776895.655
       214.000         160.000
  24463783.838    15333905.04049  11941393.76845  24463783.655    24463792.032
       214.000         157.000
  20359995.224   -10204371.21649  -7748723.75248  20359995.059    20359999.661
       246.000         222.000
  23183608.786    13868456.52549  10798133.53046  23183609.241    23183614.972
       225.000         169.000
  23192969.839     4394249.96049   3429697.51546  23192969.571    23192977.524
       222.000         171.000
  23039333.503   -12174836.72449  -9478939.04646  23039333.821    23039339.901
       222.000         171.000
  22479172.618    11822850.53349   9210113.20446  22479172.423    22479180.440
       227.000         180.000
  22878845.687    -6849500.64449  -5322636.93846  22878845.535    22878852.318
       227.000         179.000
 03  3 21  3  6 30.0000000  0  8G11G23G14G18G 3G25G15G31
  23758815.478    -5321137.78749  -4130976.93845  23758814.945    23758821.934
       211.000         160.000
  24475332.152    15394590.58449  11988681.20345  24475331.930    24475338.848
       214.000         157.000
  20365272.163   -10176640.71649  -7727115.56348  20365271.916    20365276.470
       246.000         222.000
  23195998.751    13933565.47849  10848867.75946  23195999.124    23196003.267
       225.000         169.000
  23207409.691     4470132.17449   3488826.45346  23207409.914    23207416.844
       223.000         171.000
  23021429.922   -12268920.16849  -9552250.76246  23021429.466    23021436.672
       224.000         173.000
  22496986.746    11916463.60849   9283058.41946  22496986.061    22496994.353
       227.000         181.000
  22887596.261    -6803516.63649  -5286805.30646  22887596.327    22887602.910
       227.000         180.000
 03  3 21  3  7  0.0000000  0  8G11G23G14G18G 3G25G15G31
  23740771.844    -5415956.39949  -4204861.49745  23740772.265    23740778.121
       212.000         159.000
  24486888.447    15455319.36349  12036002.33045  24486887.700    24486894.080
       214.000         156.000
  20370629.764   -10148486.11349  -7705176.90548  20370629.537    20370634.162
       246.000         222.000
  23208406.242    13998767.64549  10899674.63946  23208405.675    23208411.986
       222.000         167.000
  23221887.516     4546212.92249   3548110.10846  23221888.211    23221894.992
       223.000         171.000
  23003555.827   -12362849.05249  -9625442.04146  23003555.630    23003563.342
       223.000         173.000
  22514857.912    12010376.94249   9356237.61046  22514857.469    22514864.810
       227.000         180.000
  22896427.146    -6757110.19449  -5250644.50146  22896427.463    22896434.077
       227.000         180.000
 03  3 21  3  7 30.0000000  0  8G11G23G14G18G 3G25G15G31
  23722760.041    -5510610.75849  -4278618.05445  23722758.846    23722766.226
       214.000         159.000
  24498453.061    15516091.79549  12083357.45745  24498452.135    24498461.028
       214.000         157.000
  20376067.784   -10119909.06449  -7682909.06648  20376067.592    20376072.155
       245.000         222.000
  23220831.299    14064062.83349  10950553.98346  23220830.843    23220837.273
       222.000         167.000
  23236402.553     4622489.21549   3607546.14046  23236402.034    23236409.660
       223.000         171.000
  22985711.486   -12456621.08249  -9698511.08646  22985711.503    22985719.098
       223.000         173.000
  22532785.820    12104588.91249   9429649.48546  22532786.047    22532793.075
       227.000         180.000
  22905337.860    -6710283.85249  -5214156.49446  22905338.074    22905344.680
       228.000         180.000
 03  3 21  3  8  0.0000000  0  8G11G23G14G18G 3G25G15G31
  23704779.869    -5605098.70749  -4352244.93145  23704778.823    23704785.295
       214.000         160.000
  24510025.920    15576908.24649  12130746.86845  24510025.712    24510033.268
       211.000         156.000
  20381585.839   -10090911.65149  -7660313.66948  20381585.602    20381590.009
       244.000         222.000
  23233274.365    14129451.03449  11001505.83046  23233274.928    23233279.249
       224.000         168.000
  23250954.206     4698957.96849   3667132.11946  23250954.079    23250961.453
       222.000         170.000
  22967897.473   -12550233.54649  -9771455.80146  22967897.505    22967904.389
       221.000         173.000
  22550770.370    12199097.71049   9503292.67446  22550770.147    22550778.055
       228.000         181.000
  22914328.117    -6663040.24349  -5177343.35646  22914328.431    22914334.637
       227.000         179.000
 03  3 21  3  8 30.0000000  0  8G11G23G14G18G 3G25G15G31
  23686831.465    -5699417.72749  -4425740.19145  23686830.728    23686837.146
       214.000         162.000
  24521607.452    15637769.06849  12178170.86345  24521608.344    24521614.316
       215.000         157.000
  20387183.480   -10061495.60449  -7637392.06848  20387183.387    20387187.815
       244.000         222.000
  23245735.233    14194932.92549  11052530.67146  23245735.622    23245740.114
       223.000         167.000
  23265541.816     4775616.60349   3726866.05346  23265541.891    23265549.625
       222.000         170.000
  22950114.589   -12643682.77949  -9844273.30846  22950114.836    22950122.299
       223.000         174.000
  22568811.012    12293901.83249   9577165.98846  22568810.937    22568818.545
       227.000         181.000
  22923397.290    -6615381.58149  -5140206.80446  22923398.052    22923403.884
       229.000         179.000
 03  3 21  3  9  0.0000000  0  8G11G23G14G18G 3G25G15G31
  23668915.510    -5793565.15649  -4499101.76146  23668915.521    23668921.305
       218.000         165.000
  24533197.581    15698674.93649  12225629.98645  24533196.701    24533203.955
       212.000         155.000
  20392860.499   -10031662.63849  -7614145.58848  20392860.197    20392864.974
       244.000         222.000
  23258213.795    14260508.16249  11103628.25446  23258214.423    23258218.942
       225.000         168.000
  23280165.112     4852462.34549   3786745.80546  23280165.317    23280172.486
       223.000         171.000
  22932363.355   -12736966.19049  -9916961.60646  22932363.705    22932370.626
       225.000         175.000
  22586907.536    12388999.77049   9651268.24346  22586906.620    22586914.504
       226.000         179.000
  22932545.132    -6567310.10249  -5102748.54746  22932544.600    22932551.611
       228.000         179.000
 03  3 21  3  9 30.0000000  0  8G11G23G14G18G 3G25G15G31
  23651032.714    -5887539.86049  -4572328.73246  23651032.571    23651037.784
       222.000         168.000
  24544795.933    15759625.85349  12273124.18545  24544795.821    24544803.703
       212.000         155.000
  20398616.417   -10001415.02449  -7590576.00748  20398616.092    20398620.826
       244.000         222.000
  23270710.275    14326176.65549  11154798.48346  23270710.133    23270715.741
       224.000         168.000
  23294823.441     4929491.48649   3846768.46146  23294823.789    23294830.444
       222.000         170.000
  22914644.078   -12830081.72049  -9989519.10146  22914644.562    22914651.274
       225.000         176.000
  22605059.534    12484389.12049   9725597.57246  22605058.933    22605066.765
       224.000         178.000
  22941770.687    -6518829.04449  -5064971.15446  22941770.653    22941777.504
       227.000         179.000
 03  3 21  3 10  0.0000000  0  8G11G23G14G18G 3G25G15G31
  23633183.538    -5981338.75249  -4645418.70946  23633183.228    23633188.640
       225.000         171.000
  24556403.265    15820622.67449  12320654.16945  24556403.156    24556410.772
       212.000         153.000
  20404450.957    -9970754.10449  -7566684.36548  20404450.713    20404455.286
       245.000         222.000
  23283224.349    14391938.76949  11206041.70546  23283223.530    23283228.983
       223.000         168.000
  23309516.106     5006701.60449   3906932.14046  23309515.688    23309523.377
       220.000         169.000
  22896957.429   -12923025.93849 -10061943.10346  22896957.496    22896963.991
       224.000         176.000
  22623266.676    12580068.75049   9800153.09746  22623265.689    22623273.543
       225.000         177.000
  22951074.010    -6469940.25949  -5026876.04946  22951073.632    22951080.597
       228.000         179.000
 03  3 21  3 10 30.0000000  0  8G11G23G14G18G 3G25G15G31
  23615368.134    -6074959.35749  -4718369.76746  23615367.971    23615373.630
       226.000         173.000
  24568019.325    15881665.88449  12368220.29545  24568019.334    24568027.400
       211.000         152.000
  20410363.858    -9939681.56249  -7542471.98948  20410363.639    20410368.222
       244.000         222.000
  23295756.219    14457794.73149  11257358.01746  23295755.904    23295760.516
       223.000         167.000
  23324242.446     5084090.01549   3967234.74946  23324241.703    23324250.144
       220.000         168.000
  22879303.668   -13015796.00049 -10134231.41046  22879304.067    22879310.334
       224.000         176.000
  22641528.836    12676037.30749   9874933.74746  22641529.255    22641536.394
       226.000         177.000
  22960454.439    -6420646.10149  -4988465.06246  22960454.198    22960461.372
       227.000         179.000
 03  3 21  3 11  0.0000000  0  8G11G23G14G18G 3G25G15G31
  23597586.925    -6168399.38349  -4791180.11146  23597587.040    23597592.340
       226.000         174.000
  24579644.405    15942755.67549  12415822.72745  24579644.476    24579650.898
       207.000         149.000
  20416354.691    -9908199.46549  -7517940.47548  20416354.392    20416359.110
       244.000         221.000
  23308306.100    14523744.52549  11308747.46246  23308306.205    23308310.773
       223.000         167.000
  23339002.143     5161653.49049   4027673.77146  23339002.375    23339010.108
       219.000         167.000
  22861683.716   -13108389.26449 -10206381.93646  22861683.346    22861690.524
       225.000         176.000
  22659845.673    12772292.66749   9949937.88546  22659845.645    22659852.812
       225.000         176.000
  22969911.437    -6370949.20949  -4949740.26346  22969911.661    22969918.521
       227.000         179.000
 03  3 21  3 11 30.0000000  0  8G11G23G14G18G 3G25G15G31
  23579840.596    -6261656.53749  -4863847.96246  23579840.736    23579845.635
       227.000         174.000
  24591278.275    16003892.68249  12463461.95445  24591277.233    24591285.285
       208.000         146.000
  20422423.127    -9876309.50249  -7493091.14048  20422422.731    20422427.546
       244.000         221.000
  23320873.943    14589788.41649  11360210.21346  23320873.445    23320878.506
       224.000         168.000
  23353794.894     5239389.28749   4088247.06046  23353795.514    23353802.417
       219.000         167.000
  22844098.037   -13200802.71749 -10278392.33346  22844097.670    22844105.020
       225.000         177.000
  22678216.766    12868833.18049  10025164.21346  22678216.537    22678223.736
       225.000         176.000
  22979444.794    -6320852.15649  -4910703.61446  22979444.312    22979450.878
       228.000         178.000
 03  3 21  3 12  0.0000000  0  8G11G23G14G18G 3G25G15G31
  23562129.449    -6354729.24649  -4936372.09446  23562128.758    23562134.579
       226.000         174.000
  24602921.288    16065076.78449  12511137.85245  24602921.232    24602928.943
       206.000         143.000
  20428568.698    -9844014.21949  -7467925.97848  20428568.626    20428573.165
       244.000         221.000
  23333459.451    14655925.81449  11411745.83146  23333458.493    23333464.403
       220.000         167.000
  23368619.719     5317293.53549   4148951.63346  23368619.022    23368626.610
       220.000         167.000
  22826546.833   -13293034.26149 -10350260.99946  22826546.830    22826553.924
       224.000         178.000
  22696641.755    12965656.60949  10100611.00546  22696641.122    22696649.365
       224.000         176.000
  22989053.589    -6270358.11549  -4871357.66246  22989053.110    22989059.857
       226.000         177.000
 03  3 21  3 12 30.0000000  0  8G11G23G14G18G 3G25G15G31
  23544453.847    -6447614.67549  -5008750.27646  23544454.343    23544459.427
       224.000         172.000
  24614573.503    16126309.03149  12558851.29545  24614572.576    24614580.520
       205.000         140.000
  20434791.237    -9811314.69849  -7442445.82248  20434791.059    20434795.603
       244.000         222.000
  23346062.806    14722157.66849  11463355.04846  23346062.787    23346068.712
       222.000         167.000
  23383476.013     5395364.24249   4209785.91246  23383476.586    23383483.008
       220.000         166.000
  22809030.789   -13385080.51949 -10421985.28846  22809030.617    22809037.706
       225.000         178.000
  22715120.263    13062762.02249  10176277.51746  22715120.030    22715128.201
       223.000         176.000
  22998737.432    -6219468.90149  -4831703.77946  22998737.186    22998744.183
       226.000         177.000
 03  3 21  3 13  0.0000000  0  8G11G23G14G18G 3G25G15G31
  23526814.256    -6540310.57249  -5080980.79146  23526814.195    23526819.461
       223.000         170.000
  24626234.686    16187589.38049  12606602.19945  24626232.494    24626239.987
       201.000         134.000
  20441090.241    -9778213.21649  -7416652.44948  20441090.028    20441094.547
       244.000         221.000
  23358684.239    14788483.46449  11515037.47346  23358684.349    23358689.814
       222.000         168.000
  23398363.430     5473597.96049   4270747.20346  23398363.110    23398371.330
       220.000         166.000
  22791550.605   -13476939.15649 -10493563.38746  22791550.708    22791557.254
       227.000         179.000
  22733652.033    13160147.22549  10252162.06746  22733651.850    22733659.383
       224.000         176.000
  23008496.064    -6168187.35049  -4791744.15746  23008496.180    23008502.696
       226.000         176.000
 03  3 21  3 13 30.0000000  0  8G11G23G14G18G 3G25G15G31
  23509211.338    -6632814.17049  -5153061.45146  23509210.682    23509217.320
       223.000         168.000
  24637905.401    16248918.81549  12654391.36244  24637903.354    24637912.215
       199.000         130.000
  20447465.417    -9744711.18549  -7390546.95948  20447465.114    20447469.711
       244.000         221.000
  23371323.563    14854903.72749  11566793.51346  23371323.000    23371328.129
       220.000         166.000
  23413281.479     5551992.30449   4331833.66846  23413281.532    23413289.787
       222.000         167.000
  22774106.970   -13568607.11449 -10564992.89246  22774107.344    22774113.307
       227.000         179.000
  22752236.869    13257810.91249  10328263.59546  22752236.404    22752244.755
       224.000         175.000
  23018328.953    -6116515.54749  -4751480.46046  23018328.503    23018334.961
       225.000         175.000
 03  3 21  3 14  0.0000000  0  8G11G23G14G18G 3G25G15G31
  23491645.450    -6725123.82849  -5224990.98546  23491645.752    23491649.986
       221.000         165.000
  24649585.374    16310297.13249  12702218.59244  24649587.106    24649594.588
       197.000         127.000
  20453916.373    -9710811.18749  -7364131.37048  20453916.228    20453920.731
       244.000         221.000
  23383980.818    14921418.07449  11618622.85346  23383980.267    23383985.636
       221.000         166.000
  23428229.471     5630543.63949   4393042.46646  23428229.784    23428237.084
       222.000         167.000
  22756699.996   -13660082.00149 -10636271.95646  22756699.775    22756706.494
       226.000         178.000
  22770874.316    13355750.73249  10404580.29646  22770874.232    22770881.514
       224.000         175.000
  23028235.157    -6064456.91949  -4710915.36146  23028234.875    23028241.435
       225.000         175.000
 03  3 21  3 14 30.0000000  0  8G11G23G14G18G 3G25G15G31
  23474116.928    -6817236.76449  -5296767.24445  23474117.127    23474121.405
       219.000         162.000
  24661274.698    16371725.03648  12750084.47444  24661272.896    24661279.752
       191.000         123.000
  20460442.783    -9676514.79249  -7337406.89748  20460442.770    20460447.094
       245.000         221.000
  23396656.193    14988027.00149  11670525.90346  23396655.612    23396661.885
       220.000         166.000
  23443206.822     5709249.30849   4454371.51746  23443206.216    23443214.026
       222.000         166.000
  22739330.080   -13751360.29349 -10707397.83646  22739329.800    22739336.456
       225.000         178.000
  22789563.936    13453965.21149  10481111.00846  22789562.274    22789571.615
       223.000         174.000
  23038214.831    -6012013.54549  -4670050.45446  23038214.366    23038221.659
       226.000         174.000
 03  3 21  3 15  0.0000000  0  8G11G23G14G18G 3G25G15G31
  23456626.296    -6909150.62249  -5368388.37145  23456625.466    23456632.424
       220.000         160.000
  24672973.265    16433203.35348  12797989.60344  24672974.305    24672977.145
       191.000         117.000
  20467044.296    -9641823.53949  -7310374.74048  20467043.960    20467048.799
       244.000         221.000
  23409349.526    15054730.82249  11722502.88846  23409349.245    23409355.082
       219.000         165.000
  23458212.771     5788106.46149   4515818.58546  23458212.867    23458219.799
       220.000         166.000
  22721998.226   -13842439.18949 -10778368.33546  22721998.348    22722005.018
       226.000         179.000
  22808305.451    13552452.60049  10557854.39546  22808305.539    22808312.965
       223.000         173.000
  23048267.356    -5959187.83449  -4628887.60846  23048267.846    23048274.335
       226.000         175.000
 03  3 21  3 15 30.0000000  0  8G11G23G14G18G 3G25G15G31
  23439173.867    -7000863.87849  -5439853.19645  23439173.498    23439179.854
       221.000         159.000
  24684681.936    16494731.50448  12845933.64344  24684682.130    24684686.359
       190.000         113.000
  20473720.350    -9606740.44549  -7283037.25348  20473720.188    20473724.916
       244.000         221.000
  23422060.556    15121528.91449  11774553.33646  23422060.055    23422065.242
       219.000         164.000
  23473247.029     5867111.24549   4577380.70946  23473247.369    23473254.779
       218.000         166.000
  22704704.841   -13933316.94349 -10849182.10546  22704705.000    22704711.591
       227.000         180.000
  22827098.496    13651210.35249  10634808.44046  22827097.669    22827105.745
       222.000         172.000
  23058391.826    -5905983.38549  -4587429.64846  23058391.478    23058399.058
       224.000         174.000
 03  3 21  3 16  0.0000000  0  8G11G23G14G18G 3G25G15G31
  23421760.077    -7092373.51349  -5511159.36045  23421760.143    23421764.767
       221.000         159.000
  24696399.874    16556310.70948  12893917.43644  24696396.910    24696409.870
       183.000         112.000
  20480470.827    -9571266.53949  -7255395.23948  20480470.555    20480475.040
       244.000         221.000
  23434789.759    15188421.74349  11826677.60946  23434788.943    23434795.108
       219.000         165.000
  23488309.006     5946261.61849   4639056.24546  23488308.612    23488316.780
       219.000         166.000
  22687450.360   -14023990.30849 -10919836.62446  22687450.415    22687456.521
       227.000         181.000
  22845942.801    13750237.73049  10711972.59546  22845942.953    22845950.308
       223.000         173.000
  23068587.957    -5852401.89849  -4545677.87946  23068588.618    23068595.015
       225.000         174.000
 03  3 21  3 16 30.0000000  0  8G11G23G14G18G 3G25G15G31
  23404385.499    -7183676.46249  -5582304.47845  23404385.221    23404389.701
       220.000         160.000
  24708127.329    16617942.00748  12941941.76544  24708124.641    24708132.588
       192.000         112.000
  20487295.381    -9535403.00749  -7227449.61848  20487295.241    20487299.790
       244.000         221.000
  23447537.364    15255410.39349  11878876.54546  23447537.617    23447543.055
       221.000         168.000
  23503398.031     6025555.54749   4700843.64446  23503398.096    23503406.237
       217.000         166.000
  22670235.303   -14114455.26749 -10990328.73046  22670235.103    22670242.241
       227.000         180.000
  22864838.252    13849533.47649  10789345.87946  22864838.272    22864845.508
       222.000         173.000
  23078855.681    -5798445.46649  -4503633.96446  23078855.851    23078862.399
       225.000         174.000
 03  3 21  3 17  0.0000000  0  8G11G23G14G18G 3G25G15G31
  23387050.704    -7274771.14749  -5653287.30045  23387051.281    23387055.574
       222.000         162.000
  24719865.147    16679624.77148  12990006.27344  24719859.717    24719868.451
       193.000         109.000
  20494193.519    -9499152.94449  -7199202.80248  20494193.315    20494198.012
       245.000         221.000
  23460303.015    15322494.08049  11931149.52046  23460303.200    23460308.324
       221.000         166.000
  23518513.736     6104989.06749   4762739.80046  23518514.171    23518521.192
       219.000         166.000
  22653060.274   -14204710.18649 -11060657.16746  22653059.723    22653066.915
       227.000         180.000
  22883784.043    13949094.54649  10866925.90046  22883783.656    22883791.421
       223.000         172.000
  23089193.940    -5744117.85049  -4461300.81246  23089193.294    23089200.877
       225.000         173.000
 03  3 21  3 17 30.0000000  0  8G11G23G14G18G 3G25G15G31
  23369756.083    -7365655.88449  -5724106.51646  23369756.254    23369760.105
       223.000         165.000
  24731612.828    16741359.35948  13038111.16844                  24731613.320
       194.000         108.000
  20501164.788    -9462518.67749  -7170656.60548  20501164.599    20501169.150
       245.000         221.000
  23473086.729    15389672.13649  11983496.04546  23473086.800    23473092.490
       219.000         166.000
  23533655.395     6184558.51749   4824741.89546  23533655.399    23533662.673
       220.000         166.000
  22635925.664   -14294752.93949 -11130820.28846  22635925.265    22635932.252
       227.000         180.000
  22902779.965    14048918.71649  10944710.93246  22902778.806    22902787.191
       222.000         172.000
  23099602.223    -5689421.98449  -4418680.72546  23099602.418    23099608.321
       226.000         172.000
 03  3 21  3 18  0.0000000  0  8G11G23G14G18G 3G25G15G31
  23352501.713    -7456328.07249  -5794760.11246  23352501.759    23352506.604
       222.000         167.000
  24743370.571    16803146.21749  13086256.77344  24743373.579    24743381.883
       199.000         111.000
  20508208.869    -9425501.82149  -7141812.28948  20508208.703    20508213.234
       245.000         221.000
  23485888.381    15456944.93149  12035916.38446  23485888.388    23485893.349
       220.000         164.000
  23548822.355     6264261.09449   4886847.73446  23548822.170    23548830.019
       221.000         165.000
  22618832.046   -14384580.23749 -11200815.51146  22618831.729    22618838.575
       227.000         180.000
  22921825.630    14149004.35149  11022699.69346  22921825.011    22921833.573
       222.000         171.000
  23110080.277    -5634360.31649  -4375775.56846  23110080.614    23110087.076
       225.000         172.000
 03  3 21  3 18 30.0000000  0  8G11G23G14G18G 3G25G15G31
  23335288.216    -7546784.33549  -5865245.45946  23335288.066    23335292.730
       221.000         168.000
  24755138.847    16864986.63449  13134444.11244  24755138.154    24755142.595
       202.000         116.000
  20515325.572    -9388103.44549  -7112670.68648  20515325.356    20515329.841
       245.000         221.000
  23498708.253    15524313.79049  12088411.57546  23498707.603    23498713.579
       218.000         164.000
  23564014.269     6344094.87849   4949055.80946  23564014.272    23564021.282
       219.000         164.000
  22601779.850   -14474188.91749 -11270640.39046  22601779.414    22601786.718
       228.000         182.000
  22940920.896    14249350.65549  11100891.58246  22940920.921    22940927.558
       223.000         171.000
  23120627.491    -5578934.75149  -4332586.85846  23120626.803    23120633.892
       226.000         172.000
 03  3 21  3 19  0.0000000  0  8G11G23G14G18G 3G25G15G31
  23318116.219    -7637023.51749  -5935561.64046  23318115.295    23318120.942
       223.000         169.000
  24766916.984    16926880.14249  13182672.83544  24766917.480    24766926.982
       197.000         117.000
  20522514.283    -9350326.50249  -7083234.09548  20522514.109    20522518.506
       245.000         221.000
  23511546.136    15591777.89649  12140980.97146  23511546.095    23511551.424
       219.000         163.000
  23579230.168     6424055.73649   5011362.89846  23579229.639    23579238.338
       218.000         163.000
  22584769.755   -14563576.92949 -11340293.32546  22584770.419    22584776.474
       228.000         182.000
  22960065.364    14349954.88549  11179284.44846  22960064.858    22960072.862
       221.000         170.000
  23131243.309    -5523148.82949  -4289117.36046  23131243.204    23131249.803
       225.000         171.000
 03  3 21  3 19 30.0000000  0  8G11G23G14G18G 3G25G15G31
  23300986.269    -7727042.28249  -6005706.07246  23300985.993    23300991.235
       223.000         170.000
  24778705.237    16988828.07949  13230943.93644  24778705.859    24778713.450
       203.000         118.000
  20529774.828    -9312172.01549  -7053503.31248  20529774.483    20529779.277
       245.000         221.000
  23524402.484    15659338.00349  12193625.20546  23524402.215    23524406.978
       220.000         163.000
  23594470.038     6504141.85849   5073767.61445  23594470.128    23594477.218
       218.000         161.000
  22567802.514   -14652740.56249 -11409771.40246  22567802.585    22567808.349
       228.000         182.000
  22979258.710    14450816.06049  11257877.54146  22979258.620    22979265.790
       222.000         168.000
  23141927.156    -5467004.51049  -4245368.58046  23141926.488    23141933.542
       224.000         171.000
 03  3 21  3 20  0.0000000  0  8G11G23G14G18G 3G25G15G31
  23283898.484    -7816839.15149  -6075677.59746  23283897.463    23283903.223
       224.000         171.000
  24790504.135    17050829.77149  13279256.96844  24790504.131    24790510.028
       202.000         123.000
  20537106.605    -9273643.10349  -7023480.77348  20537106.447    20537111.127
       245.000         221.000
  23537276.890    15726993.33749  12246343.65246  23537276.563    23537281.816
       219.000         163.000
  23609732.998     6584349.23449   5136266.80145  23609733.612    23609741.163
       217.000         160.000
  22550878.281   -14741678.27449 -11479073.43746  22550878.222    22550884.364
       229.000         182.000
  22998500.269    14551931.32749  11336668.62346  22998499.090    22998507.699
       221.000         168.000
  23152678.588    -5410505.33249  -4201343.28346  23152678.214    23152684.864
       224.000         171.000
 03  3 21  3 20 30.0000000  0  7G11G14G18G 3G25G15G31
  23266853.588    -7906410.48949  -6145473.39446  23266853.632    23266858.780
       226.000         173.000
  20544509.577    -9234740.18749  -6993166.80048  20544509.312    20544514.061
       245.000         221.000
  23550169.515    15794745.45149  12299137.46645  23550169.677    23550175.560
       220.000         162.000
  23625018.864     6664676.67349   5198859.53745  23625018.530    23625027.420
       215.000         160.000
  22533997.802   -14830385.64049 -11548195.99146  22533997.688    22534004.080
       229.000         183.000
  23017790.086    14653300.12749  11415657.26146  23017789.746    23017796.677
       221.000         167.000
  23163497.350    -5353652.74149  -4157042.60346  23163497.364    23163503.770
       225.000         171.000
 03  3 21  3 21  0.0000000  0  7G11G14G18G 3G25G15G31
  23249851.981    -7995754.35149  -6215091.94846  23249852.432    23249857.491
       225.000         174.000
  20551983.239    -9195465.80949  -6962563.37948  20551983.138    20551987.629
       245.000         221.000
  23563080.754    15862593.64349  12352006.18846  23563080.029    23563085.683
       220.000         163.000
  23640326.853     6745120.36749   5261542.82945  23640327.192    23640334.753
       215.000         160.000
  22517161.631   -14918860.40149 -11617137.29546  22517161.823    22517168.636
       230.000         184.000
  23037127.629    14754919.93449  11494841.48146  23037126.359    23037135.006
       220.000         167.000
  23174382.638    -5296449.91849  -4112469.01546  23174382.679    23174389.540
       223.000         171.000
 03  3 21  3 21 30.0000000  0  7G11G14G18G 3G25G15G31
  23232894.100    -8084869.39649  -6284532.18046  23232893.622    23232899.381
       228.000         174.000
  20559527.023    -9155822.99649  -6931672.86448  20559527.026    20559531.343
       245.000         221.000
  23576009.962    15930537.20149  12404949.19446  23576009.688    23576015.835
       219.000         163.000
  23655656.179     6825676.43249   5324313.69645  23655655.790    23655664.339
       215.000         160.000
  22500369.982   -15007101.25349 -11685896.32846  22500369.938    22500376.435
       230.000         184.000
  23056512.404    14856787.94949  11574219.11646  23056511.779    23056520.297
       222.000         168.000
  23185333.853    -5238900.77149  -4067625.57146  23185334.697    23185340.427
       224.000         171.000
 03  3 21  3 22  0.0000000  0  7G11G14G18G 3G25G15G31
  23215980.102    -8173752.11549  -6353791.39146  23215978.702    23215985.369
       226.000         174.000
  20567140.803    -9115812.48349  -6900495.82948  20567140.525    20567145.147
       245.000         221.000
  23588957.598    15998577.46749  12457967.56646  23588956.825    23588962.684
       217.000         163.000
  23671006.680     6906343.23049   5387170.84545  23671006.783    23671015.038
       217.000         161.000
  22483623.542   -15095104.07549 -11754469.87446  22483623.561    22483629.665
       228.000         184.000
  23075944.567    14958903.55349  11653789.67546  23075944.716    23075952.490
       223.000         169.000
  23196350.867    -5181006.74649  -4022513.38946  23196350.721    23196357.713
       223.000         172.000
 03  3 21  3 22 30.0000000  0  7G11G14G18G 3G25G15G31
  23199110.590    -8262400.73649  -6422868.19646  23199110.280    23199115.402
       226.000         174.000
  20574823.989    -9075436.86049  -6869034.29148  20574823.666    20574828.372
       245.000         221.000
  23601923.522    16066714.17449  12511061.07145  23601923.568    23601928.771
       217.000         162.000
  23686377.641     6987117.44549   5450111.71745  23686377.832    23686385.723
       216.000         162.000
  22466922.743   -15182866.64349 -11822856.22346  22466922.813    22466929.503
       229.000         184.000
  23095423.297    15061264.36049  11733551.29546  23095423.371    23095430.152
       223.000         169.000
  23207432.756    -5122771.14549  -3977135.07646  23207432.369    23207440.036
       222.000         173.000
 03  3 21  3 23  0.0000000  0  7G11G14G18G 3G25G15G31
  23182286.265    -8350812.80349  -6491760.65946  23182285.358    23182291.361
       225.000         174.000
  20582576.285    -9034698.22149  -6837289.88648  20582575.999    20582580.673
       245.000         221.000
  23614907.853    16134947.25649  12564229.68345  23614907.190    23614913.618
       217.000         162.000
  23701768.340     7067995.71649   5513133.69046  23701768.697    23701776.712
       218.000         163.000
  22450268.239   -15270386.21449 -11891053.21946  22450268.173    22450275.193
       231.000         185.000
  23114948.264    15163868.18549  11813502.27646  23114947.505    23114955.176
       223.000         169.000
  23218578.984    -5064196.97349  -3931492.93646  23218578.652    23218585.371
       222.000         173.000
 03  3 21  3 23 30.0000000  0  7G11G14G18G 3G25G15G31
  23165507.354    -8438985.99549  -6560466.98946  23165507.263    23165512.183
       225.000         174.000
  20590397.310    -8993598.25049  -6805263.92348  20590397.165    20590401.566
       245.000         221.000
  23627910.733    16203276.88249  12617473.50645  23627910.898    23627916.942
       217.000         162.000
  23717178.392     7148975.01549   5576234.38446  23717178.479    23717187.322
       217.000         164.000
  22433660.556   -15357660.02849 -11959058.71946  22433660.000    22433666.631
       230.000         186.000
  23134519.099    15266713.30849  11893641.28446  23134518.166    23134527.014
       222.000         169.000
  23229789.258    -5005286.77749  -3885588.92246  23229788.492    23229796.473
       222.000         172.000
 03  3 21  3 24  0.0000000  0  7G11G14G18G 3G25G15G31
  23148774.318    -8526918.13649  -6628985.48546  23148773.807    23148779.373
       226.000         174.000
  20598286.695    -8952139.30749  -6772958.24548  20598286.413    20598291.030
       245.000         221.000
  23640931.726    16271702.84149  12670792.41045  23640930.255    23640936.732
       216.000         160.000
  23732607.011     7230052.54049   5639411.61646  23732606.458    23732615.498
       216.000         164.000
  22417100.062   -15444685.32149 -12026870.55846  22417100.005    22417106.873
       230.000         186.000
  23154135.357    15369797.74849  11973966.77646  23154135.056    23154142.739
       220.000         168.000
  23241062.864    -4946043.50049  -3839425.39546  23241062.817    23241069.587
       222.000         173.000
